GEFSSGP_con_cape1000_030.txt.gz
Probability
0 0 0 13 58 84 10 0 0 0 0 0 0 0 0 19 48 10 0 19 29 13 45 97 100 100 100 100 100 100 100 100 100 100 100 90 84 58 23 16 26 42 55 68 68 61 52 58 61
0 0 0 3 45 16 0 0 0 0 0 0 0 0 0 0 0 0 3 35 26 6 19 77 100 100 100 100 100 100 100 100 100 100 100 94 77 35 19 10 6 6 10 10 10 13 10 6 13
0 0 0 0 0 0 0 0 0 0 0 0 0 0 0 0 0 6 13 26 19 0 26 97 100 100 100 100 100 100 100 100 100 100 97 84 65 48 23 6 0 0 0 3 0 0 0 0 0
0 0 0 0 0 0 0 0 0 0 0 0 0 0 0 0 0 6 10 16 13 19 55 97 100 100 100 100 100 100 100 100 100 100 94 84 61 42 23 13 6 3 0 0 0 3 3 3 0
0 0 0 0 0 0 0 0 0 0 0 0 0 0 0 0 6 6 6 23 29 42 68 87 100 100 100 100 100 100 100 100 100 94 94 77 65 52 42 32 23 26 23 23 19 13 10 19 19
0 0 0 0 0 0 0 0 0 0 0 0 0 0 0 0 6 6 13 16 26 65 52 84 100 100 100 100 100 100 100 100 97 90 84 77 71 65 61 61 55 52 52 58 65 61 74 90 94
0 0 0 0 0 0 0 0 0 0 0 0 0 0 0 0 6 6 13 10 23 68 71 77 100 100 100 100 100 100 100 100 100 97 97 94 87 87 97 97 100 100 100 100 100 100 100 100 100
0 0 0 0 0 0 0 0 0 0 0 0 0 0 0 0 6 6 13 13 13 77 84 77 81 100 100 100 100 100 100 100 100 100 100 100 100 100 100 100 100 100 100 100 100 100 100 100 100
0 0 0 0 0 0 0 0 0 0 0 0 0 0 3 0 3 6 6 6 13 81 97 65 81 100 100 97 100 100 100 100 100 100 100 100 100 100 100 100 100 100 100 100 100 100 100 100 100
0 0 0 0 0 0 0 0 0 0 0 3 29 16 6 6 29 19 16 19 45 87 94 97 100 100 100 90 100 100 100 100 100 100 100 100 100 100 100 100 100 100 100 100 100 100 100 100 100
0 0 0 0 0 0 0 0 0 0 0 19 26 26 26 39 68 65 61 84 97 90 87 81 100 100 100 100 100 100 100 100 100 100 100 100 100 100 100 100 100 100 100 100 100 100 100 100 100
0 0 0 0 0 0 0 0 0 0 3 16 16 26 42 65 87 84 87 97 100 100 90 81 97 100 100 100 100 100 100 100 100 100 100 100 100 100 100 100 100 100 100 100 100 100 100 100 100
0 0 0 0 0 0 0 0 0 0 0 6 13 32 48 71 90 97 97 100 100 100 97 100 100 100 100 100 100 100 100 100 100 100 100 100 100 100 100 100 100 100 100 100 100 100 100 100 100
0 0 0 0 0 0 0 0 0 0 0 10 19 29 65 77 84 94 100 100 100 100 100 100 100 100 100 100 100 100 100 100 100 100 100 100 100 100 100 100 100 97 97 97 97 97 100 100 97
0 0 0 0 0 0 0 0 0 0 3 16 23 45 58 71 87 97 100 100 100 100 100 100 100 100 100 100 100 100 100 100 100 100 100 100 100 100 100 100 97 97 94 94 97 100 100 97 97
0 0 0 0 0 0 0 0 0 0 0 0 13 19 52 87 84 94 97 97 100 100 100 100 100 100 100 100 100 100 100 100 100 100 97 94 90 87 81 84 84 90 81 81 87 94 94 94 97
0 0 0 0 0 0 0 0 0 0 0 0 0 10 32 81 77 81 94 94 97 97 100 100 100 100 100 100 100 100 100 100 97 87 81 84 61 58 58 81 87 77 84 87 52 61 87 77 77
0 0 0 0 0 0 0 0 0 0 0 0 0 10 39 65 84 87 87 94 94 97 97 100 100 100 100 100 100 100 100 100 97 84 84 55 42 39 65 61 71 71 58 77 81 87 87 87 81
0 0 0 0 0 0 0 0 0 3 6 6 6 35 42 68 71 77 74 68 84 94 90 94 97 97 100 100 100 100 100 100 87 84 77 39 26 35 58 58 71 55 52 74 55 58 48 52 68
0 0 0 0 0 0 0 0 3 6 6 10 13 71 74 58 52 42 35 45 45 58 74 84 87 90 97 97 97 100 100 74 71 84 87 61 52 48 26 74 52 52 84 55 77 87 71 45 48
0 0 0 0 0 0 0 0 3 6 10 26 45 68 58 48 26 19 13 16 23 29 42 65 84 87 90 97 100 100 100 100 100 97 97 84 65 42 42 32 45 58 52 42 84 84 77 42 48
0 0 0 0 0 0 0 0 3 10 32 48 55 68 58 35 19 10 13 6 10 16 29 58 71 84 84 94 97 100 100 100 97 94 94 84 55 45 39 32 42 58 71 68 65 52 74 71 39
0 0 0 0 0 0 0 0 3 16 45 52 52 35 26 19 16 10 6 0 0 0 19 32 45 65 77 90 94 97 97 100 100 97 90 90 81 77 52 45 45 52 77 77 74 74 65 52 48
0 0 0 0 0 0 0 0 0 16 65 58 39 19 10 0 3 0 0 0 0 0 3 13 29 42 55 68 77 87 90 94 97 94 94 90 94 94 81 55 71 65 68 77 81 81 71 61 55
0 0 0 0 0 0 0 0 6 32 29 19 13 0 0 0 0 0 0 0 0 0 0 0 6 10 13 19 32 68 68 87 87 87 94 87 90 94 90 48 71 65 77 81 81 84 77 65 65
0 0 0 0 0 0 0 0 10 6 3 0 0 0 0 0 0 0 0 0 0 0 0 0 0 0 0 3 6 13 26 35 52 68 77 84 84 81 84 68 71 84 77 58 81 74 68 68 71
0 0 0 0 0 0 0 0 0 0 0 0 0 0 0 0 0 0 0 0 0 0 0 0 0 0 0 0 0 0 6 6 13 29 48 58 74 65 74 74 77 87 77 87 90 61 71 74 71
0 0 0 0 0 0 0 0 6 0 0 0 0 0 0 0 0 0 0 0 0 0 0 0 0 0 0 0 0 0 0 0 3 3 10 23 26 35 55 65 65 77 77 87 87 71 71 81 71
0 0 0 0 0 0 0 0 3 0 0 0 0 0 0 0 0 0 0 0 0 0 0 0 0 0 0 0 0 0 0 0 0 0 3 3 3 3 19 32 55 58 61 68 90 71 74 68 55
0 0 0 0 0 0 0 0 0 0 0 0 0 0 0 0 0 0 0 0 0 0 0 0 0 0 0 0 0 0 0 0 0 0 0 0 3 3 3 3 19 23 32 58 61 65 42 48 45

GEFSSGP_con_cape1000_036.txt.gz
Probability
0 0 0 0 0 13 13 6 0 0 0 0 0 0 6 6 6 0 0 0 0 6 77 100 100 100 100 100 100 97 90 90 90 97 97 94 97 97 97 97 97 94 100 97 97 97 87 81 77
0 0 0 0 0 0 0 0 0 0 0 0 0 0 0 3 3 0 0 0 0 13 74 94 100 100 100 100 100 100 97 94 100 97 94 90 90 90 90 94 94 94 87 87 87 81 68 68 71
0 0 0 0 0 0 0 0 0 0 0 0 0 0 0 3 16 3 0 0 0 16 58 94 100 100 100 100 100 100 100 97 97 100 94 87 74 65 61 71 71 68 61 58 58 45 42 48 42
0 0 0 0 0 0 0 0 0 0 0 0 0 0 0 6 10 6 0 0 0 13 58 94 100 100 100 100 100 100 100 100 100 100 97 87 81 71 65 55 52 55 35 26 23 23 23 19 19
0 0 0 0 0 0 0 0 0 0 0 0 0 0 3 10 6 0 0 0 0 10 81 97 100 100 100 100 100 100 100 100 100 100 90 87 77 77 77 71 68 68 61 45 35 32 23 16 13
0 0 0 0 0 0 0 0 0 0 0 0 0 0 6 6 6 0 0 0 0 19 77 100 100 100 100 100 100 100 100 100 100 100 97 94 94 90 87 87 87 90 84 87 81 81 74 71 71
0 0 0 0 0 0 0 0 0 0 0 0 0 0 6 3 3 0 0 0 0 23 71 100 100 100 100 100 100 100 100 100 100 100 97 97 94 90 90 94 97 100 100 100 100 100 100 100 100
0 0 0 0 0 0 0 0 0 0 0 0 0 0 6 0 0 0 0 3 13 10 55 94 100 100 100 100 100 100 100 100 100 100 100 100 97 97 97 100 100 100 100 100 100 100 100 100 100
0 0 0 0 0 0 0 0 0 0 0 0 0 0 0 6 0 3 16 23 19 23 29 77 87 87 94 100 100 100 100 100 100 100 100 100 97 94 100 100 100 100 100 100 100 100 100 100 100
0 0 0 0 0 0 0 0 0 0 0 3 0 3 6 10 0 10 32 45 23 19 13 55 77 81 81 97 97 100 100 100 100 100 100 100 90 84 94 100 100 100 100 100 100 100 100 100 100
0 0 0 0 0 0 0 0 0 0 0 0 0 3 6 10 6 10 19 45 48 19 3 19 45 68 74 71 68 94 100 100 100 100 100 97 84 87 97 100 97 100 100 100 100 100 100 100 100
0 0 0 0 0 0 0 0 0 0 0 0 0 0 6 6 10 6 13 35 55 29 13 10 16 35 39 23 42 81 84 90 97 100 100 100 97 97 90 90 87 90 94 94 94 94 94 94 97
0 0 0 0 0 0 0 0 0 0 0 0 0 3 6 6 6 10 6 13 45 42 16 13 13 32 32 32 45 45 65 81 87 94 100 100 97 100 84 68 65 61 81 90 84 81 87 87 90
0 0 0 0 0 0 0 0 0 3 10 6 0 3 3 6 6 10 10 10 32 19 13 19 29 29 42 58 87 84 90 87 90 97 94 97 97 90 71 61 45 42 45 48 58 52 52 42 58
0 0 0 0 0 0 0 0 0 3 19 10 0 0 3 6 6 10 6 10 13 13 16 19 26 45 48 61 81 90 97 94 90 94 97 97 100 87 61 32 23 13 23 23 26 26 13 10 19
0 0 0 0 0 0 0 0 0 3 16 16 6 10 6 3 6 13 13 16 13 16 10 13 23 32 39 48 74 84 84 94 97 94 90 94 90 81 39 23 10 16 23 6 0 6 6 3 0
0 0 0 0 0 0 0 0 0 3 10 6 10 3 10 10 6 10 13 10 10 13 13 6 6 23 39 45 55 71 68 68 71 81 87 77 71 55 29 16 10 3 6 0 0 0 0 0 0
0 0 0 0 0 0 3 3 3 13 23 19 10 16 19 10 3 3 3 6 6 6 10 6 10 13 23 35 48 52 61 61 55 52 55 55 48 35 23 13 6 0 0 0 0 0 0 0 0
0 0 0 0 3 3 3 19 39 32 29 32 29 23 13 13 6 6 0 0 0 3 3 3 3 6 23 32 42 42 42 42 29 32 45 42 16 19 10 3 3 0 0 0 0 0 0 0 0
0 0 0 0 3 6 3 23 52 42 35 29 19 10 6 6 3 0 0 0 0 0 0 0 3 3 10 19 29 29 26 23 13 10 16 16 13 10 6 0 0 0 0 0 0 0 0 0 0
0 0 0 0 0 3 3 6 13 32 29 16 10 3 0 0 0 0 0 0 0 0 0 0 0 0 3 13 19 13 6 3 0 6 6 3 6 3 0 0 0 0 0 0 0 0 0 0 0
0 0 0 0 0 0 0 0 10 10 10 6 0 0 0 0 0 0 0 0 0 0 0 0 0 0 0 3 10 6 10 10 6 10 3 3 0 0 0 0 0 0 0 0 0 0 0 0 0
0 0 0 0 0 0 0 0 0 3 0 3 0 0 0 0 0 0 0 0 0 0 0 0 0 0 0 0 0 0 3 0 3 3 0 3 0 0 0 0 0 0 0 0 0 0 0 0 0
0 0 0 0 0 0 0 0 0 0 0 0 0 0 0 0 0 0 0 0 0 0 0 0 0 0 0 0 0 0 0 0 0 0 0 0 0 0 0 0 0 0 0 0 0 0 0 0 0
0 0 0 0 0 0 0 0 0 0 0 0 0 0 0 0 0 0 0 0 0 0 0 0 0 0 0 0 0 0 0 0 0 0 0 0 0 0 0 0 0 3 0 0 0 0 0 0 0
0 0 0 0 0 0 0 0 0 0 0 0 0 0 0 0 0 0 0 0 0 0 0 0 0 0 0 0 0 0 0 0 0 0 0 0 0 0 0 0 0 0 3 0 0 0 0 0 0
0 0 0 0 0 0 0 0 0 0 0 0 0 0 0 0 0 0 0 0 0 0 0 0 0 0 0 0 0 0 0 0 0 0 0 0 0 0 0 0 0 0 0 0 0 0 0 0 0
0 0 0 0 0 0 0 0 0 0 0 0 0 0 0 0 0 0 0 0 0 0 0 0 0 0 0 0 0 0 0 0 0 0 0 0 0 0 0 0 0 0 0 0 0 0 0 0 0
0 0 0 0 0 0 0 0 0 0 0 0 0 0 0 0 0 0 0 0 0 0 0 0 0 0 0 0 0 0 0 0 0 0 0 0 0 0 0 0 0 0 0 0 0 0 0 0 0
0 0 0 0 0 0 0 0 0 0 0 0 0 0 0 0 0 0 0 0 0 0 0 0 0 0 0 0 0 0 0 0 0 0 0 0 0 0 0 0 0 0 0 0 0 0 0 0 0

GEFSSGP_con_cape1000_042.txt.gz
Probability
3 0 0 0 0 3 0 0 3 0 0 0 0 0 0 0 0 0 0 0 0 0 58 100 100 97 87 84 87 90 94 97 100 100 100 100 100 100 100 100 100 100 97 97 97 90 84 87 84
0 0 0 0 0 0 0 0 0 0 0 0 0 0 3 10 0 0 0 0 0 6 84 94 100 100 97 90 90 94 94 94 97 100 100 100 100 100 100 100 97 97 97 94 94 90 81 71 65
0 0 0 0 0 0 0 0 0 0 0 0 0 0 3 10 3 0 0 0 3 19 90 94 100 100 100 100 94 94 94 94 94 100 100 100 100 100 97 97 97 94 94 90 84 84 71 68 65
0 0 0 0 0 0 0 0 0 0 0 0 0 0 3 23 6 0 0 0 6 58 87 100 100 100 100 100 97 94 94 97 100 100 100 97 94 97 94 90 90 87 87 74 71 61 55 55 61
0 0 0 0 0 0 0 0 0 0 0 0 0 0 3 16 6 0 0 0 10 68 77 100 100 100 100 100 100 97 94 100 100 100 100 97 97 97 97 97 97 90 87 81 77 68 71 68 55
0 0 0 0 0 0 0 0 0 0 0 0 0 0 3 10 3 3 0 3 19 71 90 97 100 100 100 100 100 100 100 100 100 100 100 100 97 97 97 100 97 97 97 97 100 97 94 94 90
0 0 0 0 0 0 0 0 0 0 0 0 0 0 3 6 3 3 0 10 39 81 90 97 100 100 100 100 100 100 100 100 100 100 100 100 100 100 100 100 100 100 100 100 100 100 100 100 100
0 0 0 0 0 0 0 0 0 0 0 0 0 0 3 10 6 3 3 13 42 77 90 100 100 100 100 100 100 100 100 100 100 100 100 100 100 97 100 100 100 100 100 100 100 100 100 100 100
0 0 0 0 0 0 0 0 0 0 0 0 0 0 3 10 6 3 3 16 48 81 87 100 100 100 100 100 100 100 100 100 100 100 100 100 97 100 100 100 100 100 100 100 100 100 100 100 100
0 0 0 0 0 0 0 0 0 0 0 0 0 0 10 13 6 6 6 6 35 68 90 94 97 94 97 100 100 100 100 100 100 100 100 100 97 94 97 97 100 100 100 100 100 100 100 100 100
0 0 0 0 0 0 0 0 0 0 0 0 0 0 19 16 16 10 6 6 10 42 81 94 97 94 94 94 90 94 94 97 97 97 97 97 97 94 97 100 100 100 100 100 100 100 100 100 100
0 0 0 0 0 0 0 0 0 0 0 0 0 6 16 26 26 26 23 19 19 23 48 61 77 74 74 71 61 68 87 87 94 94 94 94 94 97 97 97 94 90 90 87 94 94 94 94 94
0 0 0 0 0 0 0 0 0 0 0 0 0 10 19 16 19 19 35 35 26 13 23 29 39 35 32 39 35 39 58 74 84 84 94 94 87 87 90 94 84 77 84 74 74 84 84 90 90
0 0 0 0 0 0 0 0 0 0 0 0 0 16 23 19 19 19 26 26 23 23 13 19 13 23 23 26 26 19 13 29 42 61 68 87 84 77 74 55 52 35 29 35 48 58 55 52 58
0 0 0 0 0 0 0 0 3 3 3 0 10 10 3 13 13 13 13 10 10 16 10 10 16 16 16 19 16 13 6 13 29 39 45 65 74 74 61 42 29 23 6 10 13 6 10 6 6
0 0 0 0 0 0 0 0 6 3 6 6 6 0 0 3 3 10 10 0 0 6 10 13 13 13 10 6 3 13 10 10 19 32 39 52 58 61 48 29 26 6 3 0 0 0 0 0 0
0 0 0 0 3 3 3 6 0 3 3 10 6 6 3 3 3 0 3 3 3 3 3 10 10 13 6 3 3 3 3 6 23 29 23 39 61 52 32 26 19 3 0 0 0 0 0 0 0
0 0 0 0 6 6 3 6 10 10 16 10 6 3 6 6 0 0 0 0 0 0 0 0 6 3 10 10 10 0 6 3 6 13 23 29 35 42 16 19 3 0 0 0 0 0 0 0 0
0 0 0 6 10 6 6 10 10 6 6 10 6 0 0 3 3 3 0 0 0 0 0 0 0 0 3 3 6 10 6 6 10 6 16 16 19 16 16 10 3 0 0 0 0 0 0 0 0
0 0 10 19 32 16 13 13 10 10 10 6 3 3 0 0 0 0 0 0 0 0 0 0 0 0 0 0 3 6 6 3 3 3 3 10 13 13 19 3 3 0 0 0 0 0 0 0 0
0 0 3 10 10 6 3 0 10 3 3 0 0 0 0 0 0 0 0 0 0 0 0 0 0 0 0 0 0 0 0 0 3 0 0 0 0 0 10 3 3 0 0 0 0 0 0 0 0
0 0 0 6 0 0 0 0 3 3 0 0 0 0 0 0 0 0 0 0 0 0 0 0 0 0 0 0 0 0 0 0 0 0 0 0 0 0 0 0 0 0 0 0 0 0 0 0 0
0 0 0 0 0 0 0 0 0 3 0 0 0 0 0 0 0 0 0 0 0 0 0 0 0 0 0 0 0 0 0 0 0 0 0 0 0 0 0 0 0 0 0 0 0 0 0 0 0
0 0 0 0 0 0 0 0 0 3 0 0 0 0 0 0 0 0 0 0 0 0 0 0 0 0 0 0 0 0 0 0 0 0 0 0 0 0 0 0 0 0 0 0 0 0 0 0 0
0 0 0 0 0 0 0 0 0 0 0 0 0 0 0 0 0 0 0 0 0 0 0 0 0 0 0 0 0 0 0 0 0 0 0 0 0 0 0 0 0 0 0 0 0 0 0 0 0
0 0 0 0 0 0 0 0 0 0 0 0 0 0 0 0 0 0 0 0 0 0 0 0 0 0 0 0 0 0 0 0 0 0 0 0 0 0 0 0 0 0 0 0 0 0 0 0 0
0 0 0 0 0 0 0 0 0 0 0 0 0 0 0 0 0 0 0 0 0 0 0 0 0 0 0 0 0 0 0 0 0 0 0 0 0 0 0 0 0 0 0 0 0 0 0 0 0
0 0 0 0 0 0 0 0 0 0 0 0 0 0 0 0 0 0 0 0 0 0 0 0 0 0 0 0 0 0 0 0 0 0 0 0 0 0 0 0 0 0 0 0 0 0 0 0 0
0 0 0 0 0 0 0 0 0 0 0 0 0 0 0 0 0 0 0 0 0 0 0 0 0 0 0 0 0 0 0 0 0 0 0 0 0 0 0 0 0 0 0 0 0 0 0 0 0
0 0 0 0 0 0 0 0 0 0 0 0 0 0 0 0 0 0 0 0 0 0 0 0 0 0 0 0 0 0 0 0 0 0 0 0 0 0 0 0 0 0 0 0 0 0 0 0 0

GEFSSGP_con_cape1000_048.txt.gz
Probability
0 0 0 10 77 74 3 0 0 0 0 0 0 0 0 0 0 13 58 10 3 26 100 100 97 94 100 100 97 100 100 100 100 100 100 100 100 100 100 100 100 97 90 90 87 87 87 84 84
0 0 0 23 71 3 0 0 0 0 0 0 0 0 0 6 13 35 35 13 0 35 100 100 100 97 100 100 100 100 100 100 100 100 100 100 100 100 100 100 100 94 94 90 74 65 65 65 68
0 0 0 10 6 0 0 0 0 0 0 0 0 0 3 26 52 29 26 6 3 65 97 100 100 100 100 100 100 100 100 100 100 100 100 100 100 100 100 97 97 90 90 77 68 58 52 52 48
0 0 0 0 0 0 0 0 0 0 0 0 0 0 16 52 35 19 10 6 19 81 94 97 100 100 100 100 100 100 100 100 100 100 97 97 100 100 100 97 94 90 90 81 65 65 58 52 52
0 0 0 0 0 0 0 0 0 0 0 0 0 0 23 68 26 10 10 10 39 52 94 100 100 100 100 100 100 100 100 100 100 97 97 97 97 97 94 90 94 90 90 87 81 65 65 65 55
0 0 0 0 0 0 0 0 0 0 0 0 0 0 61 81 32 13 10 6 10 29 81 100 100 100 100 100 100 97 97 97 97 100 100 97 97 97 97 97 97 94 94 87 74 71 77 77 74
0 0 0 0 0 0 0 0 0 0 0 0 0 0 58 74 48 26 16 10 13 23 77 100 100 100 100 100 100 97 97 97 97 97 97 97 97 97 97 100 97 97 97 97 94 94 94 94 97
0 0 0 0 0 0 0 0 0 0 0 3 0 3 48 87 68 52 39 26 19 32 68 100 100 100 100 97 100 97 97 97 97 97 97 100 100 100 100 100 100 100 100 100 100 100 100 100 100
0 0 0 0 0 0 0 0 0 0 3 13 23 61 81 97 90 81 74 61 61 52 87 97 100 100 100 94 100 100 100 100 100 100 100 100 97 61 100 97 100 100 100 100 100 100 100 100 100
0 0 0 0 0 0 0 0 0 0 3 29 58 81 100 100 97 97 90 90 100 100 100 97 100 100 100 90 97 100 100 100 100 97 94 100 97 97 84 81 100 100 100 100 100 100 100 100 100
0 0 0 0 0 0 0 0 6 0 13 29 58 71 94 100 100 100 100 97 100 100 100 100 100 100 100 94 97 97 100 100 100 100 100 100 100 100 97 84 100 100 100 100 100 100 100 100 100
0 0 0 0 0 0 0 3 10 13 19 35 55 71 84 97 100 100 100 97 100 100 100 100 100 100 100 97 97 97 90 94 94 100 97 97 100 100 94 97 87 97 97 97 100 100 100 100 100
0 0 0 0 0 0 3 3 16 26 39 55 71 87 90 90 97 94 97 97 97 100 97 97 100 100 100 100 97 81 74 77 84 87 87 94 97 97 97 100 100 94 74 87 97 94 94 94 90
0 0 0 0 0 0 0 6 13 19 39 55 68 65 74 87 90 90 87 94 90 94 94 94 97 94 90 87 90 87 71 94 77 81 77 84 87 94 94 90 97 97 84 71 87 74 77 84 87
0 0 0 0 0 0 0 3 16 29 42 52 48 52 61 61 58 71 81 87 84 87 87 84 84 84 81 87 84 74 68 65 61 71 81 81 90 94 97 87 94 94 87 97 100 84 77 84 74
0 0 0 3 0 0 0 6 13 39 48 48 42 42 45 42 45 48 52 61 65 71 71 65 52 58 61 74 77 71 61 65 71 71 71 65 71 84 87 87 84 87 84 84 87 77 77 71 55
0 0 0 3 13 10 3 35 35 45 58 55 39 39 42 45 52 52 52 48 45 52 55 55 52 52 61 52 58 58 71 68 71 58 58 52 55 52 74 94 68 74 71 61 55 42 61 48 48
0 0 6 13 26 19 39 39 35 32 35 45 45 42 39 42 35 35 39 48 52 45 45 52 52 58 55 52 68 61 52 58 61 45 45 39 35 35 39 48 45 39 55 61 52 55 65 55 35
0 0 16 35 42 45 48 45 32 29 32 35 35 42 42 42 39 35 29 29 23 29 45 58 58 55 65 61 61 68 71 68 65 39 35 32 39 35 35 35 45 45 39 42 26 48 35 26 23
3 10 26 61 48 45 48 39 35 39 35 29 29 35 32 35 26 23 29 19 23 29 35 32 39 32 35 45 61 55 65 55 35 26 26 19 16 26 16 35 23 32 29 39 52 58 26 16 10
0 3 16 42 55 42 35 39 39 26 26 23 19 16 13 16 10 10 13 13 13 13 19 10 19 19 23 29 19 23 29 35 10 16 23 10 6 13 23 19 26 26 29 35 39 45 29 13 6
0 0 10 39 52 29 29 6 45 16 16 10 6 3 3 3 3 3 3 3 0 3 0 0 10 13 13 10 10 3 6 6 6 10 10 0 0 0 0 3 13 16 23 23 19 23 29 23 16
0 6 16 23 10 3 3 0 26 16 6 6 0 0 0 0 0 0 0 3 0 0 0 0 0 0 0 0 6 10 3 0 0 0 3 3 0 0 0 0 0 3 13 19 29 19 26 26 16
3 6 13 10 3 0 0 0 6 29 29 0 0 0 0 0 0 0 0 0 0 0 0 0 0 0 0 0 0 0 0 3 3 0 0 3 0 0 0 0 0 0 0 3 16 29 32 23 19
0 0 0 0 0 0 0 0 26 29 6 0 0 0 0 0 0 0 0 0 0 0 0 0 0 0 0 0 0 0 0 0 0 0 0 0 0 0 0 0 0 0 0 0 3 13 13 16 42
0 0 0 0 0 0 0 0 35 13 0 0 0 0 0 0 0 0 0 0 0 0 0 0 0 0 0 0 0 0 0 0 0 0 0 0 0 0 0 0 0 0 0 0 0 0 6 16 29
0 0 0 0 0 0 0 3 6 0 0 0 0 0 0 0 0 0 0 0 0 0 0 0 0 0 0 0 0 0 0 0 0 0 0 0 0 0 0 0 0 0 0 0 0 0 0 10 23
0 0 0 0 0 0 0 0 0 3 0 0 0 0 0 0 0 0 0 0 0 0 0 0 0 0 0 0 0 0 0 0 0 0 0 0 0 0 0 0 0 0 0 0 0 0 0 3 10
0 0 0 0 0 0 0 0 0 0 0 0 0 0 0 0 0 0 0 0 0 0 0 0 0 0 0 0 0 0 0 0 0 0 0 0 0 0 0 0 0 0 0 0 0 0 0 0 0
0 0 0 0 0 0 0 0 0 0 0 0 0 0 0 0 0 0 0 0 0 0 0 0 0 0 0 0 0 0 0 0 0 0 0 0 0 0 0 0 0 0 0 0 0 0 0 0 0

GEFSSGP_con_cape1000_054.txt.gz
Probability
0 0 0 10 42 68 26 0 0 0 0 0 0 0 6 10 29 77 29 42 94 77 77 100 100 100 100 100 100 100 100 100 100 100 100 100 100 97 97 97 97 84 87 87 90 87 84 84 84
0 0 3 45 81 52 3 0 0 0 0 0 0 0 16 10 6 39 29 74 100 84 71 94 100 100 100 100 100 100 100 100 100 100 100 100 100 100 97 97 94 90 84 84 81 77 71 68 71
0 3 10 74 71 19 0 0 0 0 0 0 0 0 6 6 6 35 32 84 100 87 90 100 100 100 100 100 100 100 100 100 100 100 100 100 100 100 100 100 94 87 84 77 77 68 61 52 65
6 0 13 10 3 3 0 0 0 0 0 0 0 16 23 13 10 23 26 90 100 97 100 100 100 100 100 100 100 100 100 100 100 100 100 100 100 100 100 97 94 94 90 87 81 65 55 45 48
10 3 3 0 0 0 0 0 0 0 0 0 6 32 29 3 3 6 32 87 100 100 100 100 100 100 100 100 100 100 100 100 100 100 100 100 100 100 100 94 90 94 94 84 77 77 61 55 48
3 0 0 0 0 0 0 0 0 0 0 0 6 32 29 6 3 3 23 55 90 100 100 100 100 100 100 100 100 100 100 100 100 100 100 100 100 100 100 97 90 90 94 94 90 87 84 81 74
0 0 0 0 0 0 0 0 0 0 0 0 3 39 29 6 3 6 19 35 68 97 100 100 100 100 100 100 100 100 100 100 100 100 100 100 100 100 100 100 100 100 100 100 100 97 94 94 94
0 0 0 0 0 0 0 0 0 0 0 0 16 42 35 13 6 6 6 16 55 97 100 100 100 100 100 100 100 100 100 100 100 100 100 100 100 100 100 100 100 100 100 100 100 100 97 100 97
0 0 0 0 0 0 0 0 0 0 13 32 48 68 52 19 10 10 3 13 52 87 100 100 100 100 100 100 100 100 100 100 100 100 100 100 100 100 100 100 100 100 100 100 100 100 100 100 100
0 0 0 0 0 0 0 0 0 3 29 45 61 65 48 39 35 26 19 16 52 84 90 97 100 100 100 100 100 100 100 100 100 100 100 100 100 100 90 100 100 100 100 100 100 100 100 100 100
0 0 0 0 0 0 0 3 19 26 35 45 68 65 68 71 77 65 45 48 77 87 90 90 100 100 97 100 100 100 100 100 100 100 100 100 100 100 94 100 100 100 100 100 100 100 100 100 90
0 0 0 0 0 0 0 3 23 26 39 45 65 71 77 81 84 81 84 90 94 94 87 97 100 100 100 100 100 100 100 97 97 97 97 97 100 100 100 100 100 100 97 97 100 100 100 100 87
0 0 0 0 0 0 0 16 26 42 45 58 81 90 94 90 94 90 94 97 100 100 100 100 100 100 100 100 100 100 100 100 100 100 100 100 100 100 100 100 100 97 84 84 84 87 90 94 84
0 0 0 0 0 0 0 0 29 42 55 68 87 90 94 97 94 100 100 97 100 100 100 100 100 100 100 100 100 100 100 100 100 100 100 100 100 100 97 90 84 77 77 71 77 74 77 87 81
0 0 0 0 0 0 3 16 39 45 55 71 81 84 87 87 90 94 90 94 94 97 97 94 90 94 94 94 94 94 90 90 94 100 97 94 90 97 90 90 81 71 68 68 65 65 71 58 55
0 0 0 0 0 0 0 23 48 55 71 81 74 84 84 84 90 94 90 94 87 90 90 87 87 87 90 94 94 94 90 90 94 97 90 90 87 90 84 81 77 65 58 48 42 39 42 39 45
0 0 0 0 0 0 0 32 48 55 74 81 87 87 81 81 81 77 81 77 87 81 87 87 84 84 84 87 87 90 90 87 90 90 87 90 81 74 74 74 58 45 52 45 26 23 32 26 29
0 0 0 0 3 6 19 52 48 58 61 77 74 77 81 74 68 71 68 65 74 81 81 84 84 87 90 84 84 87 84 84 84 87 84 74 71 61 58 52 48 52 52 48 32 26 29 23 16
0 0 0 3 3 10 26 45 42 48 65 65 71 77 77 68 58 55 55 58 61 68 77 77 74 77 81 81 65 68 68 71 65 61 52 55 55 48 68 42 35 39 42 42 29 32 23 16 10
0 0 0 3 6 6 29 39 45 52 58 58 61 61 58 55 58 52 48 42 35 52 55 58 48 35 45 61 65 58 61 48 45 42 42 35 35 35 13 35 35 35 26 26 19 23 13 10 10
0 0 0 0 3 0 16 23 39 42 52 45 45 39 39 42 42 35 29 32 23 19 26 13 35 26 32 39 29 23 35 23 16 19 19 23 13 10 10 10 16 16 13 19 19 16 13 6 13
0 0 0 0 0 0 0 3 23 23 29 29 23 29 26 19 16 19 10 10 13 10 13 16 16 19 23 26 26 23 10 6 6 13 13 13 10 6 6 6 3 10 13 13 10 10 13 13 3
0 0 0 0 0 0 0 0 6 13 19 10 3 6 3 0 0 3 3 3 3 3 6 6 26 19 19 29 35 26 10 3 3 3 0 10 3 10 6 3 3 0 3 6 13 6 6 6 3
0 0 0 0 0 0 0 0 0 10 16 3 3 0 3 0 0 0 0 3 6 6 6 3 3 13 13 16 16 19 16 13 6 6 0 0 0 0 0 0 6 0 0 0 3 0 3 3 3
0 0 0 3 0 0 0 0 13 26 13 6 0 0 0 0 0 0 0 0 6 3 0 0 0 0 0 0 0 0 10 0 0 0 0 0 0 0 0 0 3 0 0 0 0 0 0 0 0
0 0 0 0 0 0 0 10 39 13 3 0 0 0 0 0 0 0 0 0 0 0 0 0 0 0 0 0 0 0 0 0 0 0 0 0 0 0 0 0 0 0 0 0 0 0 0 0 0
0 0 0 0 0 0 3 32 13 3 0 0 0 0 0 0 0 0 0 0 0 0 0 0 0 0 0 0 0 0 0 0 0 0 0 0 0 0 0 0 0 0 0 0 0 0 0 0 0
0 0 0 0 0 0 0 6 26 3 0 0 0 0 0 0 0 0 0 0 0 0 0 0 0 0 0 0 0 0 0 0 0 0 0 0 0 0 3 3 0 0 0 0 0 3 0 0 0
0 0 0 0 0 0 0 0 0 0 0 0 0 0 0 0 0 0 0 0 0 0 0 0 0 0 0 0 0 0 0 0 0 0 0 0 0 0 0 0 0 0 0 0 0 0 0 0 0
0 0 0 0 0 0 0 0 0 0 0 0 0 0 0 0 0 0 0 0 0 0 0 0 0 0 0 0 0 0 0 0 0 0 0 0 0 0 0 0 0 0 0 0 0 0 0 0 0

GEFSSGP_con_cape1000_060.txt.gz
Probability
13 3 0 0 0 10 10 13 3 0 0 0 3 3 13 48 52 39 35 45 61 84 100 100 100 100 100 100 100 100 100 100 100 100 100 100 100 100 100 100 100 100 100 100 100 100 100 100 97
0 0 0 0 10 16 6 0 0 0 3 3 3 3 3 48 71 65 42 48 68 84 100 100 100 100 100 100 100 100 100 100 100 100 100 100 100 100 100 100 100 97 100 94 94 90 84 87 94
0 0 0 0 16 16 6 0 0 0 3 3 6 3 6 35 71 74 48 55 71 84 97 100 100 100 100 100 100 100 100 100 100 100 100 100 100 100 100 100 100 100 100 97 90 84 81 90 94
0 0 0 0 3 6 10 3 0 3 6 13 6 0 0 23 71 77 55 48 65 90 100 100 100 100 100 100 100 100 100 100 100 100 100 100 100 100 100 100 100 100 100 97 94 94 90 81 81
0 0 0 0 0 0 0 0 0 6 13 10 3 0 6 65 81 68 48 42 71 90 100 100 100 100 100 100 100 100 100 100 100 100 100 100 100 100 100 100 100 100 100 97 100 90 87 84 77
0 0 0 0 0 0 0 0 3 3 10 3 0 0 6 71 84 71 65 58 74 94 100 100 100 100 100 100 100 100 100 100 100 100 100 100 100 100 100 100 100 100 100 100 100 97 87 87 84
0 0 0 0 0 0 0 0 0 16 23 19 6 3 3 61 84 84 84 81 84 97 100 100 100 100 100 100 100 100 100 100 100 100 100 100 100 100 100 100 100 100 100 100 100 100 100 100 97
0 0 0 0 0 0 0 6 13 23 26 32 6 0 0 23 65 90 97 97 94 94 97 100 100 100 100 100 100 100 100 100 100 100 100 100 100 100 100 100 100 100 100 100 100 100 100 100 100
0 0 0 0 0 0 0 10 13 19 19 23 16 6 3 19 61 84 97 100 97 94 97 100 100 100 100 100 100 100 100 100 100 100 100 100 100 100 100 100 100 100 100 100 100 100 100 100 100
0 0 0 0 0 3 19 16 16 16 26 23 13 13 16 35 42 77 90 97 100 97 94 97 100 100 100 100 100 100 100 100 100 100 100 100 100 100 100 100 100 100 100 100 100 100 100 100 100
0 0 0 0 3 13 23 29 26 26 52 39 26 29 35 39 39 55 71 87 97 100 97 100 97 100 100 100 100 100 100 100 100 100 100 100 97 97 97 97 97 97 97 97 97 97 94 94 94
0 0 0 0 3 16 26 35 55 55 65 74 77 52 58 68 61 71 71 77 81 84 84 94 90 87 87 90 94 81 84 87 94 97 97 94 87 87 87 68 68 77 87 81 84 77 81 81 81
0 0 0 0 10 19 23 39 58 68 81 87 84 87 84 77 71 74 77 81 84 84 84 84 87 87 81 77 74 74 77 77 81 81 81 84 87 81 58 39 32 45 48 58 65 61 61 55 58
0 0 0 0 13 26 42 42 55 58 84 90 77 74 77 74 77 74 74 77 77 71 71 71 65 61 65 52 48 61 58 61 61 65 68 71 65 58 42 35 23 19 23 29 32 32 32 35 35
0 0 0 0 10 16 32 35 55 61 77 84 81 71 71 68 65 71 68 68 68 58 65 65 52 45 45 42 42 39 45 48 48 45 45 48 55 35 26 23 26 16 13 10 16 10 6 10 13
0 0 0 0 0 10 19 39 61 65 65 61 77 71 61 58 61 61 68 65 61 55 39 42 55 35 32 26 26 39 26 26 45 45 35 48 39 35 23 19 13 16 16 13 6 3 3 6 3
0 0 0 0 0 0 29 45 58 55 68 71 65 58 52 45 45 48 52 58 52 39 32 29 32 39 29 26 26 23 13 16 13 26 23 29 26 16 13 6 6 6 13 10 3 3 0 0 0
0 0 0 0 10 10 26 29 39 39 55 55 68 58 48 39 42 45 52 58 48 32 26 23 23 16 13 10 13 3 0 0 3 3 16 13 10 10 3 0 0 0 0 0 0 0 0 0 0
0 0 0 0 3 10 19 19 23 26 45 48 42 45 42 42 32 42 39 45 52 29 19 16 10 10 6 10 6 3 0 0 0 0 0 6 6 3 0 0 0 0 0 0 0 0 0 0 0
0 0 0 0 0 0 16 13 13 19 23 26 39 32 32 26 29 32 32 32 29 19 16 19 10 6 3 0 0 0 0 0 0 0 0 0 0 0 0 0 0 0 0 0 0 0 0 0 0
0 0 0 0 0 6 10 3 3 6 13 16 26 32 32 23 29 29 23 16 16 16 6 10 0 3 0 0 0 0 0 0 0 0 0 0 0 0 0 0 0 0 0 0 0 0 0 0 0
0 0 0 0 0 0 3 0 0 3 3 10 16 23 23 26 26 23 23 19 10 6 6 0 0 0 0 0 0 0 0 0 0 0 0 0 0 0 0 0 0 0 0 0 0 0 0 0 0
0 0 0 0 0 0 0 0 0 0 0 3 6 6 13 13 19 19 19 10 10 3 3 0 0 0 0 0 0 0 0 0 0 0 0 0 0 0 0 0 0 0 0 0 0 0 0 0 0
0 0 0 0 0 0 0 0 0 0 0 0 0 6 13 6 6 6 6 3 3 3 0 0 0 0 0 0 0 0 0 0 0 0 0 0 0 0 0 0 0 0 0 0 0 0 0 0 0
0 0 0 0 0 0 0 0 0 0 0 0 0 3 0 0 3 3 0 0 0 0 0 0 0 0 0 0 0 0 0 0 0 0 0 0 0 0 0 0 0 0 0 0 0 0 0 0 0
0 0 0 0 0 0 0 0 0 0 0 0 0 0 0 0 0 0 0 0 0 0 0 0 0 0 0 0 0 0 0 0 0 0 0 0 0 0 0 0 0 0 0 0 0 0 0 0 0
0 0 0 0 0 0 0 0 0 0 0 0 0 0 0 0 0 0 0 0 0 0 0 0 0 0 0 0 0 0 0 0 0 0 0 0 0 0 0 0 0 0 0 0 0 0 0 0 0
0 0 0 0 0 0 0 0 0 0 0 0 0 0 0 0 0 0 0 0 0 0 0 0 0 0 0 0 0 0 0 0 0 0 0 0 0 0 0 0 0 0 0 0 0 0 0 0 0
0 0 0 0 0 0 0 0 0 0 0 0 0 0 0 0 0 0 0 0 0 0 0 0 0 0 0 0 0 0 0 0 0 0 0 0 0 0 0 0 0 0 0 0 0 0 0 0 0
0 0 0 0 0 0 0 0 0 0 0 0 0 0 0 0 0 0 0 0 0 0 0 0 0 0 0 0 0 0 0 0 0 0 0 0 0 0 0 0 0 0 0 0 0 0 0 0 0

GEFSSGP_con_cape1000_066.txt.gz
Probability
23 3 0 0 0 3 0 0 3 0 0 0 16 35 68 61 26 10 6 42 81 100 100 100 100 100 100 100 100 100 100 100 100 100 100 100 100 100 100 100 100 100 100 100 97 97 94 94 94
6 0 0 0 0 0 0 3 0 0 0 0 3 29 61 81 65 45 52 71 94 100 100 100 100 100 100 100 100 100 100 100 100 100 100 100 100 100 100 100 100 100 97 97 94 97 94 84 94
0 0 0 0 0 10 0 0 0 0 3 3 3 6 55 74 71 52 58 90 97 100 100 100 100 100 100 100 100 100 100 100 100 100 100 100 100 100 100 100 100 97 94 94 94 90 87 84 90
0 0 0 0 0 0 3 3 0 0 3 0 3 23 58 84 84 61 81 94 100 100 100 100 100 100 100 100 100 100 100 100 100 100 100 100 100 100 100 100 100 97 94 94 94 81 81 87 90
0 0 0 0 0 0 0 0 0 0 0 3 10 39 74 84 77 77 90 94 100 100 100 100 100 100 100 100 100 100 100 100 100 100 100 100 100 100 100 100 100 100 97 94 94 90 84 87 81
0 0 0 0 0 0 0 0 3 6 6 6 3 39 71 74 74 77 84 90 100 100 100 100 100 100 100 100 100 100 100 100 100 100 100 100 100 100 100 100 100 100 100 100 100 100 97 97 97
0 0 0 0 0 0 0 0 6 13 16 6 10 65 74 71 65 74 84 94 100 100 100 100 100 100 100 100 100 100 100 100 100 100 100 100 100 100 100 100 100 100 100 100 100 100 100 100 100
0 0 0 0 0 0 3 3 6 19 23 13 19 68 71 71 68 71 87 94 97 100 100 100 100 100 100 100 100 100 100 100 100 100 100 100 100 100 100 100 100 100 100 100 100 100 100 100 100
0 0 0 0 0 0 3 3 10 16 16 26 26 45 84 84 77 81 90 94 94 100 100 100 100 100 100 100 100 100 100 100 100 100 100 100 100 100 100 100 100 100 100 100 100 100 100 100 100
0 0 0 0 0 0 13 16 19 35 32 39 77 97 90 94 84 74 65 74 90 100 97 97 97 97 97 97 97 97 97 97 97 100 100 100 100 100 100 100 100 100 100 100 100 97 97 97 100
0 0 0 3 3 6 13 29 45 32 45 48 84 94 94 100 94 81 65 58 68 87 97 97 94 97 97 97 97 97 97 97 94 94 94 94 97 97 97 97 97 97 94 90 87 87 97 94 90
0 0 0 0 0 6 16 48 68 68 74 68 87 97 97 97 87 81 77 74 68 77 87 87 90 84 94 97 94 94 90 87 90 94 94 94 87 87 81 77 81 68 71 77 74 74 77 81 77
0 0 0 6 3 23 42 65 71 74 77 77 87 87 90 87 84 81 81 84 84 74 77 81 84 77 77 74 68 71 68 81 77 81 81 84 84 81 68 55 55 42 45 45 55 52 52 52 65
3 6 3 6 29 48 65 65 81 77 77 81 81 68 74 74 74 74 81 81 81 65 55 58 52 42 39 39 39 35 42 48 48 55 61 65 65 55 45 39 29 16 19 26 26 29 29 32 29
0 0 0 6 23 32 45 55 65 71 71 77 74 58 55 55 52 55 74 65 58 48 42 39 39 26 23 26 23 16 13 13 16 19 26 26 29 26 16 13 10 13 10 10 6 13 16 19 19
0 0 0 0 13 23 35 48 52 55 71 71 71 61 58 42 48 52 42 39 35 29 26 26 29 16 13 10 10 6 0 3 6 10 13 16 16 10 6 6 6 6 3 3 6 6 3 6 10
0 0 3 3 16 23 26 42 42 42 65 58 61 42 39 42 39 39 48 32 26 16 16 19 19 10 6 0 0 0 0 0 0 0 0 3 10 3 3 3 3 3 3 3 3 3 3 3 3
0 0 3 6 19 23 26 39 39 35 48 45 42 39 32 35 29 35 29 23 16 10 3 3 0 0 0 0 0 0 0 0 0 0 0 0 0 0 0 3 3 3 3 3 3 3 3 3 3
0 0 6 6 16 23 29 32 32 35 35 39 26 23 26 23 19 19 23 19 13 3 0 0 3 0 0 0 0 0 0 0 0 0 0 0 0 0 0 0 0 0 0 0 0 0 0 0 0
0 0 0 6 10 16 23 16 26 29 26 19 16 10 16 13 13 16 13 16 6 6 0 0 0 0 0 0 0 0 0 0 0 0 0 0 0 0 0 0 0 0 0 0 0 0 0 0 0
0 0 0 6 10 10 10 10 13 16 19 13 6 6 10 10 10 10 6 3 3 3 3 0 0 0 0 0 0 0 0 0 0 0 0 0 0 0 0 0 0 0 0 0 0 0 0 0 0
0 0 0 0 0 0 0 0 0 6 3 3 0 0 3 10 6 3 3 3 3 3 0 0 0 0 0 0 0 0 0 0 0 0 0 0 0 0 0 0 0 0 0 0 0 0 0 0 0
0 0 0 0 0 0 0 0 0 0 0 0 0 3 0 0 3 3 3 0 0 0 0 0 0 0 0 0 0 0 0 0 0 0 0 0 0 0 0 0 0 0 0 0 0 0 0 0 0
0 0 0 0 0 0 0 0 0 0 0 0 0 0 0 0 0 3 0 0 0 0 0 0 0 0 0 0 0 0 0 0 0 0 0 0 0 0 0 0 0 0 0 0 0 0 0 0 0
0 0 0 0 0 0 0 0 0 0 0 0 0 0 0 0 0 0 0 0 0 0 0 0 0 0 0 0 0 0 0 0 0 0 0 0 0 0 0 0 0 0 0 0 0 0 0 0 0
0 0 0 0 0 0 0 0 0 0 0 0 0 0 0 0 0 0 0 0 0 0 0 0 0 0 0 0 0 0 0 0 0 0 0 0 0 0 0 0 0 0 0 0 0 0 0 0 0
0 0 0 0 0 0 0 0 0 0 0 0 0 0 0 0 0 0 0 0 0 0 0 0 0 0 0 0 0 0 0 0 0 0 0 0 0 0 0 0 0 0 0 0 0 0 0 0 0
0 0 0 0 0 0 0 0 0 0 0 0 0 0 0 0 0 0 0 0 0 0 0 0 0 0 0 0 0 0 0 0 0 0 0 0 0 0 0 0 0 0 0 0 0 0 0 0 0
0 0 0 0 0 0 0 0 0 0 0 0 0 0 0 0 0 0 0 0 0 0 0 0 0 0 0 0 0 0 0 0 0 0 0 0 0 0 0 0 0 0 0 0 0 0 0 0 0
0 0 0 0 0 0 0 0 0 0 0 0 0 0 0 0 0 0 0 0 0 0 0 0 0 0 0 0 0 0 0 0 0 0 0 0 0 0 0 0 0 0 0 0 0 0 0 0 0

GEFSSGP_con_cape1000_072.txt.gz
Probability
39 10 0 0 45 35 0 3 10 10 10 39 45 42 48 61 71 90 84 87 87 100 100 100 100 100 100 100 100 100 100 100 100 100 100 100 100 100 100 100 100 100 100 97 100 87 87 97 97
10 0 0 23 58 3 0 3 13 10 19 19 32 45 48 71 81 81 87 90 94 100 100 100 100 100 100 100 100 100 100 100 100 100 100 100 100 100 100 100 100 97 97 97 90 84 84 87 94
6 3 13 32 16 6 3 6 19 10 16 13 39 68 71 77 81 77 90 94 100 100 100 100 100 100 100 100 100 100 100 100 100 100 100 100 100 100 100 100 100 100 97 97 84 81 77 84 94
3 6 13 16 6 0 0 6 10 10 16 29 48 68 90 97 90 90 94 94 100 100 100 100 100 100 100 100 100 100 100 100 100 100 100 100 100 100 100 100 100 97 94 97 90 87 77 81 84
3 3 0 0 0 0 3 10 16 16 23 32 39 61 100 100 94 97 97 97 100 100 100 100 100 100 100 100 100 100 100 100 100 100 100 100 100 100 100 100 100 94 94 94 90 87 87 84 84
0 0 0 0 0 3 10 13 29 39 35 29 48 65 100 100 100 100 97 97 94 100 100 100 100 100 100 100 100 100 100 100 100 100 100 100 100 100 100 100 100 100 97 94 94 97 94 94 90
0 0 0 0 0 3 10 19 29 42 42 48 48 74 97 100 97 97 94 90 90 94 100 100 100 100 100 100 100 100 100 100 100 100 100 100 100 100 100 100 100 100 100 100 97 94 97 97 100
0 0 0 0 0 0 13 26 32 45 61 61 68 68 84 100 100 97 94 94 94 94 100 100 100 100 100 100 100 100 100 100 100 100 100 100 100 100 100 100 100 100 100 100 100 97 97 100 100
0 0 0 0 0 6 19 19 42 48 65 84 90 90 94 100 100 97 97 90 94 90 100 100 100 100 100 100 97 97 97 97 100 100 100 100 100 100 100 100 100 100 100 100 100 100 100 100 100
0 0 0 0 0 6 16 23 39 52 68 90 97 100 97 100 97 97 94 94 97 100 100 100 100 100 97 94 97 97 97 97 97 97 97 100 100 100 97 97 97 94 90 94 94 90 94 97 94
0 0 0 3 3 6 16 29 42 55 74 90 87 97 100 100 100 90 90 87 94 94 94 94 100 100 94 94 97 97 97 97 97 97 94 94 90 94 94 97 97 94 87 87 87 87 90 87 87
0 3 0 6 10 16 26 48 68 81 87 94 90 94 100 100 94 81 84 87 87 90 100 94 97 97 94 94 94 97 97 97 94 90 87 90 94 90 84 84 87 84 84 87 87 87 84 84 81
0 3 6 10 19 32 48 65 74 90 100 94 100 100 100 94 97 90 90 90 87 97 90 90 94 97 97 97 97 97 97 94 94 87 84 81 87 84 81 84 84 74 77 74 74 77 81 81 74
0 6 10 29 39 58 58 81 87 97 94 94 97 97 100 100 100 97 94 97 94 94 90 94 90 90 90 94 97 97 87 87 87 81 74 84 77 77 74 77 77 84 74 68 65 61 61 68 71
0 3 13 32 48 68 68 81 97 97 97 94 94 94 100 100 100 97 97 94 97 97 94 94 90 90 87 84 87 84 84 77 71 68 65 61 61 68 68 68 61 52 48 52 45 35 39 45 42
0 0 3 23 52 71 61 61 94 94 94 97 94 97 97 100 97 94 94 97 97 94 94 87 65 87 87 81 87 65 58 65 58 48 48 48 45 45 55 45 39 35 35 29 29 32 32 29 29
0 0 0 13 45 61 42 55 90 87 87 94 87 87 87 84 81 84 90 87 90 94 94 84 84 84 77 81 74 58 55 48 39 39 39 42 35 23 26 32 32 29 26 19 13 13 19 16 16
0 0 0 3 29 45 35 58 81 81 81 74 71 71 68 74 71 74 81 84 90 87 84 77 77 74 65 61 58 45 42 26 16 23 19 19 10 13 13 16 16 13 10 13 10 10 16 16 13
0 0 0 13 32 29 32 52 74 74 68 68 68 58 52 61 68 74 68 74 68 74 68 68 68 58 55 42 26 23 13 13 6 6 6 6 3 3 6 3 0 3 3 6 0 10 6 6 6
0 0 6 16 29 19 35 39 55 52 52 52 52 52 52 55 65 68 71 61 58 52 52 58 61 42 42 39 35 26 16 10 6 6 3 3 3 3 0 0 0 0 0 0 0 0 3 0 0
0 3 6 13 29 26 23 16 29 32 35 32 35 45 39 39 42 45 39 35 45 52 42 23 42 48 42 29 26 13 23 13 0 3 3 3 0 0 0 0 0 0 0 0 0 0 0 0 0
0 3 3 6 10 10 3 0 10 23 26 29 35 39 26 13 13 19 26 23 29 39 42 42 42 42 48 42 23 0 10 6 0 0 0 0 0 0 0 0 0 0 0 0 0 0 0 0 0
0 0 3 0 0 0 3 0 6 10 10 23 23 26 16 10 16 23 26 32 32 32 35 45 48 48 52 42 32 29 10 6 0 0 0 0 0 0 0 0 0 0 0 0 0 0 0 0 0
0 0 0 0 0 0 0 0 0 6 6 6 16 23 19 10 13 16 23 39 48 45 48 48 52 58 52 39 26 19 16 13 6 6 0 0 0 0 0 0 0 0 0 0 0 0 0 0 0
0 0 0 0 0 0 0 0 0 0 0 0 6 16 19 16 10 19 26 26 45 48 48 39 45 39 29 26 23 16 13 10 6 6 3 0 0 0 0 0 0 0 0 0 0 0 0 0 0
0 0 0 0 0 0 0 0 0 0 0 0 0 0 3 3 10 10 23 32 39 23 26 16 19 23 13 16 10 10 6 3 3 0 0 0 0 0 0 0 0 0 0 0 0 0 0 0 0
0 0 0 0 0 0 0 0 0 0 0 0 0 0 0 3 3 0 3 10 16 10 13 10 10 3 3 3 3 3 3 0 0 0 0 0 0 0 0 0 0 0 0 0 0 0 0 0 0
0 0 0 0 0 0 0 0 0 0 0 0 0 0 0 3 3 0 0 3 3 10 10 6 6 3 3 3 3 0 0 0 0 0 0 0 0 0 0 0 0 0 0 0 0 0 0 0 0
0 0 0 0 0 0 0 0 0 0 0 0 0 0 0 0 0 0 0 0 6 6 6 3 3 3 3 0 0 0 0 0 0 0 0 0 0 0 0 0 0 0 0 0 0 0 0 0 0
0 0 0 0 0 0 0 0 0 0 0 0 0 0 0 0 0 0 0 0 0 0 0 0 0 0 0 0 0 0 0 0 0 0 0 0 0 0 0 0 0 0 0 0 0 0 0 0 0

GEFSSGP_con_cape1000_078.txt.gz
Probability
55 29 48 61 77 81 48 13 0 0 3 3 16 39 55 68 74 74 65 87 94 97 100 100 100 100 100 100 100 100 100 100 100 100 100 100 100 100 100 100 97 97 100 100 97 87 90 90 94
29 39 42 55 90 55 10 3 6 0 3 10 10 42 55 58 65 68 81 94 94 90 100 100 100 100 100 100 100 100 100 100 100 100 100 100 100 100 97 94 97 100 97 94 94 84 84 90 87
23 45 32 65 77 26 6 3 13 3 3 10 19 48 55 58 68 81 81 94 90 100 100 100 100 100 100 100 100 100 100 100 100 100 100 100 100 100 100 97 94 94 94 94 81 81 81 81 87
35 45 32 32 16 3 3 0 3 6 10 13 45 68 84 65 84 84 81 97 97 100 100 100 100 100 100 100 100 100 100 100 100 100 100 100 100 100 97 94 94 94 90 94 74 77 74 77 77
29 35 19 10 3 3 0 3 6 6 6 16 71 90 77 71 81 81 87 94 97 100 100 100 100 100 100 100 100 100 100 100 100 100 100 100 100 97 97 94 97 94 94 87 81 74 74 68 68
13 6 0 0 0 0 0 3 13 6 13 26 71 84 77 77 77 87 90 87 97 100 100 100 100 100 100 100 100 100 100 100 100 100 100 100 100 100 100 100 100 94 97 94 90 84 87 71 74
0 0 0 0 0 0 0 6 19 16 13 23 52 84 77 74 74 81 87 87 100 100 97 100 100 100 100 100 100 100 100 100 100 100 100 100 100 100 100 100 100 100 100 97 97 97 97 97 87
0 0 0 0 0 0 3 10 16 26 29 39 61 84 87 81 74 77 87 87 100 100 100 100 100 100 100 100 100 100 100 100 97 97 97 97 97 97 100 100 100 100 100 100 97 97 94 97 97
0 0 0 0 0 0 3 10 13 23 32 45 65 84 87 84 87 90 90 87 100 100 100 100 100 100 100 100 97 100 97 94 94 97 94 97 97 97 97 97 97 97 97 97 100 97 97 97 97
0 0 0 0 3 3 3 6 10 26 48 58 77 81 87 87 100 100 97 94 100 100 100 100 100 100 97 97 97 97 97 94 94 97 97 97 94 94 90 87 90 94 87 84 90 90 94 94 94
0 0 0 0 3 3 3 0 16 19 45 48 58 81 87 94 100 97 97 97 100 100 100 100 100 97 97 97 97 97 97 100 97 100 94 97 97 90 90 94 97 94 84 81 84 90 84 81 81
0 0 0 0 0 0 3 6 19 32 45 45 61 84 94 94 94 94 94 94 100 100 97 97 97 97 97 97 94 94 97 94 97 90 90 90 84 97 94 84 81 84 84 87 87 77 71 74 77
0 0 0 3 0 0 3 19 45 48 39 55 61 71 90 94 94 94 94 97 100 100 97 97 97 97 97 94 90 94 97 94 94 90 90 87 81 84 87 87 84 77 74 68 74 65 61 68 65
0 0 0 0 0 0 3 19 42 35 52 65 74 87 87 94 94 94 97 100 97 97 97 97 97 97 94 94 94 90 90 90 84 84 74 71 71 77 74 81 81 77 77 71 58 52 48 52 52
0 0 0 0 0 0 10 16 32 39 58 68 74 84 90 90 100 97 100 97 97 94 94 94 97 97 94 90 90 84 84 74 77 81 68 55 55 65 65 71 71 74 61 61 58 52 45 35 32
0 0 0 0 0 0 0 23 35 29 61 71 77 84 94 97 100 100 100 97 94 94 94 90 84 90 94 90 87 84 71 65 55 58 52 52 48 42 48 55 52 48 45 52 45 39 35 42 29
0 0 0 0 0 0 0 16 23 32 45 68 77 84 97 97 97 100 94 97 94 94 94 90 90 87 90 84 87 68 61 58 52 48 48 48 32 26 32 35 35 29 35 35 16 32 35 29 29
0 0 0 0 0 0 6 13 19 23 39 55 65 77 81 77 84 87 90 90 97 94 94 94 90 90 81 77 74 65 61 52 45 39 48 29 26 10 13 19 16 13 16 26 19 19 19 32 26
0 0 0 0 0 3 3 13 16 32 32 48 61 58 65 68 74 68 71 77 81 97 94 97 87 87 77 77 74 65 68 58 42 42 29 13 10 3 3 3 3 3 6 13 6 10 6 10 16
0 0 0 0 0 3 13 10 19 29 35 42 52 48 61 65 65 65 68 65 68 90 90 90 94 90 84 71 68 71 65 55 52 48 29 6 6 6 0 13 3 3 6 3 6 6 3 3 0
0 0 0 0 0 6 10 16 23 29 45 42 42 52 52 58 61 58 55 48 71 87 84 74 90 87 71 65 65 58 55 52 52 39 39 13 6 6 6 6 3 0 3 0 3 0 0 0 0
0 0 0 0 0 3 3 10 23 16 23 39 42 45 42 39 45 45 39 45 55 77 74 87 94 90 74 68 61 55 58 42 32 35 29 16 16 6 6 6 0 3 0 0 0 0 0 0 0
0 0 0 0 0 0 0 0 16 13 16 29 32 32 35 32 29 35 35 58 55 55 61 84 94 87 77 65 58 61 52 39 35 29 26 23 10 6 10 6 3 3 0 0 0 0 0 0 0
0 0 0 0 0 0 0 0 6 10 16 16 29 39 39 26 19 29 35 58 61 52 52 65 90 84 77 61 61 55 39 29 23 13 16 10 10 6 6 3 6 6 0 0 0 0 0 0 0
0 6 0 0 0 0 0 0 6 3 6 6 23 32 26 16 23 26 19 48 61 61 55 68 84 84 68 58 35 29 26 19 19 13 13 10 10 6 3 3 6 3 0 0 0 0 0 0 0
0 0 0 0 0 0 0 0 0 0 3 6 13 19 23 16 26 19 29 42 58 48 68 74 74 71 48 42 29 26 19 16 16 6 10 6 6 0 0 0 0 0 0 0 0 0 0 0 0
0 0 0 0 0 0 0 0 0 0 3 3 6 16 16 19 23 16 16 19 39 45 52 39 58 45 29 13 16 13 13 10 6 6 6 0 0 0 0 0 0 0 0 0 0 0 0 0 0
0 0 0 0 3 0 0 3 0 0 0 0 0 10 10 10 6 6 3 10 29 29 35 26 29 26 19 10 13 3 13 10 6 3 0 0 0 0 0 0 0 0 0 0 0 0 0 0 0
0 0 0 0 0 0 0 0 0 3 0 0 0 3 6 3 3 0 6 13 23 19 19 16 19 19 16 6 6 6 6 6 3 3 0 0 0 0 0 0 0 0 0 0 0 0 0 0 0
0 0 0 3 3 10 0 0 0 0 0 0 0 3 3 3 3 0 6 10 13 6 13 13 10 10 6 3 3 3 3 0 0 0 0 0 0 0 0 0 0 0 0 0 0 0 0 0 0

GEFSSGP_con_cape1000_084.txt.gz
Probability
87 71 45 23 23 16 3 0 0 3 3 10 23 32 32 32 35 58 45 81 100 100 100 100 100 100 100 100 100 100 100 100 100 100 100 100 100 100 100 100 100 100 100 97 97 97 94 94 100
55 26 10 10 23 3 0 0 0 3 6 10 16 35 55 81 87 84 81 97 100 100 100 100 100 100 100 100 100 100 100 100 100 100 100 100 100 100 100 97 100 100 100 97 94 90 87 94 94
13 6 6 16 13 3 0 0 0 6 6 16 23 45 55 74 87 84 77 100 100 100 100 100 100 100 100 100 100 100 100 100 100 100 100 100 100 100 100 100 97 97 97 94 94 81 90 87 90
3 3 6 13 6 6 0 0 0 10 13 26 32 45 55 77 81 77 81 97 100 100 100 100 100 100 100 100 100 100 100 100 100 100 100 100 100 100 100 100 100 100 97 94 87 90 87 84 84
0 10 19 3 0 0 3 0 0 10 16 19 39 48 58 77 81 81 90 94 100 100 100 100 100 100 100 100 100 100 100 100 100 100 100 100 100 100 100 100 100 100 97 97 97 87 84 77 74
0 0 0 0 0 0 0 0 3 10 13 26 32 45 55 71 84 94 81 84 100 100 100 100 100 100 100 100 100 100 100 100 100 100 100 100 100 100 100 100 100 97 97 97 97 94 81 81 81
0 0 0 0 0 0 3 3 13 19 29 26 26 35 52 71 68 84 77 81 94 100 100 100 100 100 100 100 100 100 100 100 100 100 100 100 100 100 100 100 100 97 97 97 97 94 90 97 100
0 0 0 0 0 0 3 3 10 23 29 23 16 35 42 58 65 71 81 87 90 97 100 100 100 100 100 100 100 100 100 100 100 100 100 100 100 100 100 100 100 97 94 94 90 97 97 100 100
0 0 0 0 0 0 3 6 19 23 23 23 29 35 39 52 65 65 71 77 87 87 94 100 100 100 100 100 100 100 100 100 100 100 100 100 94 94 94 94 94 97 94 94 97 94 97 94 97
0 0 0 0 0 3 6 19 23 26 29 26 35 35 32 48 71 68 71 84 81 84 90 94 97 97 97 97 97 97 97 94 94 94 90 87 81 81 87 87 87 87 87 90 87 90 90 90 81
0 0 0 0 3 3 13 23 23 26 23 29 32 32 35 48 61 71 77 77 90 87 84 84 84 90 94 94 97 94 90 90 87 84 71 65 61 58 58 55 71 65 65 65 65 68 74 71 48
0 0 0 0 0 6 10 19 19 19 23 32 35 32 39 42 55 68 74 77 77 94 87 84 90 87 87 94 94 84 77 68 58 52 52 32 26 26 39 42 32 35 32 35 35 35 39 35 29
0 0 3 6 10 6 19 23 19 16 16 23 32 32 39 48 42 61 68 74 81 87 90 87 84 81 77 71 65 65 65 45 42 29 29 16 10 16 19 26 23 16 16 26 23 23 16 19 10
0 0 0 6 3 6 13 6 16 16 6 16 19 35 39 45 42 55 61 68 84 87 90 84 84 71 65 55 55 45 39 35 35 23 26 23 13 13 13 13 13 10 13 6 3 6 10 3 3
0 0 0 3 0 3 3 10 10 13 10 19 19 32 32 39 39 52 71 71 81 87 81 74 71 61 58 45 42 35 29 26 26 23 19 10 10 6 3 0 0 3 3 3 3 3 3 10 3
0 0 0 0 3 3 0 6 10 13 13 10 29 29 32 39 52 55 71 74 77 77 74 71 68 55 45 35 42 29 19 19 23 16 13 10 0 0 0 0 0 0 3 3 3 3 3 3 3
0 0 0 0 0 3 0 6 10 10 16 19 26 32 35 42 45 65 74 77 65 68 65 68 65 58 45 32 32 26 16 13 10 10 3 3 0 0 0 0 0 3 3 3 3 0 3 3 3
0 0 0 0 0 0 0 3 6 6 16 16 23 29 32 39 39 58 65 65 61 55 61 55 45 42 32 29 19 10 6 6 6 0 3 0 0 0 0 0 0 0 0 0 0 0 0 0 0
0 0 0 0 0 0 6 3 3 3 13 13 19 26 19 29 39 55 58 58 55 48 45 35 29 29 23 26 16 13 10 3 3 0 0 0 0 0 0 0 0 0 0 0 0 0 0 0 0
0 0 0 0 0 0 3 6 3 6 16 16 13 19 23 29 42 52 52 55 52 42 39 35 26 23 13 13 10 6 6 0 0 0 0 0 0 0 0 0 0 0 0 0 0 0 0 0 0
0 0 0 0 0 0 0 0 6 6 6 6 10 23 23 26 35 52 48 48 42 35 32 29 26 23 13 6 6 6 0 0 0 0 0 0 0 0 0 0 0 0 0 0 0 0 0 0 0
0 0 0 0 0 0 0 0 0 0 0 3 3 16 23 39 35 29 35 32 35 35 26 23 19 16 13 6 3 3 0 0 0 0 0 0 0 0 0 0 0 0 0 0 0 0 0 0 0
0 0 0 0 0 0 0 0 0 0 3 0 3 13 19 29 29 23 26 26 32 23 23 19 16 16 13 3 3 0 0 0 0 0 0 0 0 0 0 0 0 0 0 0 0 0 0 0 0
0 0 0 0 0 0 0 0 0 0 0 0 6 13 23 19 23 23 19 19 19 19 19 16 13 16 16 10 6 3 3 0 0 0 0 0 0 0 0 0 0 0 0 0 0 0 0 0 0
0 0 0 0 0 0 0 0 0 0 0 0 0 13 23 19 16 13 10 10 13 16 16 19 23 19 16 16 10 6 3 0 0 0 0 0 0 0 0 0 0 0 0 0 0 0 0 0 0
0 0 0 0 0 0 0 0 0 0 0 0 3 6 19 13 13 10 6 13 16 16 19 16 26 26 16 16 6 3 0 0 0 0 0 0 0 0 0 0 0 0 0 0 0 0 0 0 0
0 0 0 0 0 0 0 0 0 0 0 0 0 0 6 10 6 6 6 10 16 16 13 29 23 16 13 10 6 3 0 0 0 0 0 0 0 0 0 0 0 0 0 0 0 0 0 0 0
0 0 0 0 0 0 0 0 0 0 0 3 0 3 3 6 3 6 6 10 13 13 26 19 16 6 10 10 6 3 0 0 0 0 0 0 0 0 0 0 0 0 0 0 0 0 0 0 0
0 0 0 0 0 0 0 0 0 0 0 0 3 3 6 3 6 3 3 10 10 16 13 10 3 3 6 6 6 3 0 0 0 0 0 0 0 0 0 0 0 0 0 0 0 0 0 0 0
0 0 0 0 0 0 0 0 0 0 0 0 0 0 3 3 0 0 0 0 0 0 6 3 3 6 6 6 3 0 0 0 0 0 0 0 0 0 0 0 0 0 0 0 0 0 0 0 0

GEFSSGP_con_cape1000_090.txt.gz
Probability
84 71 52 13 3 3 0 0 0 3 3 0 10 23 23 29 23 19 32 55 87 100 100 100 100 100 100 100 100 100 100 100 100 100 100 100 100 100 100 100 100 97 94 90 94 90 94 100 100
68 61 10 3 3 0 0 0 3 3 6 13 6 16 35 45 65 71 71 87 100 100 100 100 100 100 100 100 100 100 100 100 100 100 100 100 100 100 100 100 97 97 94 90 90 94 90 97 100
32 13 3 3 0 0 0 3 6 3 0 19 16 35 45 65 77 84 87 94 97 100 100 100 100 100 100 100 100 100 100 100 100 100 100 100 100 100 100 100 100 97 94 94 90 87 90 94 100
6 0 3 3 0 0 0 0 3 3 0 10 26 42 55 65 77 87 87 97 97 97 97 97 100 100 100 100 100 100 100 100 100 100 100 100 100 100 100 97 94 87 87 87 87 90 90 90 94
0 0 3 0 0 0 0 3 6 6 13 13 26 42 58 74 81 90 90 94 94 94 97 100 100 100 100 100 100 100 100 100 100 100 100 100 100 100 100 100 94 94 97 94 90 90 87 87 87
0 0 0 0 0 0 0 0 6 10 13 16 29 42 42 71 81 84 87 90 90 97 100 100 100 100 100 100 100 100 100 100 100 100 100 100 100 100 100 100 100 97 97 97 90 87 90 90 87
0 0 0 0 0 0 0 0 3 13 13 19 29 45 55 58 74 77 81 90 90 94 97 100 100 100 100 100 100 100 100 100 100 100 100 100 100 100 100 100 97 90 94 94 94 97 90 90 97
0 0 0 0 0 0 6 10 10 13 13 23 26 39 48 55 68 74 77 87 90 90 94 100 100 100 100 100 100 100 100 100 100 100 100 100 100 100 100 100 97 97 94 94 97 97 97 97 97
0 0 0 0 0 0 6 13 19 13 23 26 29 32 42 58 68 74 77 77 87 90 94 97 97 100 100 100 100 100 100 100 100 100 100 97 90 87 94 97 90 94 100 90 90 90 87 87 84
0 0 0 0 0 0 3 16 13 16 19 29 29 35 55 74 68 71 74 68 74 87 94 97 94 97 97 97 97 97 97 97 97 90 87 81 71 77 77 84 84 87 84 81 81 84 77 81 77
0 0 0 0 0 3 3 13 10 16 23 29 29 52 65 61 55 58 58 58 65 77 84 87 84 90 97 97 97 90 87 81 84 74 65 55 55 55 55 48 58 61 68 65 68 65 55 52 52
0 0 0 0 3 10 13 13 13 13 10 16 29 52 55 52 45 45 52 55 58 65 71 74 77 77 84 84 87 81 74 74 68 61 55 45 42 39 39 35 32 32 35 42 45 39 32 29 35
0 0 3 6 3 6 10 3 6 10 13 23 35 48 52 45 32 32 45 45 52 52 61 65 68 65 68 71 81 68 61 55 42 32 29 23 13 19 19 23 16 16 13 13 16 16 19 16 13
0 0 6 3 0 3 6 10 13 16 19 32 32 39 35 39 29 35 42 48 55 52 45 48 48 45 48 39 45 52 39 23 19 13 10 10 6 6 6 3 6 6 6 6 6 13 13 10 10
0 3 0 3 0 0 3 6 13 13 19 19 29 26 26 29 42 39 32 45 42 45 39 39 35 32 26 29 26 16 10 10 10 10 6 10 6 6 3 3 3 3 3 3 3 3 3 3 3
0 0 0 0 0 0 0 0 3 13 19 19 19 19 23 29 32 29 26 35 42 39 39 35 55 23 16 16 10 13 13 10 6 6 6 10 3 3 0 0 0 0 3 3 3 3 3 3 3
0 0 0 0 0 0 0 0 0 10 13 13 16 16 26 23 23 32 39 35 29 35 32 29 32 19 13 3 6 0 6 6 6 6 3 0 0 0 0 0 0 0 0 0 0 0 0 0 0
0 0 0 0 0 0 0 0 0 6 10 10 10 16 16 19 16 19 42 29 29 26 19 23 19 13 3 0 0 0 3 3 3 0 0 0 0 0 0 0 0 0 0 0 0 0 0 0 0
0 0 0 0 0 0 0 0 0 3 6 10 6 13 10 10 16 19 32 29 32 16 16 13 16 6 6 3 3 3 3 0 0 0 0 0 0 0 0 0 0 0 0 0 0 0 0 0 0
0 0 0 0 0 0 0 0 3 3 3 6 3 6 6 10 19 26 32 26 23 16 10 6 13 13 6 6 0 3 3 0 0 0 0 0 0 0 0 0 0 0 0 0 0 0 0 0 0
0 0 0 0 0 0 0 0 3 3 6 10 6 6 6 6 13 29 29 26 26 19 13 10 6 10 6 3 0 0 0 0 0 0 0 0 0 0 0 0 0 0 0 0 0 0 0 0 0
0 0 0 0 0 0 0 0 0 0 0 6 10 6 6 6 13 19 32 29 29 16 13 10 10 6 6 0 0 3 3 0 0 0 0 0 0 0 0 0 0 0 0 0 0 0 0 0 0
0 0 0 0 0 0 0 0 0 0 0 0 3 3 6 10 13 19 26 26 23 13 13 6 10 6 6 3 0 3 3 0 0 0 0 0 0 0 0 0 0 0 0 0 0 0 0 0 0
0 0 0 0 0 0 0 0 0 0 0 0 0 0 3 6 10 13 16 19 6 10 10 10 10 6 6 6 0 0 3 0 0 0 0 0 0 0 0 0 0 0 0 0 0 0 0 0 0
0 0 0 0 0 0 0 0 0 0 0 0 0 0 0 6 10 13 16 16 10 6 13 13 10 6 3 3 3 3 3 0 0 0 0 0 0 0 0 0 0 0 0 0 0 0 0 0 0
0 0 0 0 0 0 0 0 0 0 0 0 0 0 0 10 13 13 16 13 6 10 13 13 13 6 3 3 3 3 3 0 0 0 0 0 0 0 0 0 0 0 0 0 0 0 0 0 0
0 0 0 0 0 0 0 0 0 0 0 0 0 0 3 10 10 13 13 10 13 10 13 10 13 10 3 3 3 3 0 0 0 0 0 0 0 0 0 0 0 0 0 0 0 0 0 0 0
0 0 0 0 0 0 0 0 0 0 0 0 0 0 0 6 10 10 6 6 6 6 6 13 10 10 6 3 3 3 0 0 0 0 0 0 0 0 0 0 0 0 0 0 0 0 0 0 0
0 0 0 0 0 0 0 0 0 0 0 0 0 0 0 0 6 10 13 10 6 6 6 6 10 10 6 6 3 3 3 0 0 0 0 0 0 0 0 0 0 0 0 0 0 0 0 0 0
0 0 0 0 0 0 0 0 0 0 0 0 0 0 0 0 3 10 10 6 6 6 6 6 6 6 6 6 3 3 0 0 0 0 0 0 0 0 0 0 0 0 0 0 0 0 0 0 0

GEFSSGP_con_cape1000_096.txt.gz
Probability
71 61 58 74 84 6 0 0 3 3 6 13 10 10 6 10 10 45 74 32 48 77 90 97 100 100 100 100 100 100 100 100 100 100 100 100 100 100 100 97 97 97 100 97 94 97 100 100 97
48 45 52 71 29 0 0 0 6 10 19 23 16 13 19 35 65 87 74 52 61 74 84 100 100 100 100 100 100 100 100 100 100 100 100 100 100 100 100 100 97 94 90 94 94 94 97 97 100
35 42 48 23 0 0 0 3 6 6 13 26 16 23 42 61 77 90 81 71 74 84 90 97 100 100 100 100 100 100 100 100 100 100 100 100 100 100 100 100 97 90 87 87 94 94 97 97 100
26 35 29 3 0 0 3 3 3 6 19 32 29 45 65 77 84 97 81 77 81 90 94 100 100 100 100 100 100 100 100 100 100 100 100 100 100 100 100 100 97 97 90 90 87 87 94 94 100
19 6 0 0 0 0 0 3 10 6 19 42 35 42 74 90 94 94 87 65 84 84 97 100 100 100 100 100 100 100 100 100 100 100 100 100 100 100 100 97 97 97 94 90 90 90 94 94 100
0 0 0 0 0 0 3 6 10 16 19 35 39 48 87 87 94 90 84 61 65 61 87 97 100 100 100 100 100 100 100 100 100 100 100 100 100 100 97 94 94 97 94 87 87 87 81 84 90
0 0 0 0 0 0 0 6 16 26 32 42 48 58 84 87 94 87 81 68 65 68 97 100 90 100 100 100 100 100 100 100 100 100 100 100 97 100 97 94 90 97 94 94 94 90 90 87 90
0 0 0 0 0 0 0 10 13 32 42 52 58 65 84 90 90 90 84 87 84 90 97 97 90 94 97 94 100 100 100 100 100 100 100 97 94 97 94 94 94 84 87 90 84 81 77 84 84
0 0 0 0 0 0 0 0 10 39 58 61 58 74 84 90 90 94 94 90 94 94 97 97 94 94 94 94 97 100 100 100 100 100 100 97 97 94 94 97 90 87 84 87 87 84 77 71 71
0 0 0 0 0 0 0 0 6 29 52 65 58 81 87 84 90 87 87 90 94 90 94 94 94 97 94 90 100 100 90 100 100 100 100 97 97 94 87 84 74 77 81 81 77 74 68 65 68
0 0 0 0 0 0 0 3 13 19 35 58 68 87 87 84 84 84 87 87 90 90 90 90 97 100 97 100 100 100 100 100 97 100 97 97 97 94 81 84 81 81 68 81 65 65 52 48 61
0 0 0 0 0 0 0 6 16 23 39 45 71 81 84 81 84 81 87 81 90 90 90 81 90 100 100 100 100 100 94 94 94 97 94 94 87 81 71 71 71 68 71 71 65 77 61 61 58
0 0 0 0 3 0 6 6 16 26 29 42 58 74 84 84 81 77 81 81 87 94 94 90 100 100 100 100 97 90 97 94 90 94 81 74 71 61 55 61 68 61 58 58 58 65 65 65 48
0 0 0 0 0 3 3 6 10 23 29 48 61 74 77 77 71 65 77 81 84 90 87 94 94 97 97 97 97 97 90 94 81 65 61 71 58 55 52 52 65 45 52 42 52 48 42 48 48
0 0 0 0 0 3 0 0 6 19 29 39 52 58 65 68 65 61 77 77 74 77 84 90 90 94 97 97 94 90 90 77 71 71 58 48 45 48 39 32 35 35 35 42 39 35 32 32 23
0 0 0 0 0 0 0 0 6 29 32 42 48 48 45 52 52 68 65 74 74 77 84 90 81 94 90 94 94 84 71 68 65 58 55 42 35 29 26 16 16 23 26 26 29 29 26 26 23
0 0 0 0 0 0 0 0 6 19 29 39 45 45 52 55 52 55 61 71 74 77 84 84 87 87 87 84 90 84 77 58 52 39 39 32 23 16 19 23 19 13 10 10 3 13 10 13 6
0 0 0 0 0 0 0 0 3 10 13 29 35 42 48 48 48 48 52 58 68 68 71 77 81 84 84 81 77 74 71 48 29 35 39 26 23 19 10 10 13 3 6 6 3 3 3 3 3
0 0 0 0 0 0 3 0 3 10 19 16 29 35 39 39 39 45 45 45 58 68 68 71 81 77 81 84 81 71 58 35 29 23 29 16 10 6 10 3 13 0 3 3 0 0 0 0 3
0 0 0 0 0 0 3 0 0 6 19 19 26 29 35 42 39 42 52 48 55 68 74 74 74 77 77 81 81 71 58 29 16 19 26 16 10 10 3 3 3 0 0 3 3 3 3 0 0
0 0 0 0 3 0 0 3 3 16 13 19 19 23 29 32 45 45 45 45 61 65 68 61 74 81 81 81 68 58 61 32 16 19 29 16 13 13 3 6 3 0 3 3 0 0 0 0 0
0 0 0 0 0 0 0 0 6 6 19 26 19 19 23 26 35 42 45 52 55 58 71 74 81 81 81 77 55 39 45 23 19 29 23 23 23 16 10 10 3 6 3 3 0 0 0 0 0
0 0 0 0 0 0 0 0 0 3 3 16 16 23 26 29 32 39 42 52 58 65 65 74 81 81 74 65 68 58 35 29 23 29 39 26 13 10 10 10 10 13 3 3 0 0 0 0 0
0 0 0 0 0 0 0 0 0 0 3 0 10 23 19 26 29 32 45 65 65 61 71 68 77 77 71 61 58 61 45 32 26 42 29 23 19 16 13 13 13 13 6 6 6 6 3 3 0
0 0 0 0 0 0 0 0 0 0 0 0 3 16 23 23 29 32 39 58 58 55 55 58 77 74 71 65 65 61 58 58 48 42 39 19 10 13 16 10 13 10 10 10 6 6 6 3 3
0 0 0 0 0 0 0 0 0 0 0 0 0 6 16 19 26 32 35 52 58 52 58 55 74 74 74 61 68 65 68 48 29 39 19 16 13 10 10 10 13 13 6 6 6 6 3 3 0
0 0 0 0 0 0 0 0 0 0 0 0 0 6 10 13 16 23 35 45 55 55 61 65 71 74 74 68 71 71 61 48 35 39 32 16 16 13 10 10 10 10 10 6 3 0 0 0 0
0 0 0 0 0 0 0 0 0 10 0 0 3 10 13 13 13 13 26 32 45 45 61 65 68 74 77 74 71 58 61 52 42 35 29 23 23 13 16 10 10 6 3 3 0 0 0 0 0
0 0 0 0 0 0 0 0 0 6 10 6 6 10 16 19 16 23 35 42 45 58 61 61 74 74 77 71 71 61 52 45 42 39 26 26 19 19 13 13 10 10 3 0 0 0 0 0 0
0 0 0 0 0 0 0 0 3 6 6 3 3 6 13 19 23 29 32 42 52 52 55 61 77 74 81 77 74 71 71 48 39 39 26 23 19 19 13 13 10 6 0 0 0 0 0 0 0

GEFSSGP_con_cape1000_102.txt.gz
Probability
65 58 71 94 94 87 35 0 0 0 0 3 3 10 13 39 48 48 32 52 87 84 97 100 100 100 100 100 100 100 100 100 100 100 100 100 100 100 100 100 100 100 100 97 100 100 100 97 97
42 65 77 84 84 48 0 0 3 10 6 0 3 6 29 61 77 55 45 77 81 84 94 97 100 100 100 100 100 100 100 100 100 100 100 100 100 100 100 100 100 100 97 97 100 100 97 100 100
29 55 48 45 39 3 0 0 3 6 10 0 6 16 45 71 71 74 77 87 77 87 97 100 100 100 100 100 100 100 100 100 100 100 100 100 100 100 100 100 97 100 97 94 94 97 100 100 100
42 45 29 16 0 0 0 0 0 0 6 3 13 32 74 84 81 77 84 90 94 97 100 100 100 100 100 100 100 100 100 100 100 100 100 100 100 100 94 97 100 94 97 94 97 97 100 97 97
23 16 13 6 0 0 0 0 0 0 6 6 23 71 84 97 87 84 84 97 97 97 100 100 100 100 100 100 100 100 100 100 100 100 100 100 100 97 97 94 94 90 90 94 94 90 97 97 97
6 6 3 0 0 0 0 0 0 3 10 6 26 68 94 94 90 87 84 87 94 90 84 97 100 100 100 100 100 100 100 100 100 100 100 100 94 87 87 84 84 84 81 81 84 77 77 81 81
0 3 0 0 0 0 0 0 0 0 6 10 19 65 94 97 94 90 84 87 94 87 87 94 97 100 100 100 100 100 100 100 100 97 97 97 90 84 81 84 74 71 77 77 71 81 77 74 74
0 0 0 0 0 0 0 0 0 3 16 19 16 71 90 97 97 87 90 97 90 87 87 84 87 94 94 100 100 100 100 100 100 100 97 94 94 87 90 90 87 84 84 81 74 71 84 77 81
0 0 0 0 0 0 0 0 0 0 3 10 39 81 87 94 87 81 84 84 94 94 90 84 84 94 94 90 97 100 100 100 100 100 84 94 94 94 94 87 84 81 84 81 77 77 71 74 81
0 0 0 0 0 0 0 0 0 0 3 35 65 77 84 90 87 81 77 84 87 90 94 87 94 97 97 94 100 100 97 100 100 100 100 100 100 97 87 87 81 68 71 74 77 71 74 74 71
0 0 0 0 0 0 0 0 0 0 16 52 71 87 90 90 90 84 84 84 87 84 84 90 97 100 100 100 100 97 97 100 100 100 100 100 100 90 84 81 77 74 68 77 68 65 58 61 61
0 0 0 0 0 0 0 0 0 3 29 42 61 74 84 90 81 81 81 84 81 84 81 87 97 100 100 100 100 100 100 100 100 100 100 100 97 94 81 77 77 74 71 68 61 65 52 52 65
0 0 0 0 0 0 0 0 0 13 29 35 35 74 81 81 84 77 77 81 77 84 84 87 94 100 100 100 100 100 100 97 100 100 97 94 84 77 77 77 71 55 58 48 58 58 58 52 45
0 0 0 0 0 0 0 0 3 13 26 29 39 65 68 74 68 71 74 77 81 81 90 87 90 97 97 100 100 100 94 97 90 90 81 74 71 68 84 74 65 61 61 58 48 48 48 55 52
0 0 0 0 0 0 0 0 3 10 16 23 29 48 71 68 65 71 68 68 74 81 87 90 90 94 94 97 90 94 90 87 87 84 71 68 68 58 61 71 71 68 65 58 52 52 48 39 32
0 0 0 0 0 0 0 0 3 6 13 16 32 52 65 74 68 68 68 65 71 87 87 90 94 90 94 94 90 90 90 90 81 77 71 61 45 45 48 39 48 42 52 52 58 42 42 39 29
0 0 0 0 0 0 0 0 13 6 10 16 35 65 68 68 71 65 61 65 61 74 81 90 87 87 77 87 87 90 90 81 84 71 71 55 35 26 23 32 39 35 39 32 19 39 32 26 23
0 0 0 0 0 0 0 0 6 6 6 10 26 58 61 65 58 58 55 61 58 74 74 81 87 87 81 77 81 77 77 77 71 74 68 45 29 23 26 32 29 29 32 29 29 16 23 19 10
0 0 0 0 0 0 0 3 10 10 6 13 26 48 61 58 61 58 61 61 58 71 77 74 77 81 81 71 74 71 77 74 77 61 55 39 32 23 32 23 35 23 29 19 13 19 6 0 0
0 0 0 0 0 0 0 0 6 10 6 13 23 52 58 52 55 58 58 65 65 68 68 77 74 74 81 74 74 74 74 71 68 61 55 35 32 32 19 26 29 32 35 16 13 3 6 3 0
0 0 0 0 0 0 0 3 16 10 6 16 23 32 39 42 48 45 55 58 61 65 68 71 74 71 71 71 71 68 84 77 65 61 52 39 32 26 29 26 19 23 29 23 13 6 3 3 3
0 0 0 0 0 0 0 0 16 19 10 10 10 32 35 39 45 42 42 58 65 68 61 65 74 74 77 77 71 68 58 61 61 65 52 48 35 32 23 23 26 23 23 23 13 6 6 6 3
0 0 0 0 0 0 0 0 13 19 16 13 19 19 35 35 48 42 48 61 61 61 58 71 81 84 87 87 84 74 65 58 65 58 68 58 48 39 26 23 29 26 26 26 13 16 6 6 6
0 0 0 0 0 0 0 0 0 10 13 6 13 19 26 35 48 48 52 55 61 58 61 65 81 84 90 87 90 87 74 71 61 61 65 61 58 45 35 23 23 23 26 26 19 16 13 13 6
0 0 0 0 3 0 0 0 3 0 6 6 10 16 26 26 39 55 58 55 58 58 58 65 77 87 84 87 87 84 84 74 71 68 61 61 58 48 45 23 39 35 23 23 19 16 16 13 13
0 0 10 0 0 0 0 0 0 0 0 6 6 6 13 32 55 48 61 65 65 61 61 68 81 87 81 81 87 87 84 74 71 74 65 65 61 52 52 45 42 35 26 19 19 19 16 13 13
0 0 0 0 0 0 0 0 0 0 0 0 10 6 13 23 42 48 61 71 65 68 71 68 77 84 81 77 87 87 87 74 74 84 74 55 58 42 52 39 39 39 29 16 23 16 13 16 13
0 0 0 0 6 0 0 0 3 0 6 0 10 10 16 16 26 48 58 65 71 68 77 81 81 81 84 84 81 74 90 97 84 84 58 65 61 39 39 32 39 39 32 23 23 16 16 10 13
0 0 0 0 3 3 0 0 0 10 16 6 3 13 19 16 23 32 61 58 61 68 77 81 87 84 84 84 90 87 87 84 84 74 74 61 58 48 39 32 29 29 32 26 23 13 16 13 10
0 0 0 13 26 23 3 0 0 3 3 3 13 19 19 23 26 42 52 55 55 68 74 77 87 87 84 90 90 84 94 87 81 71 77 74 65 52 42 35 32 26 19 29 23 13 10 6 6

GEFSSGP_con_cape1000_108.txt.gz
Probability
74 68 39 35 35 16 0 0 0 6 0 10 23 26 23 23 13 10 10 39 65 94 100 100 100 100 100 100 100 100 100 100 100 100 100 100 100 100 100 100 100 100 100 100 100 100 97 97 100
39 32 19 29 23 0 0 0 0 3 6 29 35 42 35 39 45 42 39 61 74 97 97 100 100 100 100 100 100 100 100 100 100 100 100 100 100 100 100 100 100 100 100 100 100 100 100 100 100
10 19 23 23 10 0 0 0 0 0 13 26 45 48 45 42 55 58 61 71 87 97 100 100 100 100 100 100 100 100 100 100 100 100 100 100 100 100 100 100 100 100 100 100 100 100 100 100 97
10 10 6 6 0 0 0 0 0 10 19 39 48 45 52 48 61 65 68 71 90 100 100 100 100 100 100 100 100 100 100 100 100 100 100 100 100 100 100 100 100 97 100 94 90 94 94 94 94
6 6 3 3 0 0 0 0 0 3 19 39 48 52 42 74 77 71 65 68 90 100 100 100 100 100 100 100 100 100 100 100 100 100 100 100 100 100 97 97 94 97 90 94 90 87 90 90 94
3 3 0 0 0 0 0 0 0 10 42 48 55 55 55 65 71 68 77 81 97 97 97 100 100 100 100 100 100 100 100 100 100 100 100 100 100 100 94 90 87 81 81 74 81 74 74 74 81
0 3 0 0 0 0 0 0 6 16 32 48 52 58 61 61 71 68 84 81 87 97 94 97 100 100 100 100 100 100 100 100 100 100 100 100 100 94 90 84 81 77 77 77 68 71 71 68 74
0 0 0 0 0 0 0 3 13 16 39 52 71 74 65 65 65 68 77 74 84 90 94 97 97 100 100 100 100 100 100 100 100 100 100 97 94 87 87 84 81 77 71 68 68 65 68 68 77
0 0 0 0 0 0 0 0 10 32 42 52 65 68 65 65 68 61 65 68 74 87 87 90 94 97 97 97 100 100 100 100 100 100 100 90 77 68 77 81 81 81 81 77 74 74 77 68 71
0 0 0 0 0 0 0 0 10 39 48 65 58 68 68 58 61 61 68 65 71 84 84 87 87 94 94 94 94 97 97 97 94 87 87 65 42 39 71 81 77 77 74 74 81 84 71 55 23
0 0 0 0 0 0 0 0 6 32 39 55 68 58 65 52 52 61 65 61 65 61 65 71 81 81 84 87 94 94 90 90 77 68 58 45 19 19 32 52 65 61 61 35 52 45 35 26 26
0 0 0 0 0 0 0 0 10 26 35 58 55 65 58 55 48 52 48 52 52 52 55 58 58 58 58 84 84 74 81 74 77 55 42 29 16 10 3 16 29 23 10 13 19 16 13 10 10
0 0 0 0 0 0 3 6 16 39 42 61 58 61 52 52 35 39 52 52 45 39 45 52 48 52 45 42 65 71 58 65 58 48 32 10 3 0 0 6 10 10 3 10 10 3 3 0 3
0 0 0 0 0 0 3 3 6 39 48 39 39 48 48 42 26 35 39 42 45 39 45 52 55 48 45 48 45 52 58 48 48 23 23 3 3 0 0 0 3 3 3 3 3 0 0 0 3
0 0 0 0 0 0 0 3 3 29 39 39 35 45 45 35 39 45 42 45 48 42 48 48 52 52 52 45 42 48 55 42 19 10 3 3 3 0 0 0 0 0 0 0 0 0 0 0 0
0 0 0 0 0 0 0 0 3 23 32 29 39 42 45 29 29 29 42 45 42 39 45 42 52 48 48 45 42 42 29 23 16 10 3 0 0 0 0 0 0 0 0 0 0 0 0 0 0
0 0 0 0 0 0 0 0 3 13 29 32 39 39 32 35 35 39 42 42 42 42 39 42 42 45 45 32 26 19 6 16 6 6 3 0 0 3 0 0 0 0 0 0 0 0 0 0 0
0 0 0 0 0 0 0 0 3 10 19 23 35 29 32 32 32 35 32 35 39 35 39 42 42 42 32 26 16 16 10 6 6 3 0 0 3 3 0 0 0 0 0 0 0 0 0 0 0
0 0 0 0 0 0 0 0 0 13 16 26 26 23 23 23 26 23 32 39 35 29 35 42 42 32 26 26 19 10 13 3 3 6 6 0 3 3 0 0 0 0 0 0 0 0 0 0 0
0 0 0 0 0 0 0 0 0 6 3 16 16 19 26 26 23 23 26 29 29 26 32 42 39 32 26 26 13 3 6 3 6 6 6 6 6 6 6 0 0 0 0 0 0 0 0 0 0
0 0 0 0 0 0 0 0 0 3 3 6 13 19 26 19 26 23 26 26 29 29 29 32 29 29 23 26 16 3 3 3 0 3 6 6 6 6 3 0 0 0 0 0 0 0 0 0 0
0 0 0 0 0 0 0 0 0 3 3 3 10 16 19 19 23 19 26 32 32 32 29 35 29 23 23 19 13 6 3 3 0 3 3 3 6 6 3 0 0 0 0 0 0 0 0 0 0
0 0 0 0 0 0 0 0 0 0 0 0 0 10 19 19 23 23 19 35 39 29 32 32 29 23 23 23 10 6 3 3 0 3 3 3 3 6 3 0 0 0 0 0 0 0 0 0 0
0 0 0 0 0 0 0 0 0 0 0 0 0 6 10 26 23 23 26 29 39 32 32 32 29 23 26 16 6 6 6 3 0 3 3 3 0 3 0 0 0 0 0 0 0 0 0 0 0
0 0 0 0 0 0 0 0 0 0 0 0 0 0 13 23 26 26 29 29 32 39 39 29 23 26 23 13 6 6 6 3 3 3 3 0 0 3 3 3 0 0 0 0 0 0 0 0 0
0 0 0 0 0 0 0 0 0 0 0 0 0 3 13 13 23 29 29 23 32 39 39 29 26 19 16 13 10 6 6 6 6 3 3 3 3 3 3 3 3 3 0 0 0 0 0 0 0
0 0 0 0 0 0 0 0 0 0 0 0 3 3 16 10 19 23 23 26 32 32 35 29 23 19 16 16 13 10 10 6 6 3 3 3 3 3 3 3 3 3 3 3 0 0 0 0 0
0 0 0 0 0 0 0 0 0 0 0 0 0 3 3 10 16 26 26 26 32 32 29 35 29 16 16 16 13 13 13 10 6 3 3 3 3 3 3 3 3 3 3 3 0 0 0 0 0
0 0 0 0 0 0 0 0 0 0 0 0 0 0 0 3 13 19 23 26 26 26 32 32 29 16 19 19 13 13 13 10 6 6 6 3 3 3 3 3 3 3 3 3 3 3 0 0 0
0 0 0 0 0 0 0 0 0 0 0 0 0 0 0 3 10 19 23 19 26 23 26 29 23 23 23 26 16 13 13 10 6 6 6 3 3 3 3 3 3 3 3 3 3 3 3 0 0

GEFSSGP_con_cape1000_114.txt.gz
Probability
61 68 42 19 10 0 0 0 0 3 3 3 6 6 6 0 0 0 0 19 45 81 100 100 100 100 100 100 100 100 100 100 100 100 100 100 100 100 100 100 100 100 100 100 100 100 100 94 97
42 42 16 13 3 0 0 0 0 0 6 10 23 26 23 32 32 13 26 42 68 81 100 97 100 100 100 100 100 100 100 100 100 100 100 100 100 100 100 100 100 100 100 100 100 100 94 94 97
32 13 13 6 3 0 0 0 0 3 19 35 29 23 32 48 48 42 35 61 81 87 100 97 100 100 100 100 100 100 100 100 100 100 100 100 100 100 100 100 100 100 100 100 97 94 90 90 94
6 6 3 6 0 0 0 0 3 13 26 32 29 29 42 55 55 39 55 74 87 97 97 100 100 100 100 100 100 100 100 100 100 100 100 100 100 100 97 97 100 100 97 97 94 87 87 90 94
0 3 3 0 0 0 0 3 10 10 35 45 35 42 42 65 65 55 68 77 87 94 94 100 100 100 100 100 100 100 100 100 100 100 100 100 100 100 94 97 97 90 90 94 90 90 90 90 90
0 3 3 0 0 0 0 3 19 26 42 52 48 42 55 65 71 68 74 81 90 90 94 97 97 100 100 100 100 100 100 100 100 100 100 100 100 94 90 87 84 84 81 77 77 77 74 74 81
0 3 0 0 0 0 3 6 16 32 42 52 55 48 58 71 74 77 74 81 90 90 97 97 97 97 100 100 100 100 100 100 100 100 100 100 97 90 90 81 81 77 74 77 77 68 65 68 71
0 0 0 0 0 0 0 13 19 29 45 61 65 52 55 74 68 71 74 77 84 90 90 94 97 97 97 100 100 100 100 100 100 100 100 94 90 87 87 84 84 68 68 68 65 61 58 68 74
0 0 0 0 0 0 3 10 35 48 65 71 58 55 61 74 71 71 77 81 81 81 87 94 90 94 94 94 94 97 100 100 100 100 100 94 74 68 74 74 71 68 68 58 71 71 68 68 68
0 0 0 0 0 0 0 6 35 39 48 52 61 81 84 71 77 74 81 77 81 81 84 87 87 87 87 90 94 94 97 97 94 87 87 58 55 61 74 74 74 71 68 65 65 71 61 32 16
0 0 0 0 0 0 0 3 32 35 48 52 65 74 84 71 74 77 74 68 74 81 84 87 87 81 84 87 94 94 90 84 65 61 52 29 32 35 35 42 61 61 61 35 42 39 16 16 10
0 0 0 0 0 0 0 3 23 39 39 52 58 74 81 74 71 71 68 65 65 71 77 77 81 77 74 84 94 74 74 71 52 48 39 23 19 16 16 16 23 26 16 13 16 10 10 10 13
0 0 0 0 0 0 3 6 23 35 35 45 58 77 77 71 71 61 48 48 55 61 68 68 65 71 65 65 74 74 68 65 52 45 32 10 10 6 6 10 10 3 0 3 6 6 6 3 6
0 0 0 0 0 0 6 13 23 29 42 52 58 61 61 55 55 45 39 39 42 58 58 58 58 55 48 52 48 48 58 52 35 35 26 10 3 0 3 3 3 0 0 0 0 0 0 0 0
0 0 0 0 0 3 3 3 19 23 39 55 61 52 48 55 42 45 42 32 23 32 39 42 42 35 39 39 39 45 45 35 32 16 13 6 0 0 0 0 3 0 0 0 0 0 0 0 0
0 0 0 0 0 0 0 0 13 26 39 48 52 42 39 32 29 26 39 35 23 23 32 35 35 32 32 29 26 32 29 19 10 6 10 10 3 0 0 0 3 0 0 0 0 0 0 0 0
0 0 0 0 0 0 0 0 10 23 26 29 32 35 26 19 19 23 29 29 26 26 26 29 29 26 29 23 23 26 16 6 3 3 3 6 3 0 0 0 0 0 0 0 0 0 0 0 0
0 0 0 0 0 0 0 0 6 13 26 26 26 32 26 16 16 23 23 26 29 29 19 26 23 29 29 16 10 10 6 0 0 3 3 3 0 0 0 0 0 0 0 0 0 0 0 0 0
0 0 0 0 0 0 0 0 10 13 10 16 23 23 26 16 16 16 16 23 32 26 23 29 29 26 19 19 13 10 3 0 0 3 3 0 0 0 0 0 0 0 0 0 0 0 0 0 0
0 0 0 0 0 0 0 0 0 10 6 6 6 10 10 10 10 19 16 23 29 29 29 26 26 23 23 23 13 3 3 0 0 3 3 0 0 0 0 0 0 0 0 0 0 0 0 0 0
0 0 0 0 0 0 0 0 0 6 6 6 6 6 10 3 10 10 19 23 29 29 29 29 26 23 23 10 3 3 0 0 3 3 3 0 0 0 0 0 0 0 0 0 0 0 0 0 0
0 0 0 0 0 0 0 0 0 0 0 3 6 6 6 6 6 13 16 16 26 29 26 26 23 19 13 6 3 3 3 3 3 0 3 3 3 3 3 0 0 0 0 0 0 0 0 0 0
0 0 0 0 0 0 0 0 0 0 3 0 3 3 3 3 3 13 16 16 19 19 26 23 23 16 6 3 3 3 3 3 0 0 0 3 3 3 3 3 0 0 0 0 0 0 0 0 0
0 0 0 0 0 0 0 0 0 0 0 0 0 3 3 3 6 10 13 16 19 19 26 26 19 13 6 6 3 3 3 3 0 0 0 0 0 0 0 3 3 0 0 0 0 0 0 0 0
0 0 0 0 0 0 0 0 0 0 0 0 0 3 3 0 10 6 10 13 16 16 23 26 16 10 6 6 6 6 3 3 3 3 3 3 0 0 0 0 3 0 0 0 0 0 0 0 0
0 0 0 0 0 0 0 0 0 0 0 0 0 0 3 0 6 6 10 10 10 16 19 23 19 13 6 6 6 6 3 3 3 3 3 3 3 3 0 0 0 0 0 0 0 0 0 0 0
0 0 0 0 0 0 0 0 0 0 0 0 0 0 3 3 10 10 10 13 13 23 26 26 23 13 10 10 10 6 6 3 3 3 3 3 3 3 0 0 0 0 0 0 0 0 0 0 0
0 0 0 0 0 0 0 0 0 0 0 0 0 0 6 3 6 10 10 10 16 19 26 23 19 13 10 10 13 10 6 6 3 3 3 3 3 3 3 0 3 3 3 3 0 0 0 0 0
0 0 0 0 0 0 0 0 0 0 0 0 0 0 3 3 3 3 6 6 10 16 23 19 16 10 10 10 10 10 10 6 6 3 3 3 3 3 3 3 3 3 3 3 3 3 3 0 0
0 0 0 0 0 0 0 0 0 0 0 0 0 0 3 3 3 6 10 13 13 13 16 16 16 13 13 13 10 10 10 6 6 6 6 3 3 3 3 3 3 3 3 3 0 3 3 0 0

GEFSSGP_con_cape1000_120.txt.gz
Probability
55 52 61 81 58 10 0 0 3 3 3 10 3 0 3 0 0 32 48 13 26 68 97 100 100 100 100 100 100 100 100 100 100 100 100 100 100 100 100 100 100 97 97 100 100 94 97 97 97
32 42 77 74 32 0 0 0 0 3 10 23 16 3 23 26 61 84 48 42 52 81 94 100 100 100 100 100 100 100 100 100 100 100 100 100 100 100 100 100 100 100 100 100 100 94 97 97 97
29 42 52 26 6 0 0 3 0 3 13 26 29 23 26 55 74 90 65 58 68 87 94 100 100 100 100 100 100 100 100 100 100 100 100 100 100 100 100 100 100 100 100 100 94 87 90 94 94
23 42 35 23 0 0 0 0 3 6 16 29 32 32 65 90 90 94 71 65 74 94 97 100 100 100 100 100 100 100 100 100 100 100 100 100 100 100 97 97 97 100 100 94 87 90 90 90 97
13 13 13 0 0 0 0 0 3 6 13 32 29 26 84 100 97 94 71 74 87 90 100 100 100 100 100 100 100 100 100 100 100 100 100 100 100 100 97 97 94 90 90 87 87 84 84 84 81
3 10 0 0 0 0 0 0 6 6 19 35 39 48 94 97 97 97 84 84 81 90 97 100 100 100 100 100 100 100 100 100 100 100 100 100 97 97 94 90 81 87 84 84 81 74 81 77 77
3 3 0 0 0 0 0 3 6 10 19 39 55 48 94 94 97 97 90 84 84 87 94 94 94 94 100 97 100 100 100 100 100 100 100 100 94 87 90 84 77 77 74 68 65 65 74 71 71
6 3 0 0 0 0 6 3 13 13 32 55 65 48 81 97 97 97 97 90 84 84 90 94 90 94 97 94 97 100 100 100 100 100 100 97 90 84 84 84 81 74 68 68 65 71 65 68 77
3 3 0 0 0 0 3 10 16 35 42 65 77 81 100 97 97 97 97 94 90 84 87 90 87 97 100 94 94 97 97 97 94 100 100 90 77 71 74 74 81 81 71 68 55 58 65 65 71
3 3 0 0 0 0 3 13 19 39 48 71 77 94 97 97 97 97 97 97 94 90 87 87 87 90 90 94 94 94 94 97 97 97 94 84 81 71 65 77 71 65 58 58 58 52 42 35 52
3 3 0 0 0 0 0 13 13 19 19 23 61 94 97 97 97 97 97 94 94 90 87 87 90 90 90 97 94 94 94 97 97 97 94 94 84 77 71 74 77 77 58 55 45 32 23 26 45
0 0 0 0 0 0 0 3 19 26 23 42 52 77 94 94 94 94 94 94 94 90 84 84 87 87 90 94 87 90 97 97 97 97 90 90 87 68 71 81 77 71 61 61 39 35 23 23 29
0 0 0 0 0 0 0 6 26 26 48 58 68 77 87 90 90 90 90 94 94 90 87 84 84 84 90 94 90 87 90 97 97 97 84 77 77 71 71 77 84 58 42 52 48 29 35 26 29
0 0 0 0 0 0 0 3 29 26 42 48 68 81 87 90 90 90 90 90 87 87 81 84 84 84 84 90 94 94 94 97 90 90 81 77 74 68 71 71 68 55 39 32 35 29 42 26 26
0 0 0 0 0 0 0 3 23 29 52 58 68 81 87 84 84 81 81 84 84 84 77 77 81 81 81 87 87 90 90 94 87 84 84 77 77 77 68 61 55 48 45 42 39 29 32 32 16
0 0 0 0 0 0 0 0 19 35 55 58 68 68 77 77 77 74 74 74 77 77 71 71 61 74 81 84 84 94 94 94 94 90 81 71 68 65 68 42 32 42 35 35 35 26 23 13 13
0 0 0 0 0 0 0 3 19 45 52 55 65 74 74 77 77 71 71 68 71 68 68 68 61 61 74 74 87 87 90 87 90 87 68 65 61 55 45 39 39 32 16 16 13 19 16 23 16
0 0 0 0 0 0 0 3 16 45 45 48 58 74 71 74 74 71 68 65 65 61 61 55 58 61 58 74 81 87 87 87 84 77 68 61 52 45 42 32 32 23 13 19 23 29 29 26 23
0 0 0 0 0 0 0 6 19 42 45 52 55 65 65 61 61 68 61 61 55 52 58 55 55 55 58 68 71 84 87 84 77 68 61 52 48 45 42 23 35 29 16 19 19 16 13 19 10
0 0 0 0 0 0 0 3 19 29 52 55 45 55 61 61 55 55 58 58 55 52 52 55 55 55 55 65 77 81 84 74 65 52 58 48 42 39 23 29 29 23 35 26 19 19 16 6 6
0 0 0 0 0 0 0 3 32 42 35 45 39 45 42 42 58 58 55 55 48 48 48 48 52 58 58 68 68 74 77 58 48 48 58 45 35 29 26 29 16 19 19 19 26 23 13 6 3
0 0 0 0 0 0 0 0 13 26 23 32 35 39 29 35 32 45 52 45 39 42 39 52 58 61 58 55 61 68 65 55 48 52 45 45 32 29 23 19 19 19 16 23 23 19 16 10 3
0 0 0 0 0 0 0 0 0 19 13 19 29 32 19 29 32 39 48 39 35 32 32 39 48 61 61 55 58 68 58 52 45 39 55 48 32 26 19 19 23 19 13 19 16 19 19 0 0
0 0 0 0 0 0 0 0 0 3 6 13 19 23 19 19 23 35 39 35 32 29 29 32 39 61 58 55 58 65 61 55 32 39 42 35 32 26 19 19 23 19 13 19 13 19 16 10 6
0 0 0 0 0 0 0 0 0 3 0 6 10 19 29 23 32 39 39 39 32 35 35 35 42 45 52 48 45 52 55 58 48 29 39 29 23 26 26 16 19 16 19 13 16 19 13 10 10
0 0 0 0 0 0 0 0 0 0 0 3 6 23 26 29 32 35 39 35 35 39 35 39 42 42 45 48 58 55 58 52 29 42 32 23 19 19 19 19 16 19 19 16 19 16 16 16 16
0 0 0 0 0 0 0 0 6 0 6 10 13 19 26 29 39 35 35 35 39 39 39 32 42 48 48 48 61 61 58 55 42 48 52 26 35 19 19 16 23 23 23 23 26 23 19 19 13
0 0 0 0 0 0 0 0 0 13 19 26 26 26 26 32 32 35 35 35 42 42 45 39 45 48 48 58 55 45 58 55 55 52 35 32 35 26 23 16 16 26 29 32 35 23 19 16 23
0 0 0 0 0 0 0 0 0 13 23 26 26 23 29 32 39 39 35 32 39 48 48 48 52 55 55 65 65 58 61 61 52 52 35 42 45 45 39 32 23 23 26 35 42 23 23 16 16
0 0 0 0 0 0 0 0 3 13 10 16 23 32 39 39 42 48 45 39 45 42 45 48 52 61 61 68 71 71 68 65 45 42 45 48 58 58 58 48 45 26 23 35 32 32 23 23 23

GEFSSGP_con_cape1000_126.txt.gz
Probability
35 35 48 81 84 71 26 0 3 3 0 0 0 3 13 23 26 32 29 45 87 77 90 100 100 100 100 100 100 100 100 100 100 100 100 100 100 97 97 100 100 100 100 97 97 97 97 97 100
16 42 48 65 68 32 0 3 3 3 3 3 0 3 16 32 42 23 26 81 87 77 90 97 100 100 100 100 100 100 100 100 100 100 100 100 100 100 100 100 100 100 100 97 97 97 97 100 100
16 32 23 42 45 10 0 3 0 0 0 0 0 3 42 45 45 55 71 81 87 77 90 100 100 100 100 100 100 100 100 100 100 100 100 100 100 100 100 100 100 100 97 97 97 97 97 97 94
35 23 23 26 16 3 0 3 3 0 0 0 3 26 48 45 55 74 68 84 90 87 94 100 100 100 100 100 100 100 100 100 100 100 100 100 100 100 100 97 97 97 97 94 90 90 94 94 97
16 13 16 3 0 0 0 0 3 0 0 0 13 52 71 65 71 74 84 90 97 90 94 97 100 100 100 100 100 100 100 100 100 100 100 100 100 97 94 94 87 87 87 90 90 90 90 87 84
6 3 3 0 3 0 0 3 3 3 0 3 13 58 81 81 84 84 84 87 94 97 94 100 100 100 100 100 100 100 100 100 100 100 100 100 100 97 90 87 84 87 87 87 84 84 81 81 81
6 6 10 6 3 0 0 3 3 3 0 0 16 61 81 84 90 87 90 90 94 94 90 100 100 100 100 100 100 100 100 100 100 100 100 100 97 90 87 84 84 84 84 77 77 77 74 71 71
3 6 3 3 3 0 0 0 3 3 0 0 16 65 87 94 90 90 94 90 97 100 97 90 97 100 100 100 100 100 100 100 100 100 100 100 94 90 87 90 87 77 74 74 68 68 61 68 58
0 0 3 3 0 0 0 3 3 3 0 13 48 74 90 90 94 94 94 94 97 100 97 94 94 100 100 100 100 100 100 100 100 100 100 97 87 81 84 77 77 77 71 65 65 65 65 74 65
0 3 3 3 0 0 0 3 3 3 10 23 61 87 84 90 100 97 97 97 97 100 94 90 100 100 100 90 97 97 94 94 97 97 97 90 90 87 77 84 84 81 71 65 61 68 65 55 48
0 3 3 3 0 0 0 0 6 6 13 23 55 90 87 94 100 97 97 97 97 100 94 87 94 97 100 97 90 94 94 90 90 94 94 90 87 84 74 74 77 81 68 55 52 48 45 55 58
0 3 3 3 0 0 0 0 10 13 13 26 48 71 81 94 94 100 100 97 97 97 94 87 84 87 87 84 87 94 94 90 87 87 87 90 90 84 84 87 74 77 81 81 65 74 58 55 48
0 0 0 3 0 0 0 0 3 13 16 23 52 68 84 87 90 90 97 97 100 97 94 87 81 84 87 84 81 84 84 81 87 87 84 84 90 87 77 84 84 77 74 71 68 65 58 52 48
0 0 0 0 0 0 0 0 3 6 10 19 48 71 81 90 90 97 94 94 97 94 90 84 84 81 77 81 81 87 87 84 90 84 84 87 87 84 84 84 81 74 71 71 68 65 61 61 68
0 0 0 0 0 0 0 0 0 10 10 16 52 71 84 97 90 90 90 90 94 90 87 84 81 81 77 77 81 87 84 84 84 90 90 90 90 77 77 77 84 71 68 68 68 65 61 71 58
0 0 0 0 0 0 0 0 3 16 10 26 55 68 87 97 90 87 87 81 81 81 84 81 74 81 77 74 77 84 84 87 87 84 90 90 90 81 84 81 77 77 68 71 77 74 74 61 61
0 0 0 0 0 0 0 0 13 16 10 35 55 58 84 90 94 87 81 81 81 81 77 77 68 68 71 71 71 71 81 84 87 84 84 84 81 71 77 81 77 68 58 61 39 68 65 55 52
0 0 0 0 0 0 0 0 13 19 16 26 42 58 87 87 90 84 81 77 81 77 77 71 68 65 65 68 65 65 77 81 84 84 81 77 68 68 74 71 71 48 61 68 61 61 58 55 58
0 0 0 0 0 0 0 0 10 19 19 23 42 68 84 84 84 81 77 77 74 71 74 74 68 61 55 58 58 61 71 77 77 84 77 71 68 68 68 68 65 55 61 68 52 48 45 45 52
0 0 0 0 0 0 0 0 10 19 26 35 39 58 71 81 81 81 81 74 74 71 71 71 68 61 61 61 58 61 71 77 77 77 74 74 71 68 45 61 61 58 65 55 52 48 48 45 29
0 0 0 0 0 0 0 3 6 19 23 35 32 42 55 65 77 77 74 74 71 71 65 55 61 52 58 52 48 58 71 74 74 81 74 71 65 61 61 58 45 61 58 61 52 48 29 42 26
0 0 0 0 0 0 0 0 13 19 29 26 26 29 52 58 68 68 74 71 65 68 58 52 58 52 52 55 45 55 58 65 74 84 81 74 65 52 48 42 35 45 52 68 48 35 42 39 35
0 0 0 0 0 0 0 0 13 13 19 16 23 16 32 58 58 65 65 68 61 52 52 52 48 48 52 52 55 61 65 74 74 81 77 71 65 52 45 42 35 32 45 52 42 52 32 42 39
0 0 0 0 0 0 0 0 0 3 16 13 23 26 48 52 52 77 65 52 55 52 52 48 52 52 58 58 55 61 61 74 74 77 68 68 65 48 42 39 39 35 42 39 35 35 26 42 48
0 0 0 0 3 0 0 0 0 3 6 19 23 26 35 42 48 61 58 58 52 48 48 48 52 58 55 55 61 65 71 74 77 77 58 48 48 58 58 32 39 35 35 35 32 39 39 35 19
0 0 0 0 0 0 0 0 0 0 6 10 10 16 23 32 45 52 65 65 58 48 48 45 52 55 55 58 58 61 74 68 65 71 55 58 45 45 48 48 52 32 26 19 39 39 35 35 29
0 0 0 0 0 0 0 0 6 3 6 6 10 16 23 32 39 45 58 61 55 52 55 55 58 61 61 58 65 61 68 68 65 74 71 45 61 39 42 52 48 35 42 32 42 42 39 39 32
0 0 0 0 6 0 0 0 3 6 13 10 13 16 26 35 35 42 45 58 55 52 58 55 58 61 65 61 55 42 61 61 65 68 65 61 55 55 48 45 42 35 35 35 35 42 32 26 39
0 0 0 0 0 0 0 0 0 10 16 13 16 23 35 32 32 42 42 52 58 65 58 65 65 71 61 61 61 58 55 61 61 71 65 68 68 68 55 55 52 55 45 48 58 45 48 39 39
0 0 0 0 6 10 3 3 3 3 13 13 23 32 39 42 45 52 52 55 58 61 55 61 58 58 61 61 61 61 65 61 68 65 68 68 65 68 61 58 55 55 45 65 65 48 39 42 42

GEFSSGP_con_cape1000_132.txt.gz
Probability
61 39 19 23 16 13 3 3 0 0 0 3 10 16 10 0 0 0 10 39 65 97 100 100 100 100 100 100 100 100 100 100 100 100 100 100 100 100 100 100 100 100 100 97 97 100 100 100 97
16 10 10 16 6 0 0 0 0 3 6 10 19 23 26 32 42 39 39 61 84 97 100 100 100 100 100 100 100 100 100 100 100 100 100 100 100 100 100 100 100 100 100 97 100 100 100 100 100
0 0 3 0 0 0 0 0 0 3 3 19 26 35 48 35 61 58 48 68 94 97 100 100 100 100 100 100 100 100 100 100 100 100 100 100 100 100 100 100 100 97 97 97 97 100 100 100 100
6 3 0 0 0 0 0 0 0 0 3 26 35 32 45 52 74 61 52 74 87 97 100 100 100 100 100 100 100 100 100 100 100 100 100 100 100 100 97 97 97 97 97 97 90 94 97 100 100
3 0 0 0 0 0 0 0 0 3 13 26 39 52 55 71 71 55 58 81 87 94 100 100 100 100 100 100 100 100 100 100 100 100 100 100 97 97 97 97 97 97 90 90 90 90 94 97 94
3 0 0 0 0 0 0 0 3 6 39 55 58 58 65 71 68 55 65 84 87 94 100 100 100 100 100 100 100 100 100 100 100 100 100 100 94 94 94 90 90 90 90 90 87 87 87 81 87
3 0 0 0 0 0 0 0 3 16 35 68 68 58 58 58 68 71 77 84 94 97 100 100 100 100 100 100 100 100 100 100 100 100 100 100 94 90 87 84 87 87 84 84 81 77 71 68 71
3 0 0 0 0 0 0 3 10 23 39 58 71 68 65 68 65 71 84 87 97 97 100 100 100 100 100 100 100 100 100 100 100 100 100 97 94 90 90 90 87 87 84 81 81 74 58 61 58
0 0 0 0 0 0 0 6 13 26 42 55 68 71 71 81 74 74 94 90 94 94 94 94 97 97 97 97 100 100 100 100 100 100 100 97 87 77 87 87 87 81 81 81 77 65 55 58 42
0 0 0 0 0 0 6 6 13 39 39 52 68 71 65 81 77 74 90 94 87 94 94 90 90 97 97 97 100 100 100 97 94 90 87 58 39 45 71 84 84 84 84 84 77 71 55 32 10
0 0 0 0 0 0 0 6 6 16 29 42 68 68 61 71 74 74 84 84 84 84 87 87 90 90 87 81 87 84 81 77 61 65 52 29 23 32 52 58 68 61 55 32 45 45 19 10 10
0 0 0 0 0 0 3 6 3 10 35 48 68 71 65 65 65 74 84 77 74 71 74 81 84 84 77 74 81 81 71 65 48 48 32 26 13 23 19 29 29 23 10 10 10 6 6 6 10
0 0 0 0 0 0 0 3 3 10 39 52 65 71 65 55 65 71 71 71 68 65 68 77 71 68 58 58 58 71 55 61 29 39 32 16 13 10 13 16 16 16 6 3 3 3 3 3 6
0 0 0 0 0 0 0 0 6 10 19 48 52 52 65 58 58 71 68 68 68 65 65 65 68 61 48 45 42 52 45 32 26 23 26 23 13 13 10 10 3 6 0 0 0 3 0 0 0
0 0 0 0 0 0 0 0 6 10 19 45 52 48 48 55 61 65 65 61 65 65 65 58 65 55 39 35 39 42 39 35 26 29 19 16 13 13 13 3 3 3 3 3 3 3 0 0 0
0 0 0 0 0 0 0 0 6 6 23 35 45 42 45 55 68 65 65 58 65 58 61 55 71 48 45 39 39 45 39 29 29 26 23 16 16 10 13 10 3 3 3 0 0 0 0 0 0
0 0 0 0 0 0 0 0 6 10 26 42 45 52 55 55 68 68 65 58 65 58 52 52 45 45 48 42 39 42 32 29 23 16 16 19 13 10 10 6 6 3 0 0 0 0 0 0 0
0 0 0 0 0 0 0 3 3 13 26 32 45 58 61 68 61 68 68 55 65 61 52 45 42 42 32 32 32 29 29 32 23 13 13 13 16 13 13 3 3 3 0 0 0 0 0 0 0
0 0 0 0 0 0 0 3 6 10 13 32 45 58 61 71 65 65 65 61 68 61 45 45 39 42 35 35 32 26 23 19 16 13 16 10 10 10 10 13 6 3 0 0 0 0 0 0 0
0 0 0 0 0 0 0 3 3 6 10 26 39 55 68 71 68 71 68 65 68 65 42 42 39 35 39 35 32 19 16 19 16 19 13 13 13 10 10 3 6 6 0 0 0 0 0 0 0
0 0 0 0 0 0 3 0 10 6 10 16 29 48 58 68 71 68 71 68 65 48 45 42 29 32 26 26 23 13 10 0 0 13 10 13 16 10 13 3 3 3 0 0 0 0 0 0 0
0 0 0 0 0 0 0 0 3 3 10 16 19 32 45 55 65 61 68 58 48 42 42 32 32 26 26 26 23 16 10 3 0 6 10 10 16 16 16 10 3 3 3 3 0 0 0 0 0
0 0 0 0 0 0 0 0 3 6 10 10 16 23 32 35 55 65 65 61 52 39 32 23 29 29 26 26 19 16 6 0 0 0 6 10 10 16 16 10 10 3 0 0 0 0 0 0 0
0 0 0 0 0 0 0 0 0 3 3 6 10 16 16 32 42 55 55 45 39 32 29 19 23 29 26 26 19 16 6 0 0 0 3 6 6 6 13 10 6 3 0 3 3 0 0 0 0
0 0 0 0 0 0 0 0 0 3 3 6 13 6 13 19 29 45 42 42 45 39 39 29 23 19 23 26 23 16 6 0 0 0 0 6 10 13 10 10 6 6 3 3 3 3 3 0 0
0 0 0 0 0 0 0 0 0 0 6 6 3 3 13 23 29 42 39 42 42 35 35 32 26 19 16 19 16 16 13 3 6 3 3 6 13 13 10 10 10 6 3 3 3 3 3 3 0
0 0 0 0 0 0 0 0 3 3 6 6 6 3 6 16 26 32 39 39 42 39 32 32 23 23 19 16 16 19 13 13 10 10 3 6 6 6 3 6 6 6 6 6 3 3 3 3 3
0 0 0 0 0 0 0 0 3 6 6 6 6 13 6 13 13 23 23 32 32 35 29 23 16 23 16 16 19 19 19 16 10 10 13 13 13 6 6 6 6 6 6 6 3 6 3 3 3
0 0 0 0 0 0 0 0 0 6 6 6 13 13 19 16 16 23 19 26 26 26 23 23 19 23 19 23 16 16 13 13 10 10 13 13 13 6 6 6 6 6 6 6 6 10 3 3 3
0 0 0 0 0 0 0 0 6 10 10 10 10 13 10 23 19 23 23 19 19 19 26 26 19 23 23 19 19 19 10 13 10 10 10 10 3 6 6 6 6 6 6 6 10 6 6 3 3

GEFSSGP_con_cape1000_138.txt.gz
Probability
32 45 35 10 3 3 0 3 6 3 3 0 0 0 0 0 0 0 0 26 45 90 97 100 100 100 100 100 100 100 100 100 100 100 100 100 100 100 100 97 100 100 100 100 100 100 97 100 97
32 32 6 3 0 0 0 0 0 3 3 6 10 10 19 42 39 23 32 55 81 97 97 94 100 100 100 100 100 100 100 100 100 100 100 100 100 100 100 100 97 97 97 100 100 100 100 100 97
16 0 0 0 0 0 0 0 3 6 10 23 23 23 32 52 48 42 45 68 87 100 97 100 100 100 100 100 100 100 100 100 100 100 100 100 100 100 100 97 97 97 100 100 100 100 100 100 97
3 0 0 0 0 0 0 0 0 3 16 26 26 35 42 61 58 48 71 87 90 100 100 100 100 100 100 100 100 100 100 100 100 100 100 100 100 100 97 97 97 97 100 100 100 100 100 97 94
3 0 0 0 0 0 0 0 0 3 23 29 29 52 55 74 74 74 87 87 97 100 100 100 100 100 100 100 100 100 100 100 100 100 100 100 100 97 97 94 94 94 94 94 94 94 97 100 100
0 0 0 0 0 0 0 0 0 10 32 48 58 55 52 77 81 84 87 84 97 100 100 100 100 100 100 100 100 100 100 100 100 100 100 100 97 94 90 94 90 90 90 90 90 94 94 97 100
0 0 0 0 0 0 0 3 3 19 32 58 61 58 65 65 71 84 81 90 97 100 100 100 100 100 100 100 100 100 100 100 100 100 100 94 94 94 90 87 90 90 87 87 87 84 87 94 97
0 0 0 0 0 0 0 0 10 23 35 61 55 48 55 58 65 84 84 90 97 100 100 100 100 97 100 100 100 100 100 100 100 100 97 94 90 90 87 87 90 87 87 87 81 71 74 84 90
0 0 0 0 0 0 0 6 6 29 55 58 55 55 58 61 65 87 87 94 94 100 100 100 97 97 97 100 100 100 100 100 100 100 100 94 81 81 81 84 87 81 81 81 77 74 74 84 87
0 0 0 0 0 0 0 6 6 32 48 52 61 77 84 81 68 74 81 84 87 94 94 90 90 94 97 100 100 97 100 100 100 94 84 55 52 68 77 87 87 81 71 74 81 81 55 19 23
0 0 0 0 0 0 0 6 10 26 35 52 61 87 81 87 74 61 65 58 65 87 94 90 90 90 84 87 94 90 87 77 74 68 45 39 29 42 42 55 65 61 55 29 35 23 3 6 3
0 0 0 0 0 0 0 0 10 13 23 42 55 90 77 84 74 61 58 55 68 68 87 94 87 84 77 77 87 77 71 65 55 35 26 13 13 16 16 23 23 26 13 10 6 3 3 3 3
0 0 0 0 0 0 0 0 3 10 32 42 74 84 81 81 77 71 58 55 55 65 74 74 77 77 61 61 71 68 61 55 39 32 23 13 10 6 6 13 13 6 0 3 6 3 0 3 10
0 0 0 0 0 0 0 0 3 16 42 55 68 84 84 84 84 87 84 68 58 52 61 74 77 65 52 55 48 42 52 45 29 23 16 10 6 6 10 10 6 3 0 0 0 0 0 0 3
0 0 0 0 0 0 0 0 6 10 45 55 55 71 77 68 65 74 74 68 45 42 45 58 61 42 42 45 39 39 35 29 23 13 10 6 6 6 10 3 0 0 0 0 0 0 0 0 0
0 0 0 0 0 0 0 0 0 19 45 48 52 52 52 52 55 58 58 58 42 32 45 48 55 39 45 35 26 23 19 16 16 6 3 6 6 6 6 3 0 0 0 0 0 0 0 0 0
0 0 0 0 0 0 0 0 6 23 35 42 42 42 42 45 45 52 48 48 35 32 39 42 39 35 32 23 16 10 6 3 13 0 3 10 13 6 3 0 0 0 0 0 0 0 0 0 0
0 0 0 0 0 0 0 0 3 13 23 29 29 29 32 32 35 35 45 48 39 32 32 35 32 32 32 16 10 3 3 0 0 0 0 6 13 10 3 0 0 0 0 0 0 0 0 0 0
0 0 0 0 0 0 0 0 0 13 16 29 29 32 29 26 32 29 45 42 32 32 32 35 29 23 16 13 13 3 3 0 0 3 3 10 10 10 3 3 0 0 0 0 0 0 0 0 0
0 0 0 0 0 0 0 0 0 10 16 23 29 29 26 26 42 39 42 39 23 26 19 26 23 16 16 16 13 6 3 0 3 3 0 3 10 10 3 0 0 0 0 0 0 0 0 0 0
0 0 0 0 0 0 0 0 0 10 10 16 19 29 23 29 35 48 42 29 29 26 23 19 16 19 10 16 13 6 0 0 0 0 0 0 6 3 3 3 0 3 3 0 0 0 0 0 0
0 0 0 0 0 0 0 0 0 3 6 10 16 16 26 29 42 42 48 42 32 32 29 16 16 13 13 10 13 6 3 3 0 0 0 0 0 6 3 3 3 3 3 0 0 0 0 0 0
0 0 0 0 0 0 0 0 0 0 3 3 10 16 16 32 42 48 45 42 29 29 23 19 10 13 10 10 13 6 3 3 0 0 0 0 0 0 3 3 3 3 3 0 0 0 0 0 0
0 0 0 0 0 0 0 0 0 0 0 0 0 13 26 26 42 45 42 32 26 23 19 23 10 10 6 10 6 10 3 3 0 0 0 0 0 0 0 3 3 3 3 0 0 0 0 0 0
0 0 0 0 0 0 0 0 0 0 0 3 10 19 23 29 39 42 35 35 26 23 16 16 10 10 6 10 10 6 3 0 0 0 0 0 0 0 3 6 6 6 3 3 0 0 0 0 0
0 0 0 0 0 0 0 0 0 0 0 3 6 13 16 23 29 32 26 32 29 19 19 16 10 10 6 6 6 10 3 3 0 0 0 0 0 3 3 3 3 3 6 6 0 0 3 0 0
0 0 0 0 0 0 0 0 3 0 3 3 3 6 6 16 19 23 23 26 26 16 13 16 10 10 10 6 6 6 6 3 3 0 0 0 0 0 0 3 3 3 3 6 6 3 3 3 3
0 0 0 0 0 0 0 0 0 3 6 0 3 3 6 6 16 13 13 23 19 23 13 10 6 6 6 3 6 6 6 6 6 0 0 3 0 0 0 0 3 3 3 3 6 6 6 3 3
0 0 0 0 0 0 0 0 0 3 3 3 0 3 10 6 13 16 16 19 19 29 23 19 6 3 3 3 6 10 10 6 6 10 10 6 3 3 3 3 3 3 3 3 3 3 6 3 3
0 0 0 0 0 0 0 0 0 3 3 6 6 6 10 10 10 16 16 16 16 10 13 3 10 10 10 6 6 10 6 3 3 3 3 3 0 0 3 3 3 3 3 3 3 6 6 6 6

GEFSSGP_con_cape1000_144.txt.gz
Probability
26 29 42 55 52 6 0 0 0 0 0 3 3 0 0 3 6 39 42 19 16 52 87 97 97 97 97 100 100 100 100 100 100 100 100 100 100 100 97 97 97 97 97 97 97 94 94 94 94
16 26 42 45 13 0 0 0 0 3 6 10 6 3 0 35 58 55 35 35 29 58 87 94 97 97 97 100 100 100 100 100 100 100 100 100 100 100 97 100 100 100 100 100 100 100 100 100 97
16 29 29 6 0 0 0 0 0 10 10 13 16 26 39 48 65 61 52 45 42 74 90 97 97 97 100 100 100 100 100 100 100 100 100 100 100 100 100 97 100 100 100 100 100 100 100 100 100
23 23 13 3 0 0 0 0 3 10 19 16 19 39 68 84 71 61 55 45 61 87 90 97 97 97 100 100 100 100 100 100 100 100 100 100 97 97 97 100 100 100 100 100 100 100 100 100 97
13 10 6 0 0 0 0 0 0 10 16 23 23 39 84 94 77 65 68 58 74 77 90 97 100 100 100 100 100 100 100 100 100 100 100 97 97 97 97 97 97 100 100 100 97 100 100 97 100
3 3 0 0 0 0 0 0 0 10 23 23 32 48 97 100 87 77 68 58 55 68 87 100 100 100 100 100 100 100 100 100 100 100 100 97 97 97 97 97 94 90 94 97 97 94 97 97 97
3 3 0 0 0 0 0 3 3 6 26 26 32 48 97 97 94 77 65 58 55 68 94 97 97 100 100 100 100 100 100 100 100 100 97 97 97 94 90 90 90 90 94 94 94 94 90 97 97
0 0 0 0 0 0 0 3 10 13 26 55 42 45 87 100 94 90 81 81 68 74 90 97 94 97 100 100 100 97 97 97 97 97 94 94 90 90 87 90 90 90 90 90 81 84 81 84 94
0 0 0 0 0 0 0 3 13 26 45 61 68 71 94 100 97 97 94 87 84 81 94 94 90 97 94 97 94 97 97 97 97 94 94 90 87 84 84 87 90 87 87 77 77 77 74 84 84
0 0 0 0 0 0 0 0 10 23 42 71 84 100 100 100 100 97 97 94 97 97 87 94 94 97 94 94 97 97 94 97 97 97 97 94 94 87 77 87 90 87 81 71 71 61 52 58 58
0 0 0 0 0 0 0 0 3 16 23 55 77 97 100 100 100 100 94 97 97 97 94 87 94 97 90 97 97 97 97 97 97 100 90 94 94 87 81 90 84 87 74 55 55 42 19 23 45
0 0 0 0 0 0 0 0 6 10 23 39 65 94 100 100 94 94 94 97 97 97 97 87 94 97 97 97 100 100 100 100 97 100 87 87 90 87 84 84 71 74 74 71 39 39 26 26 39
0 0 0 0 0 0 0 6 6 16 39 52 77 97 100 94 90 97 97 100 100 100 100 97 97 100 100 100 100 97 90 90 94 100 87 87 81 81 71 77 77 45 61 65 61 35 42 45 32
0 0 0 0 0 0 3 6 13 32 42 61 90 100 94 94 97 97 97 97 100 100 100 100 100 100 100 100 100 94 87 100 90 97 84 77 71 81 74 81 77 42 35 32 39 29 58 35 39
0 0 0 0 0 0 0 10 23 39 52 68 87 100 94 90 90 97 97 97 97 97 100 100 97 100 100 100 100 97 90 90 97 97 94 74 68 81 71 65 71 42 42 61 55 42 39 42 35
0 0 0 0 0 0 0 3 23 42 58 77 87 94 97 94 94 97 97 90 90 90 97 90 87 94 100 97 97 90 90 87 90 94 90 81 65 74 77 61 45 55 42 42 48 32 29 19 16
0 0 0 0 0 0 0 3 26 39 55 71 84 94 100 97 97 94 94 90 94 94 97 87 77 90 90 90 90 84 84 94 84 84 90 87 77 68 61 61 61 61 39 39 19 23 23 23 23
0 0 0 0 0 0 0 3 13 42 52 55 81 87 94 94 87 90 90 87 94 94 97 87 84 90 84 90 87 81 77 84 81 81 87 81 71 71 48 61 74 45 42 39 45 42 55 35 35
0 0 0 0 0 0 0 3 16 45 52 58 68 74 84 87 87 87 87 90 90 84 84 84 77 74 77 77 74 68 71 77 81 74 74 81 71 61 68 45 77 65 48 52 23 42 39 32 39
0 0 0 0 0 0 0 3 10 39 52 61 68 77 81 84 84 90 87 84 84 77 74 77 74 74 71 77 77 74 74 74 65 68 77 71 68 61 55 77 65 65 74 61 52 55 35 39 32
0 0 0 0 0 0 0 0 10 29 48 58 61 68 68 77 84 84 84 81 74 77 74 65 65 74 71 74 71 61 68 68 52 61 55 68 68 58 61 65 58 71 45 45 55 58 48 39 19
0 0 0 0 0 0 0 0 13 16 23 45 58 68 61 71 68 71 81 81 74 74 68 61 61 61 65 65 61 58 55 48 58 58 52 61 58 61 55 65 68 68 45 61 48 39 45 52 42
0 0 0 0 0 0 0 0 0 10 10 26 55 55 52 61 71 84 81 77 74 71 61 55 58 61 65 65 65 61 52 55 52 58 48 58 55 45 48 61 58 58 55 55 48 52 52 45 45
0 0 0 0 0 0 0 0 0 0 10 10 32 45 48 61 68 81 74 77 74 65 58 55 58 65 65 58 55 55 48 48 52 55 42 48 58 55 52 52 55 52 42 45 48 52 58 48 45
0 0 0 0 0 0 0 0 0 16 19 23 32 45 55 68 81 81 74 74 77 74 58 68 68 58 55 55 48 48 52 52 55 52 48 42 39 42 58 45 58 48 45 45 52 52 45 45 48
0 0 0 0 0 0 3 0 0 19 26 26 32 45 58 65 74 77 71 68 68 65 68 61 58 61 58 52 52 52 48 55 48 58 52 45 45 45 48 48 52 45 42 35 55 39 35 52 48
0 0 0 0 0 0 0 0 19 19 35 35 39 55 65 58 65 74 71 65 61 61 61 61 65 61 52 52 52 52 42 42 45 55 52 52 58 45 42 45 45 45 42 42 58 42 48 48 39
0 0 0 0 0 0 0 0 0 23 39 42 48 58 58 68 68 65 61 55 55 58 58 55 58 61 55 45 48 35 42 39 35 42 45 48 58 45 45 39 42 42 45 45 58 45 39 42 42
0 0 0 0 0 0 0 0 6 39 48 52 52 55 61 71 65 58 65 58 55 55 55 55 52 52 48 48 52 45 32 35 32 35 39 42 48 42 42 39 45 32 32 32 45 35 35 32 32
0 0 0 0 0 0 0 6 19 26 48 61 55 48 61 71 65 74 61 58 55 52 55 42 48 42 48 48 45 39 39 39 32 32 32 45 42 35 39 29 23 29 23 29 32 26 29 29 32

GEFSSGP_con_cape1000_150.txt.gz
Probability
6 13 32 81 71 71 3 0 0 3 0 0 3 10 23 19 13 16 19 52 77 65 90 97 97 100 100 100 100 100 100 100 100 100 100 100 100 97 97 97 97 97 97 97 94 94 94 94 90
0 19 42 52 55 13 0 0 0 0 0 0 0 23 29 23 16 13 35 77 58 58 84 94 100 97 100 100 100 100 100 100 100 100 100 100 97 97 97 97 97 100 97 97 97 100 100 94 90
6 19 26 45 39 0 0 0 0 0 0 6 13 26 29 26 29 42 42 58 52 81 94 97 100 97 97 100 100 100 100 100 100 100 100 97 97 97 100 100 100 100 100 100 100 100 97 97 94
19 26 23 26 6 0 0 0 0 0 0 10 16 32 39 32 35 39 39 68 81 97 94 97 100 97 97 100 100 100 100 100 100 97 97 97 100 100 100 100 100 100 100 100 100 97 100 97 87
23 10 6 3 0 0 0 0 0 0 0 10 48 58 48 48 35 32 45 74 90 84 97 97 97 97 97 97 100 100 100 100 100 97 97 97 97 100 100 100 100 100 100 100 97 97 97 94 68
10 0 3 0 0 0 0 0 0 0 3 13 55 68 52 48 35 23 45 65 84 90 87 94 94 94 94 97 100 100 100 100 97 97 97 97 97 97 97 100 97 97 97 97 97 97 97 90 71
3 0 0 0 0 0 0 0 0 0 3 13 45 61 52 55 45 45 52 65 87 87 87 90 90 94 94 100 100 100 100 100 97 97 97 97 97 97 97 94 94 97 94 94 90 87 87 94 68
3 0 0 0 0 3 0 0 0 3 6 6 29 55 65 71 61 45 55 61 87 90 81 84 87 90 90 97 100 100 100 100 97 97 97 97 97 94 94 94 94 94 87 87 90 87 84 87 68
0 0 0 0 3 0 0 0 3 3 13 13 39 65 77 74 65 55 52 58 90 87 81 81 87 90 90 94 100 100 100 97 97 97 97 94 90 90 94 87 94 90 84 77 77 81 81 87 74
0 0 0 0 3 0 0 0 6 3 13 35 58 71 65 77 71 65 65 61 87 90 81 94 87 87 94 94 100 100 97 100 97 97 97 97 94 94 90 94 94 90 84 77 81 90 87 77 39
0 0 0 0 0 0 0 3 6 10 16 32 65 77 84 74 77 77 68 77 90 84 81 84 87 94 94 97 97 97 97 100 100 97 97 94 90 90 87 90 94 94 87 84 77 71 45 52 71
0 0 0 0 0 0 0 0 3 10 16 35 61 84 84 87 81 81 87 87 90 84 81 84 90 90 94 94 94 97 97 97 97 100 94 90 90 87 81 90 90 94 90 94 74 87 77 61 61
0 0 0 0 0 0 0 0 6 16 19 52 68 87 90 94 87 90 87 97 94 97 94 94 97 97 100 100 100 94 97 97 97 97 97 94 84 87 87 87 87 94 94 90 84 81 74 71 65
0 0 0 0 0 0 0 0 3 19 29 52 65 87 94 94 90 90 97 97 94 97 97 100 97 100 100 100 100 97 94 94 97 100 94 94 87 87 87 90 90 90 97 90 94 77 77 77 84
0 0 0 0 0 0 0 0 3 23 26 48 71 90 94 97 100 97 97 97 97 94 100 97 97 97 97 97 100 97 94 94 94 100 97 94 90 90 90 87 87 84 90 87 90 84 81 77 84
0 0 0 0 0 0 0 0 6 13 29 48 65 84 90 97 97 100 97 97 97 100 100 97 94 94 94 94 97 100 94 90 90 94 94 90 94 87 87 90 87 87 90 90 94 84 74 84 81
0 0 0 0 0 0 0 3 16 10 23 52 71 81 87 90 90 97 94 97 100 100 100 97 94 94 94 94 94 87 87 90 87 90 87 90 90 84 90 87 87 81 87 87 81 84 81 87 81
0 0 0 0 0 0 0 0 16 13 13 42 71 84 84 84 90 90 94 97 100 100 97 97 94 94 90 81 84 90 84 84 84 87 87 87 90 87 87 87 87 77 81 81 84 84 81 81 87
0 0 0 0 0 0 0 3 10 6 13 39 65 84 87 84 90 90 94 97 100 100 100 97 94 94 87 81 81 74 81 84 84 84 84 90 84 84 90 81 87 77 84 77 65 68 71 77 84
0 0 0 0 0 0 0 0 3 10 10 35 58 77 84 90 90 97 100 100 100 100 100 94 90 90 84 81 81 77 81 84 81 84 84 77 84 90 65 90 84 81 87 84 81 81 77 65 65
0 0 0 0 0 0 0 0 0 10 13 29 45 71 77 87 94 97 97 97 97 97 94 90 90 81 81 81 81 77 74 81 87 81 84 77 77 87 87 87 77 87 84 84 87 84 77 68 55
0 0 0 0 0 0 0 0 3 19 16 23 39 52 68 84 90 90 97 97 97 97 94 90 87 81 81 81 77 74 68 61 77 84 81 77 77 74 77 81 77 81 90 90 81 71 84 68 55
0 0 0 0 0 0 0 0 3 13 19 19 32 52 52 74 87 87 90 90 87 81 77 87 87 84 81 81 81 81 68 74 74 81 81 81 77 74 68 77 81 77 84 87 81 77 77 77 55
0 0 0 0 0 0 0 0 0 10 6 26 26 35 58 65 77 87 77 84 84 77 81 84 84 84 81 74 74 74 71 58 65 71 81 87 77 74 71 74 84 87 87 90 81 74 71 74 68
0 0 0 0 0 0 0 0 6 3 6 13 32 35 48 65 81 77 77 81 81 77 77 81 84 84 74 74 74 68 74 65 65 74 77 77 74 68 77 71 84 84 81 81 84 77 74 68 61
0 0 0 0 0 0 0 0 0 10 13 23 32 42 52 55 81 77 74 81 87 77 77 74 81 77 74 74 77 74 74 61 58 65 58 65 55 58 65 61 58 65 71 58 65 65 68 65 65
0 0 0 0 0 0 0 3 13 16 19 19 29 45 42 61 71 68 68 68 71 81 81 77 81 77 74 74 77 71 68 71 58 61 65 61 58 48 52 48 55 52 58 65 65 68 68 68 65
0 0 0 0 3 0 0 0 26 23 23 29 32 52 65 65 52 61 61 58 68 74 81 81 81 77 77 74 71 61 74 61 58 61 61 61 61 61 65 55 52 52 52 58 55 55 65 65 61
0 0 0 0 0 0 0 0 10 29 32 39 42 58 71 61 58 61 74 77 74 71 74 74 77 77 71 74 71 74 71 61 61 58 55 58 65 58 65 55 52 48 45 48 52 55 52 48 48
0 0 0 0 10 6 0 0 13 26 32 52 65 61 71 74 68 74 71 74 68 68 74 74 71 68 65 65 68 74 65 65 61 61 52 58 58 61 55 58 48 42 35 45 45 35 35 32 35

GEFSSGP_con_cape1000_156.txt.gz
Probability
19 10 10 13 19 0 0 0 3 0 3 0 3 6 6 10 3 10 10 45 74 94 100 100 100 100 100 100 100 100 100 100 100 100 100 100 100 100 100 100 100 94 94 94 94 94 94 90 90
0 3 6 10 0 0 0 0 0 3 3 0 0 0 19 45 39 35 32 68 77 94 97 100 100 100 100 100 100 100 100 100 100 100 100 100 100 100 100 100 97 97 100 97 97 94 94 94 90
6 0 0 6 6 0 0 0 6 6 10 19 13 6 13 48 55 35 35 68 77 84 97 100 100 100 100 100 100 100 100 100 100 100 100 100 100 100 100 100 97 100 100 97 90 90 94 90 94
3 0 3 0 0 0 0 0 3 6 13 23 23 26 23 39 52 45 48 65 74 90 97 100 100 100 100 100 100 100 100 100 100 100 100 100 100 100 100 100 100 100 100 94 94 94 94 94 94
0 0 0 0 0 0 3 0 13 16 26 29 29 26 19 39 45 42 52 71 87 94 97 97 100 100 100 100 100 100 100 100 100 100 100 100 100 100 100 100 100 100 100 97 94 94 90 84 81
0 0 0 0 0 0 0 6 10 19 23 26 19 19 13 42 48 48 61 68 81 94 94 97 100 100 100 100 100 100 100 100 97 97 97 100 100 100 100 100 100 100 100 100 94 94 90 81 81
0 0 0 0 0 0 0 0 10 32 35 23 19 16 13 42 48 58 58 68 81 87 90 94 94 94 100 100 100 100 100 97 97 97 97 97 97 97 100 100 100 97 97 100 97 84 81 77 71
0 0 0 0 0 3 0 0 16 29 26 19 16 10 13 29 45 58 58 71 81 87 90 94 90 94 94 97 100 100 100 97 97 97 97 97 97 97 94 94 97 97 97 94 87 68 68 77 74
0 0 0 0 0 0 0 3 10 10 19 26 35 23 16 29 55 68 65 71 81 87 90 90 84 87 90 90 97 97 94 97 97 97 97 97 87 94 94 94 94 97 94 94 87 74 71 74 61
0 0 0 0 0 0 0 3 6 10 26 29 32 19 13 39 61 68 68 65 68 68 81 84 84 81 84 90 97 94 94 97 94 90 90 74 61 65 81 94 94 90 94 94 90 84 74 45 16
0 0 0 0 0 0 0 0 3 13 23 29 29 26 29 32 52 71 65 65 65 65 71 77 74 81 81 87 87 81 81 77 65 68 68 58 52 58 65 68 87 71 71 45 58 58 45 23 0
0 0 0 0 0 0 0 0 3 16 23 29 32 23 23 26 48 68 71 61 61 71 68 61 68 71 61 74 77 74 74 65 65 61 58 35 35 32 26 39 32 26 19 16 16 19 10 6 3
0 0 0 0 0 0 0 6 6 23 29 42 26 35 35 29 35 45 58 61 58 58 61 58 61 68 58 61 65 68 61 55 52 58 55 39 29 19 19 16 13 13 10 6 10 10 0 0 6
0 0 0 0 0 3 6 6 19 26 35 48 39 39 39 32 32 35 55 55 55 58 65 52 68 58 58 45 45 48 52 35 39 42 42 39 19 16 16 13 13 6 3 3 3 0 0 0 3
0 0 0 0 3 3 6 13 19 29 48 55 55 52 45 42 39 48 55 58 55 61 58 65 74 68 61 52 42 42 39 39 39 42 29 39 23 10 13 6 10 10 3 3 3 0 3 0 3
0 0 0 0 0 0 0 10 23 29 45 58 52 52 58 55 55 55 61 58 52 58 55 68 77 68 55 52 52 42 45 39 39 39 32 35 32 16 13 10 13 10 6 3 6 3 0 0 0
0 0 0 0 0 0 0 3 19 32 58 58 61 55 58 61 61 61 55 68 68 61 61 71 68 65 58 58 52 45 35 39 32 32 35 32 39 16 13 6 10 6 6 3 3 0 0 0 0
0 0 0 0 0 0 3 3 16 32 48 61 58 58 65 65 65 68 68 74 77 71 65 71 77 71 61 58 61 45 35 32 26 26 29 32 35 26 16 13 3 6 3 0 3 0 0 0 0
0 0 0 0 0 0 3 6 16 29 45 45 52 61 71 71 74 71 77 81 84 77 77 77 77 74 68 65 52 42 45 32 29 26 29 32 26 32 19 19 6 3 3 3 0 0 0 0 0
0 0 0 0 0 0 3 3 6 10 32 39 48 65 71 71 74 74 74 81 77 71 74 71 71 65 68 61 45 32 35 26 23 19 19 32 26 26 29 3 6 3 3 0 0 0 0 0 0
0 0 0 0 0 0 0 0 10 10 26 42 45 68 71 68 65 74 77 77 81 74 71 74 68 65 61 52 42 35 26 26 23 19 26 26 23 23 16 6 6 6 3 0 0 0 0 0 0
0 0 0 0 0 0 0 0 0 16 32 45 52 68 65 61 68 74 77 74 74 71 68 68 58 58 52 42 39 29 26 26 16 13 19 19 23 29 26 16 10 6 3 0 0 0 0 0 0
0 0 0 0 0 0 0 0 0 6 23 26 39 52 61 61 68 68 71 65 77 71 68 65 58 52 52 48 39 29 26 13 10 6 10 19 19 23 26 19 10 6 6 0 0 0 0 0 0
0 0 0 0 0 0 0 0 0 6 23 26 32 55 48 61 65 65 52 58 65 61 65 58 55 52 45 48 35 32 26 19 13 10 13 13 16 16 19 23 6 3 3 0 3 0 0 0 0
0 0 0 0 0 0 0 0 0 6 10 26 39 45 55 58 58 58 55 55 65 65 61 58 55 42 48 35 32 26 23 16 10 13 6 10 16 16 16 23 10 6 6 6 3 0 0 0 0
0 0 0 0 0 0 0 0 0 6 6 16 42 42 48 42 48 48 45 55 58 61 61 61 52 52 45 42 32 26 26 19 19 16 10 10 13 13 13 13 6 10 10 10 3 0 3 0 0
0 0 0 0 0 0 0 0 6 10 16 23 23 32 42 45 52 52 48 45 58 58 55 55 52 48 42 39 39 29 29 23 16 16 16 16 10 3 3 10 10 3 10 13 6 6 3 3 3
0 0 0 0 0 0 0 3 6 13 16 19 26 23 29 39 42 42 32 42 48 45 48 48 42 32 39 39 35 35 32 29 13 13 13 13 10 0 0 6 0 0 10 13 10 10 10 3 6
0 0 0 0 0 0 0 0 0 6 16 16 23 16 32 42 42 48 35 32 39 39 39 42 35 35 32 26 19 19 19 23 19 16 16 16 10 6 6 6 6 3 3 6 3 3 3 3 3
0 0 0 0 0 0 0 3 10 13 13 23 19 32 32 35 48 42 35 35 35 35 42 39 39 39 26 23 19 19 19 23 23 23 10 10 10 13 10 10 10 6 3 3 3 3 3 3 3

GEFSSGP_con_cape1000_162.txt.gz
Probability
16 16 10 6 0 0 0 0 0 0 0 0 0 3 0 0 0 0 0 32 68 81 84 97 100 100 100 100 100 100 100 100 100 100 100 100 100 97 97 97 97 97 94 94 94 94 97 94 94
10 3 0 0 0 0 0 0 0 0 0 0 6 16 26 26 23 6 19 58 71 84 84 94 100 100 100 100 100 100 100 100 100 100 100 100 100 97 97 94 94 94 97 97 94 90 94 94 94
3 0 0 0 0 0 0 0 0 3 6 6 10 10 29 26 29 23 52 68 74 84 90 94 100 100 100 100 100 100 100 100 100 100 100 100 100 100 100 94 97 97 97 94 94 94 94 94 94
0 0 0 0 0 0 0 0 0 10 16 16 16 16 32 26 42 48 61 68 84 90 94 100 100 100 100 100 100 100 100 100 100 100 100 100 100 100 100 97 97 94 94 94 94 94 94 94 90
0 0 0 0 0 0 0 0 0 6 19 23 13 10 26 55 52 58 71 74 77 84 94 100 100 100 100 100 100 100 100 100 100 100 100 100 100 100 100 97 97 94 94 97 97 100 97 97 90
0 0 0 0 0 0 0 3 10 10 19 19 13 13 39 45 45 58 71 68 77 84 94 100 100 100 100 100 100 100 100 100 100 100 100 100 100 100 100 100 97 97 94 97 100 97 100 97 90
0 0 0 0 0 0 0 3 16 19 19 16 13 23 39 55 45 45 61 68 81 90 90 90 100 100 100 100 100 100 100 100 100 100 100 100 100 100 100 100 100 97 97 97 94 94 90 90 90
0 0 0 0 0 0 0 3 10 19 16 16 16 16 26 39 42 48 55 71 81 84 87 87 87 97 100 100 100 97 97 97 97 97 97 97 97 97 97 97 97 97 90 87 87 90 84 87 87
0 0 0 0 0 0 0 3 13 16 19 16 13 19 29 48 48 45 52 71 77 90 90 84 84 87 87 94 97 97 97 97 97 97 97 94 90 90 94 94 97 97 87 84 84 74 74 77 87
0 0 0 0 0 0 3 6 10 10 13 19 19 45 52 58 48 35 35 39 61 81 84 68 68 77 84 90 84 94 94 90 90 81 81 71 68 77 87 94 94 87 84 81 77 84 55 35 26
0 0 0 0 0 0 0 6 3 6 13 19 16 55 65 55 42 26 23 26 29 58 81 68 68 68 77 77 81 77 81 77 77 71 58 42 48 52 58 61 74 58 48 35 35 35 16 19 13
0 0 0 0 0 0 0 6 6 13 13 23 35 61 68 58 42 23 19 16 29 42 65 58 65 68 61 74 77 74 58 58 55 42 42 29 35 35 29 29 26 19 16 16 13 16 10 10 13
0 0 0 0 0 0 0 6 16 16 16 26 52 61 71 61 32 29 19 19 32 39 58 58 61 52 42 52 68 71 55 48 45 32 32 26 23 16 16 13 13 13 16 13 13 10 6 3 10
0 0 0 0 0 0 6 13 19 16 10 32 42 58 65 68 58 52 35 32 32 32 45 58 55 48 39 39 35 48 45 32 29 26 23 13 13 10 3 3 3 3 6 3 6 3 0 0 6
0 0 0 0 0 3 16 16 16 16 13 29 29 55 55 61 61 65 48 35 39 29 42 39 48 52 35 26 26 23 32 32 26 19 13 10 10 6 6 3 3 3 0 3 0 0 0 0 3
0 0 0 0 0 0 6 10 19 19 19 16 26 35 42 35 45 55 58 45 35 35 35 32 45 45 39 23 19 16 19 26 19 19 13 13 10 6 3 3 3 3 0 0 0 0 0 0 3
0 0 0 0 0 0 3 6 19 26 26 23 19 26 26 19 23 32 61 45 39 35 39 32 39 39 32 23 10 10 6 10 16 10 10 13 6 6 6 6 3 0 0 0 0 0 0 0 0
0 0 3 0 0 0 3 6 19 26 19 19 19 16 16 26 26 32 45 52 42 32 23 26 26 26 23 19 16 6 3 6 6 10 6 10 6 13 6 6 3 3 3 0 0 0 0 0 0
0 0 0 0 0 3 3 3 19 23 19 19 29 29 26 26 29 42 39 48 48 32 26 23 26 19 19 16 16 10 6 6 3 6 6 10 10 10 10 10 6 3 3 0 0 0 0 0 0
0 0 0 0 0 3 3 3 13 23 26 32 26 35 35 35 39 42 45 42 48 39 29 29 32 26 23 16 13 13 6 6 6 10 6 10 16 13 10 6 6 3 3 0 0 0 0 0 0
0 0 0 0 0 0 3 13 13 19 32 39 42 42 39 42 45 42 48 52 45 42 29 35 23 19 19 13 6 10 10 6 10 10 10 10 16 13 13 13 6 3 3 0 0 0 0 0 0
0 0 0 0 0 0 0 0 6 10 19 26 39 39 42 45 48 48 52 58 58 42 29 23 19 19 16 16 16 16 13 10 10 10 10 13 3 13 13 10 6 3 3 0 0 0 0 0 0
0 0 0 0 0 0 0 0 3 6 13 19 32 42 45 39 45 48 48 55 45 39 29 23 29 26 19 16 16 10 10 10 10 3 6 6 3 3 10 6 10 6 6 0 0 0 0 0 0
0 0 0 0 0 0 0 0 0 3 6 13 26 39 45 42 32 42 39 42 48 42 45 32 26 23 26 23 16 16 6 6 3 3 3 3 3 3 3 10 10 6 6 3 3 0 0 0 0
0 0 0 0 0 0 0 0 0 0 0 13 16 32 35 35 35 39 42 42 42 39 45 48 35 32 23 23 16 16 10 10 6 3 3 3 3 6 6 6 3 10 6 6 3 3 0 0 0
0 0 0 0 0 0 0 0 0 6 10 13 10 23 29 26 26 32 29 35 39 42 42 42 39 32 23 23 26 23 19 10 10 3 3 0 0 3 3 3 3 10 0 0 6 0 0 0 0
0 0 0 0 0 0 0 0 6 10 10 19 39 42 35 32 35 39 39 35 29 32 39 39 39 39 23 26 29 23 16 13 6 6 6 6 3 0 0 3 3 3 3 3 3 0 0 0 0
0 0 0 0 0 0 0 0 0 6 19 23 32 42 45 32 35 39 32 32 29 29 39 42 32 29 23 19 19 16 13 10 10 3 3 3 3 3 3 3 3 3 3 3 0 3 6 0 0
0 0 0 0 0 0 0 0 0 6 10 16 23 32 39 35 29 32 32 32 26 19 23 23 29 26 19 19 19 19 10 10 10 6 3 3 3 3 3 3 3 3 3 0 0 0 0 3 3
0 0 0 0 0 0 0 0 0 10 13 19 19 26 35 39 29 19 26 23 23 23 19 23 26 23 23 16 19 19 19 16 10 6 6 6 6 3 0 0 0 0 0 3 3 0 0 0 6

GEFSSGP_con_cape1000_168.txt.gz
Probability
10 26 35 52 19 0 0 0 0 0 0 3 0 0 0 3 6 13 23 10 13 19 58 90 100 100 100 100 100 100 100 100 100 100 100 100 100 100 100 97 97 97 97 94 94 94 94 94 94
23 26 32 19 0 0 0 0 0 0 3 3 3 6 16 35 26 23 23 23 23 26 45 84 100 100 100 100 100 100 100 100 100 100 100 100 100 100 97 97 97 97 94 94 94 94 90 90 94
13 10 10 0 0 0 0 0 6 10 6 6 6 16 23 26 13 26 29 29 29 45 81 97 100 100 100 100 100 100 100 100 100 100 100 100 100 100 97 97 97 97 97 97 90 90 94 90 94
0 3 0 0 0 0 0 0 3 6 6 10 10 13 19 29 16 26 32 35 39 55 65 97 100 100 100 100 100 100 100 100 100 100 97 97 100 100 100 97 97 94 97 97 94 94 94 94 94
0 0 0 0 0 3 6 0 0 3 10 10 6 6 39 58 32 42 45 39 39 48 71 81 97 100 100 100 100 100 100 100 100 100 97 97 100 97 97 97 97 97 97 94 94 94 94 94 90
0 0 0 0 0 0 10 3 3 6 13 10 3 0 65 68 55 45 35 32 35 52 71 87 97 94 100 100 100 100 100 100 100 100 100 100 100 100 97 97 100 100 100 97 97 94 94 94 94
0 3 0 0 0 0 6 13 3 10 10 13 0 6 48 61 55 35 42 39 39 45 68 77 77 94 94 100 100 100 100 100 100 100 100 100 100 100 100 97 100 100 100 97 94 94 90 87 90
0 0 0 0 0 0 3 10 16 16 19 16 6 3 29 65 61 52 42 45 45 45 61 74 68 81 84 87 94 97 97 97 97 97 97 97 100 100 100 100 100 97 90 87 87 77 81 87 81
0 0 0 0 0 0 3 13 23 19 23 19 16 16 42 71 65 65 61 45 52 45 52 55 71 74 77 74 90 97 97 97 97 97 97 97 87 71 90 87 97 87 84 84 84 81 77 77 81
0 0 0 0 0 0 0 10 19 26 23 42 61 74 81 77 68 61 42 45 52 52 52 65 68 74 71 58 94 94 90 94 90 90 94 90 84 81 74 90 84 81 77 74 68 65 58 61 61
0 0 0 0 0 0 3 10 13 10 19 32 61 87 81 71 58 55 42 35 48 55 55 58 68 81 68 71 71 87 84 94 90 90 87 90 81 74 71 71 77 77 71 65 68 45 42 32 58
0 0 0 0 0 0 6 6 10 6 23 29 58 77 84 68 58 52 39 39 45 48 55 48 68 77 77 74 65 74 81 84 77 94 87 84 71 74 71 71 65 68 65 68 55 48 45 45 39
0 0 0 0 0 0 0 10 13 29 35 45 71 77 68 65 52 45 35 29 48 55 55 65 74 87 94 94 81 71 74 74 71 84 87 77 61 61 61 74 68 55 45 48 68 42 52 48 35
0 0 0 0 0 3 10 16 26 26 35 71 77 87 77 74 61 52 39 58 65 61 61 71 84 90 94 94 94 77 74 87 68 71 74 74 65 58 65 74 74 45 52 42 42 48 48 48 39
0 0 3 3 3 6 10 16 32 39 52 74 77 84 77 74 74 68 74 74 65 65 71 77 81 81 84 87 77 77 74 71 71 71 84 81 55 71 71 48 68 52 55 52 55 52 39 52 39
0 0 0 3 3 10 10 6 35 45 58 68 81 81 87 90 84 77 71 74 68 71 74 84 58 74 84 87 87 81 65 74 84 84 77 81 68 74 81 61 55 65 58 58 61 35 32 32 42
0 0 0 0 3 6 10 10 39 55 55 65 74 84 84 87 87 87 77 77 81 77 90 87 74 77 81 84 84 81 84 87 81 81 77 77 71 58 74 77 71 71 55 58 52 45 35 35 42
0 0 0 0 3 6 6 13 26 55 55 65 77 81 84 84 87 74 84 84 84 84 84 90 87 77 77 81 87 84 81 84 84 77 81 74 77 68 71 81 74 61 61 65 65 61 65 48 42
0 0 0 3 3 3 6 6 23 55 55 58 71 77 87 81 81 81 74 77 74 74 87 87 81 84 87 81 81 84 87 87 84 74 71 74 77 77 81 68 77 77 61 61 42 45 35 39 45
0 0 0 3 3 6 6 6 10 39 65 65 68 84 84 87 87 84 81 81 77 77 84 87 84 87 84 87 90 77 77 74 71 68 81 84 74 71 71 77 74 74 87 74 68 65 42 32 35
0 0 0 0 6 6 3 3 16 32 55 65 68 77 77 84 90 81 81 84 74 81 81 77 84 87 87 81 74 68 71 71 71 74 81 71 74 71 81 74 74 74 71 68 81 81 68 45 32
0 0 0 0 0 0 3 0 10 23 42 58 68 81 81 81 81 77 81 84 84 77 81 84 90 87 87 81 71 68 71 65 65 77 71 65 71 68 77 77 81 90 77 87 77 45 58 61 42
0 0 0 0 0 0 0 0 0 29 29 45 68 74 81 84 77 77 84 84 81 81 81 81 81 87 84 81 71 71 65 68 61 65 77 77 77 74 68 87 90 94 87 90 84 68 68 52 45
0 0 0 0 0 0 0 0 0 3 16 45 65 74 81 84 94 90 81 81 81 81 77 81 81 84 81 77 74 71 71 68 65 68 68 68 74 68 65 81 87 87 87 87 87 81 71 68 61
0 0 0 0 0 0 3 0 0 16 26 39 61 77 87 81 87 90 87 87 87 77 77 81 81 77 84 81 74 71 77 77 68 65 68 65 55 58 81 68 84 84 90 87 81 84 71 65 74
0 0 0 0 0 0 3 0 0 32 39 55 61 71 77 84 84 87 90 84 77 74 74 74 74 74 71 74 77 77 74 71 61 61 68 61 58 48 58 74 74 81 81 71 77 71 65 74 68
0 0 0 0 0 0 0 0 6 35 45 52 61 71 77 74 74 81 74 71 74 77 74 71 74 71 68 65 71 68 61 61 55 61 65 58 61 48 58 61 61 65 68 74 81 71 71 61 55
0 0 0 0 0 0 0 0 0 32 48 55 61 74 81 74 65 65 68 68 68 68 71 68 71 68 68 61 55 52 61 58 58 58 52 58 52 55 55 55 55 55 55 58 74 65 58 52 48
0 0 0 0 0 0 0 0 3 23 42 61 74 81 90 77 68 71 71 68 65 61 65 65 71 61 52 52 52 48 48 39 42 48 39 42 48 52 55 48 45 45 42 39 45 39 32 29 39
0 0 0 0 0 0 0 0 10 26 35 61 71 77 84 74 71 77 74 71 65 61 61 61 55 55 45 48 45 42 45 42 35 35 39 32 32 39 42 45 42 39 35 35 29 19 23 23 23

GEFSSGP_con_cape1000_174.txt.gz
Probability
13 13 29 61 52 29 0 0 0 0 0 3 3 6 13 13 13 10 19 29 45 55 84 90 97 100 100 100 100 100 100 100 100 100 100 100 100 100 100 97 94 94 94 94 94 94 94 94 94
10 32 39 39 23 0 0 0 0 0 0 6 3 10 13 10 10 10 26 48 52 45 65 90 100 100 100 100 100 100 100 100 100 100 100 100 100 100 97 94 94 94 94 90 94 87 84 84 84
16 32 32 29 3 0 0 0 0 0 0 0 3 6 6 23 19 26 26 45 65 77 94 94 97 100 100 100 100 100 100 100 100 100 100 97 97 97 94 94 94 94 94 94 94 90 87 84 84
26 19 16 3 0 0 0 0 0 0 0 0 6 10 19 19 23 23 32 45 65 74 81 94 97 100 100 100 100 100 100 100 100 100 94 94 97 94 94 94 94 94 94 90 90 90 90 87 74
13 0 0 0 0 0 0 0 0 0 0 6 19 29 23 16 26 23 32 45 61 74 74 84 100 100 100 100 100 100 100 100 100 97 94 94 97 94 94 94 94 90 87 87 94 90 87 81 61
6 6 0 0 0 0 0 0 0 0 0 10 26 26 19 23 23 26 26 42 65 65 74 90 100 100 100 100 100 100 100 100 100 97 97 97 97 94 100 90 90 94 90 90 90 90 84 77 52
3 0 0 0 0 0 0 0 0 0 0 3 13 19 16 19 19 16 23 45 61 61 61 77 90 97 100 100 100 100 100 100 100 100 100 97 100 100 97 90 94 97 94 90 87 81 77 68 52
3 0 0 3 0 0 0 0 0 3 0 3 6 19 26 19 23 16 29 35 48 61 61 74 84 90 90 94 94 97 97 97 97 100 100 97 100 97 97 97 100 90 77 71 71 71 65 61 48
3 0 0 0 3 0 0 0 3 3 6 3 13 19 29 23 23 26 29 42 52 55 61 65 71 87 74 81 94 94 97 97 97 97 97 100 87 84 97 94 90 81 74 74 77 77 74 68 55
0 0 0 0 0 3 3 0 6 3 6 16 26 26 19 29 32 29 29 42 45 58 61 71 71 81 77 81 87 90 87 94 94 94 97 97 94 97 87 94 94 81 77 74 77 87 81 68 35
0 0 0 0 0 0 0 3 3 13 19 26 42 35 32 35 39 35 35 48 58 61 65 61 71 77 71 90 87 90 87 94 90 90 97 90 84 87 81 84 84 94 68 74 77 81 58 65 65
0 0 0 0 0 0 0 3 6 10 13 35 39 42 32 39 42 35 42 45 61 55 52 61 61 94 94 94 84 87 84 90 84 90 90 87 87 87 81 90 97 97 94 97 87 94 65 55 48
0 0 0 0 0 0 3 3 3 3 23 42 52 45 52 45 45 39 39 61 77 71 55 94 94 94 94 90 94 81 90 84 81 94 94 90 87 81 77 84 90 87 90 94 87 87 81 68 55
0 0 0 0 0 0 3 0 3 6 26 42 55 48 42 48 48 45 48 74 77 77 77 94 94 94 94 94 87 90 81 87 81 87 87 90 94 81 84 81 84 87 87 90 97 84 74 77 77
0 0 0 0 0 0 3 0 6 13 26 48 52 55 52 48 55 55 61 84 77 81 87 94 90 94 94 94 84 81 84 77 87 90 84 87 84 74 74 84 81 84 87 94 94 90 81 84 81
0 0 0 0 0 0 3 6 10 13 32 58 55 58 58 87 55 65 81 90 87 84 90 94 71 90 97 94 90 84 84 84 87 87 87 81 87 74 74 77 81 84 87 94 100 94 94 81 81
0 0 0 0 0 0 0 6 10 13 29 65 65 65 71 77 68 77 84 84 90 94 97 97 94 97 94 94 90 87 87 90 94 90 90 90 87 84 77 81 84 87 90 97 77 90 90 90 84
0 0 0 0 0 0 6 10 16 10 29 48 65 71 81 77 71 81 81 81 94 94 94 94 97 94 90 87 90 90 90 90 87 90 90 84 87 81 84 87 84 84 90 94 94 97 94 90 90
0 0 0 0 0 0 3 13 10 16 16 48 65 71 81 87 81 84 81 81 87 94 94 97 97 94 94 90 87 90 87 87 87 87 84 81 87 84 84 84 87 87 90 94 90 81 77 74 84
0 0 0 0 0 0 3 6 13 16 13 45 65 71 74 90 87 87 87 84 90 94 94 97 97 94 94 90 90 94 90 90 90 90 84 84 84 90 74 84 84 90 84 84 87 81 77 71 77
0 0 0 0 0 0 0 3 13 16 23 29 52 68 71 81 90 87 81 90 94 94 94 90 94 94 94 94 94 87 94 90 87 81 84 87 84 81 90 87 87 90 81 84 87 84 81 71 68
0 0 0 0 0 0 0 0 13 16 19 29 42 55 77 77 90 90 87 90 90 94 90 97 94 94 94 94 94 87 87 84 84 84 84 81 84 84 84 87 87 81 77 81 81 84 77 84 65
0 0 0 0 0 0 0 0 3 3 13 29 42 65 65 71 77 87 87 94 87 87 84 87 90 90 90 90 94 94 87 84 81 81 87 77 74 87 81 90 84 81 81 84 87 81 77 74 68
0 0 0 0 0 0 0 0 0 0 10 19 48 55 74 74 77 90 94 97 87 84 81 77 90 94 87 87 90 90 87 84 84 84 81 84 81 87 81 81 87 87 84 81 84 87 87 81 71
0 0 0 0 0 0 0 0 3 10 6 19 48 58 68 71 87 94 94 90 84 81 81 87 90 90 87 81 84 87 94 87 84 77 74 74 74 81 81 77 87 90 87 84 77 81 84 84 71
0 0 0 0 0 0 0 0 16 19 16 29 39 55 74 74 81 87 94 87 87 81 84 84 94 90 84 81 81 87 84 81 77 81 74 74 74 68 71 77 77 81 77 74 81 71 74 68 61
0 0 0 0 0 0 0 10 16 23 19 29 42 55 65 74 81 81 90 90 87 81 87 84 84 81 77 74 81 81 74 81 81 77 77 71 71 68 71 68 68 68 71 71 61 58 48 55 52
0 0 0 0 6 0 0 3 23 32 29 32 39 45 61 71 81 81 81 84 87 81 81 71 74 77 71 68 71 65 74 77 77 71 74 71 71 71 61 65 65 58 55 55 58 61 52 45 52
0 0 0 0 0 0 0 0 6 29 39 45 45 55 68 74 84 84 81 74 84 74 77 81 71 68 68 77 74 71 61 61 61 58 61 61 68 68 68 65 55 48 45 48 52 52 42 42 35
0 0 0 0 6 0 0 0 6 13 29 58 61 68 71 77 84 87 87 87 84 77 77 74 71 68 65 68 65 65 58 55 55 52 48 52 55 48 45 55 42 39 45 42 42 29 26 29 29

GEFSSGP_con_cape1000_180.txt.gz
Probability
6 0 3 16 10 0 0 0 0 0 0 0 0 0 0 0 0 3 10 32 58 71 94 100 100 100 100 100 100 100 100 100 100 100 100 100 97 97 97 94 94 94 94 94 94 94 87 87 94
0 0 13 16 3 0 0 0 0 0 0 3 0 3 6 16 19 19 32 45 61 65 77 94 100 100 100 100 100 100 100 100 100 100 100 100 97 97 94 94 94 94 90 94 94 90 87 87 90
0 3 6 6 0 0 0 0 0 0 0 3 3 0 6 19 23 13 32 48 58 68 84 100 100 100 100 100 100 100 100 100 100 100 100 97 97 94 94 94 94 90 90 94 87 87 87 87 84
3 0 0 0 0 0 0 0 0 3 6 6 3 6 13 29 35 29 39 48 58 71 97 100 100 100 100 100 100 100 100 100 100 100 100 97 97 94 94 94 94 90 87 87 84 84 87 84 87
3 0 0 0 0 0 0 0 0 10 19 13 10 6 19 42 35 39 42 45 55 77 97 100 100 100 100 100 100 100 100 100 100 100 100 97 97 94 94 94 94 87 90 87 90 87 81 81 81
0 0 0 0 0 0 0 6 10 10 16 13 10 6 16 42 48 42 42 39 58 74 97 100 100 100 100 100 100 100 100 100 100 100 97 97 97 94 97 94 90 90 87 87 87 74 71 77 81
0 0 0 0 0 0 3 6 10 6 10 10 10 6 13 32 45 45 39 45 55 77 90 94 97 100 100 100 100 100 100 100 100 100 100 100 97 94 97 94 90 84 81 77 77 61 61 71 74
0 0 0 0 0 0 0 3 10 10 3 6 6 3 13 26 39 42 39 45 45 61 87 94 87 87 97 100 100 100 100 100 100 100 100 100 97 90 87 90 94 77 74 71 68 58 58 61 68
0 0 0 0 0 0 0 10 10 6 6 13 10 6 13 32 45 39 29 32 42 45 55 71 74 71 74 87 94 97 97 97 97 97 100 100 77 81 81 84 81 77 74 68 68 58 52 52 58
0 0 0 0 0 0 3 3 3 6 6 10 10 6 19 42 42 35 32 32 35 39 42 48 55 55 58 74 84 81 84 87 74 71 74 45 32 45 81 90 87 74 71 68 74 65 52 39 23
0 0 0 0 0 0 0 3 3 10 13 10 10 13 26 29 32 42 35 35 42 42 42 35 35 48 45 45 52 58 61 61 55 45 42 29 26 29 45 52 65 58 61 26 29 42 26 16 16
0 0 0 0 0 3 0 0 6 10 13 13 10 16 10 13 23 26 32 19 19 29 35 35 35 35 23 39 45 52 52 45 39 42 29 13 13 16 13 23 23 19 10 10 6 10 10 6 6
0 0 0 0 0 0 0 3 13 16 16 16 16 19 13 10 13 23 19 16 13 23 29 35 42 35 32 32 48 48 39 39 32 39 26 6 10 13 6 3 3 6 10 3 6 6 6 6 3
0 0 0 0 0 0 6 3 19 16 13 13 23 23 13 13 13 19 26 23 32 35 35 39 45 39 35 35 39 39 29 32 29 19 29 10 6 3 10 10 10 10 6 10 10 3 6 3 3
0 0 0 0 0 0 3 10 26 19 10 16 26 23 26 23 23 23 29 29 32 39 45 42 52 55 52 45 26 29 32 23 23 19 16 16 19 13 10 13 10 10 10 6 6 6 0 0 3
0 0 0 0 0 0 0 10 19 19 13 23 23 26 35 35 26 19 32 32 39 42 45 52 58 52 48 45 39 45 39 19 19 16 13 26 19 16 10 10 6 10 6 6 3 3 0 0 0
0 0 0 0 0 0 3 10 16 16 29 19 26 23 29 35 32 29 32 42 45 42 42 45 48 42 45 52 48 42 35 23 16 13 13 19 23 26 16 10 6 10 3 3 3 3 0 0 0
0 0 0 0 0 3 3 16 19 16 23 23 23 26 35 35 35 32 42 48 48 48 45 45 39 42 42 48 52 48 35 32 19 19 16 16 19 23 19 6 16 10 6 6 6 3 3 3 0
0 0 0 0 0 3 3 13 26 19 29 29 32 29 42 42 39 35 48 65 61 65 52 48 42 45 48 55 52 42 42 32 23 23 19 13 19 16 16 13 10 6 6 10 10 6 6 6 3
0 0 0 0 0 3 6 10 16 26 26 35 32 29 32 32 39 48 48 58 71 61 61 58 45 58 55 58 48 42 35 32 19 26 26 19 16 19 19 13 6 6 6 6 6 6 6 6 3
0 0 0 0 0 3 3 6 6 13 26 32 29 42 42 35 48 52 52 58 65 68 58 58 58 52 52 52 48 42 26 35 32 23 19 23 19 19 23 16 6 6 6 10 3 6 6 6 6
0 0 0 0 0 0 3 0 6 13 29 32 39 45 42 45 55 45 48 58 68 68 71 55 52 58 48 45 45 39 32 26 26 16 16 6 16 23 19 13 16 13 13 10 10 6 6 3 3
0 0 0 0 0 0 0 0 0 10 23 26 35 39 52 48 58 55 52 61 65 61 61 48 52 55 55 45 42 32 23 26 19 6 13 10 13 13 13 13 13 13 13 13 13 13 6 6 3
0 0 0 0 0 0 0 0 0 3 16 29 39 45 52 45 58 52 61 68 71 61 52 61 61 52 48 42 35 35 23 19 23 13 6 6 10 10 16 16 10 10 13 13 13 10 6 3 3
0 0 0 0 0 0 0 0 0 0 6 26 42 45 55 58 61 61 58 61 65 58 61 55 55 58 45 42 42 35 29 23 19 16 10 13 10 13 13 16 6 6 6 6 6 6 10 6 6
0 0 0 0 0 0 0 0 0 6 10 29 42 45 61 52 58 58 61 58 55 52 61 58 55 55 55 42 39 35 29 26 19 16 16 13 13 13 6 10 6 10 10 13 6 6 10 10 10
0 0 0 0 0 0 0 6 13 19 26 29 39 55 61 68 61 58 58 55 45 48 52 55 52 52 48 45 32 26 29 26 23 23 23 16 10 10 10 10 6 6 10 13 10 6 6 10 6
0 0 0 0 0 0 3 3 10 13 26 26 39 52 65 58 61 58 52 45 45 42 48 48 45 45 48 35 35 35 32 26 23 23 16 16 16 13 13 13 13 13 13 19 10 6 10 6 6
0 0 0 0 0 0 0 3 6 10 26 29 35 48 55 65 61 55 52 45 45 48 42 35 39 39 35 35 32 35 39 29 26 19 19 13 16 13 10 10 13 13 10 10 10 6 6 6 0
0 0 0 0 0 0 0 0 3 13 35 35 39 65 65 61 61 61 48 48 45 45 35 35 32 35 32 32 32 26 26 19 19 19 19 16 16 13 13 13 13 10 13 6 6 0 6 3 6

GEFSSGP_con_cape1000_186.txt.gz
Probability
16 6 3 3 0 0 0 0 0 0 0 0 0 0 0 0 0 0 0 16 45 71 87 97 100 100 100 100 100 100 100 100 100 100 100 100 100 100 97 94 94 90 90 87 84 87 84 81 84
3 3 3 0 0 0 0 0 0 0 0 0 0 3 6 3 6 6 19 45 52 74 77 90 100 100 100 100 100 100 100 100 100 97 97 97 97 97 94 94 94 90 90 87 87 84 90 87 81
0 3 0 0 0 0 0 0 0 0 0 3 6 6 6 10 16 16 23 52 58 68 74 94 100 100 100 100 100 100 100 100 100 97 97 97 100 97 97 97 97 94 87 87 84 87 87 87 87
0 0 0 0 0 0 0 0 3 3 3 6 6 6 16 16 26 32 52 55 61 68 84 100 100 100 100 100 100 100 100 100 100 97 97 100 97 97 94 94 94 90 90 90 87 87 84 87 87
0 0 0 0 0 0 0 0 0 6 6 10 13 13 23 23 26 45 52 55 61 68 90 100 100 100 100 97 100 100 100 100 100 97 97 97 97 90 87 90 84 90 87 90 87 90 90 84 84
0 0 0 0 0 0 0 0 3 6 6 10 13 10 13 23 23 35 52 55 58 74 90 100 100 100 100 97 100 100 100 100 100 97 97 97 97 97 94 90 81 81 87 87 90 81 77 81 84
0 0 0 0 0 0 3 0 6 6 6 6 10 13 6 13 19 35 39 52 55 74 84 94 97 94 100 97 97 100 100 100 100 97 97 100 97 97 97 90 87 84 77 81 77 74 74 81 77
0 0 0 0 0 0 0 0 3 10 13 10 10 6 6 16 23 32 39 39 58 61 74 71 81 87 94 94 97 94 100 100 100 97 97 100 94 90 90 87 90 84 84 84 77 71 74 71 71
0 0 0 0 0 0 0 0 0 10 13 10 6 16 16 29 29 29 32 39 52 61 55 55 68 65 77 87 90 87 87 94 90 87 94 87 52 58 68 74 77 71 71 71 77 81 77 71 65
0 0 0 0 0 0 3 0 3 10 10 13 16 29 39 32 29 19 29 32 39 48 48 42 52 52 55 77 71 65 68 68 61 58 55 39 35 35 68 77 68 68 68 65 74 71 55 35 29
0 0 0 0 0 0 3 0 0 6 6 6 13 29 39 35 26 16 13 13 23 32 48 42 39 39 48 48 58 48 48 45 32 39 26 19 6 16 29 35 39 35 45 19 19 16 10 10 19
0 0 0 0 0 3 3 3 6 3 10 13 13 32 39 32 19 19 10 3 13 23 35 35 26 32 32 39 39 42 39 29 23 23 19 13 6 13 10 13 16 6 6 3 6 10 10 6 13
0 0 0 0 0 0 3 6 10 6 10 13 23 29 35 29 19 13 13 6 6 13 23 35 26 26 19 23 26 35 26 26 13 13 13 10 3 6 3 6 3 3 3 3 3 6 6 3 3
0 0 0 0 0 0 3 10 13 6 13 23 26 26 32 32 19 16 13 10 10 16 23 29 26 13 10 19 19 23 26 16 16 10 13 13 3 0 3 3 0 3 3 6 10 3 6 3 3
0 0 0 0 0 0 3 13 13 10 13 29 29 29 32 19 23 26 26 13 13 23 23 23 19 13 6 10 19 23 16 16 16 13 10 13 6 3 3 3 3 3 3 3 0 3 3 3 3
0 0 0 0 0 0 0 3 13 13 10 19 16 23 26 19 19 16 13 13 13 19 16 16 29 16 16 13 10 19 10 10 10 10 6 10 10 6 3 3 3 3 3 3 0 0 3 3 3
0 0 0 0 0 0 0 3 10 10 13 13 16 13 13 10 13 10 16 10 10 10 16 13 23 19 13 10 13 13 16 6 6 3 3 10 13 6 6 3 6 3 3 3 3 0 3 3 3
0 0 0 0 0 0 3 3 10 10 10 10 19 23 16 13 16 16 19 16 13 13 13 16 16 10 13 13 10 16 13 10 3 3 3 0 10 13 6 0 3 3 3 3 3 3 3 3 3
0 0 0 0 0 0 3 3 10 10 10 10 16 19 19 16 10 13 19 23 26 16 13 13 16 10 16 13 13 13 13 10 6 3 3 6 6 13 6 10 3 6 3 3 0 3 6 3 3
0 0 0 0 3 3 6 6 10 16 13 6 10 16 19 16 13 19 26 29 23 23 16 16 19 13 10 16 10 10 6 6 6 10 10 6 6 13 13 3 3 3 3 3 3 0 0 0 0
0 0 0 0 3 3 6 10 3 10 13 16 10 23 26 23 16 23 26 32 23 26 26 23 16 10 6 10 16 13 10 10 10 6 6 3 3 6 10 6 3 3 3 3 3 3 3 3 3
0 0 0 0 0 0 0 0 0 3 10 16 16 16 23 23 23 19 23 26 32 29 29 19 6 6 10 6 13 19 13 13 13 6 6 3 3 0 3 3 0 3 3 3 3 3 3 3 3
0 0 0 0 0 0 0 0 0 3 16 19 13 19 26 23 26 23 23 29 35 35 26 13 6 10 13 13 16 13 10 13 10 3 6 3 3 3 3 3 3 0 0 3 3 3 3 3 3
0 0 0 0 0 0 0 0 0 0 10 16 19 32 35 29 29 32 35 32 35 29 19 19 13 6 10 10 13 10 13 10 3 3 3 3 0 0 0 0 0 0 0 0 3 3 3 3 3
0 0 0 0 0 0 0 0 0 0 0 10 29 32 42 35 32 39 39 35 39 32 29 29 16 13 16 13 16 13 10 6 6 6 0 0 0 0 0 3 0 0 0 3 3 3 3 3 3
0 0 0 0 0 0 0 0 0 13 23 26 29 26 35 35 32 39 45 42 39 35 35 32 32 23 16 16 13 13 10 6 3 3 3 0 0 0 0 3 3 3 3 3 3 3 3 3 3
0 0 0 0 0 0 0 0 6 19 26 23 29 39 39 35 35 39 35 39 39 39 35 39 29 23 16 13 23 13 10 6 10 6 6 3 3 3 6 6 6 3 3 3 0 0 0 0 0
0 0 0 0 0 0 0 0 0 19 26 29 32 42 42 42 39 35 35 32 35 35 32 32 26 19 10 16 16 19 13 13 13 13 10 10 6 3 13 13 6 3 3 3 0 0 0 0 0
0 0 0 0 0 0 0 0 0 10 19 29 39 42 48 48 52 39 35 32 29 29 23 32 23 19 19 13 16 19 13 13 10 10 13 16 16 13 10 6 6 3 0 0 0 0 0 0 0
0 0 0 0 0 0 0 0 0 3 23 32 42 48 48 48 42 39 32 32 32 29 23 19 23 16 16 16 13 10 13 10 10 13 13 13 10 6 6 3 0 3 3 0 0 0 0 0 0

GEFSSGP_con_cape1000_192.txt.gz
Probability
13 39 48 35 13 0 0 0 0 0 0 0 0 0 0 0 0 10 3 3 13 16 42 71 97 100 100 100 100 100 100 100 100 100 100 100 97 94 94 94 94 81 81 74 77 77 77 74 74
19 23 32 13 0 0 0 0 0 0 0 0 0 0 3 6 6 10 16 13 16 26 45 74 97 100 100 100 100 100 100 100 100 100 100 100 97 94 94 94 94 94 84 84 84 84 77 74 77
13 19 10 0 0 0 0 0 0 0 6 3 0 6 6 10 6 19 23 23 19 35 68 97 97 97 97 97 97 97 100 100 100 100 100 100 100 97 97 97 94 94 90 90 90 81 81 77 81
16 10 0 0 0 0 0 0 0 0 0 0 3 3 10 10 10 29 23 19 29 48 48 97 97 97 97 97 97 97 100 100 100 100 100 100 100 97 97 97 97 97 97 97 90 81 81 87 87
6 0 0 0 0 0 0 0 0 0 0 0 3 3 23 39 19 26 23 23 35 52 52 74 97 97 97 97 97 97 100 100 100 100 97 100 97 97 97 97 94 94 94 90 87 87 81 81 81
3 0 0 0 0 0 0 0 0 10 3 3 3 3 23 39 29 32 19 19 26 29 48 71 94 94 97 97 97 97 100 100 100 97 94 94 94 97 94 90 84 84 84 74 74 68 68 74 74
0 0 0 0 0 0 0 0 0 3 3 3 0 3 10 29 29 32 35 29 26 26 45 55 68 90 90 90 90 100 100 97 97 94 90 94 97 100 90 87 90 84 81 65 71 71 74 74 68
3 0 0 0 0 0 0 0 3 3 3 3 3 3 10 29 32 39 35 32 26 26 35 42 45 61 81 87 87 90 90 94 94 87 90 90 87 81 74 87 90 81 68 68 68 65 65 61 61
0 0 0 0 0 0 0 0 6 6 3 3 6 6 13 32 35 39 35 35 29 32 32 26 32 55 52 58 77 84 87 87 87 81 68 65 61 58 55 61 87 71 74 55 58 58 42 55 68
0 0 0 0 0 0 3 0 3 3 3 6 10 13 23 29 29 29 23 32 39 35 29 35 42 52 45 35 77 81 58 87 81 74 58 58 71 68 45 61 68 58 58 52 48 48 35 39 45
0 0 0 0 0 0 0 3 0 3 0 6 19 32 32 35 39 26 26 23 32 35 23 29 39 65 52 61 65 68 68 65 61 68 55 68 65 58 48 55 61 58 45 42 48 52 45 26 39
0 0 0 0 3 3 3 6 3 3 0 3 19 29 39 35 26 29 26 26 32 42 35 29 42 61 77 71 65 65 61 61 55 65 68 55 55 48 42 52 52 52 55 55 39 45 42 39 29
0 0 0 6 6 6 6 10 3 13 13 19 32 26 32 35 35 29 32 39 39 45 35 48 71 74 77 90 74 58 61 58 58 68 68 61 48 39 42 48 55 39 42 42 45 32 32 32 35
0 3 6 10 6 3 6 13 6 16 23 26 32 42 35 39 45 42 42 45 45 45 52 65 74 81 77 77 87 71 65 81 55 45 58 65 52 42 42 45 52 48 45 48 55 29 35 32 32
3 6 6 10 6 3 6 10 10 23 29 29 29 45 52 55 55 58 58 58 52 58 61 74 68 81 74 68 71 65 58 52 45 52 61 65 58 58 52 45 48 48 42 45 55 39 29 32 29
0 0 0 6 3 6 6 3 13 26 35 32 35 45 61 71 68 61 61 55 61 61 77 81 55 71 81 81 77 74 71 58 52 52 58 58 61 58 74 55 45 58 48 52 61 42 39 35 32
0 0 0 3 6 3 3 6 16 29 32 45 48 45 58 74 65 61 65 68 68 77 84 84 77 84 77 81 84 74 87 74 65 58 58 61 68 68 61 58 68 65 52 55 45 45 42 42 48
0 0 0 0 6 0 3 10 16 23 29 35 48 48 52 65 65 65 68 68 77 87 90 87 84 81 81 81 81 77 77 74 68 68 61 58 68 65 58 55 61 48 52 55 55 65 68 68 65
0 0 0 0 3 3 3 10 16 29 35 35 39 42 58 65 55 65 74 65 77 87 94 90 84 81 87 74 77 77 71 77 74 65 65 61 61 61 74 42 58 58 55 55 45 52 55 52 61
0 0 0 0 6 10 10 13 23 35 42 42 48 52 65 58 61 77 77 74 77 87 90 90 90 87 90 77 90 74 71 71 71 74 77 68 58 52 39 65 68 58 74 77 65 71 65 45 45
0 0 0 0 6 13 13 13 26 35 52 52 52 55 61 65 65 77 81 77 81 87 90 94 90 94 90 87 77 77 84 77 65 71 71 68 65 52 65 61 52 71 61 61 68 71 65 55 55
0 0 0 0 0 0 3 0 23 32 42 61 68 65 61 68 65 74 84 84 84 90 90 94 94 94 90 87 84 74 77 74 71 74 68 65 71 58 55 65 61 58 61 74 68 58 58 61 61
0 0 0 0 0 0 3 0 3 23 26 45 61 68 55 68 68 77 81 87 81 77 87 90 94 94 87 87 87 81 77 77 71 68 68 68 65 61 58 61 61 55 61 71 77 71 61 58 65
0 0 0 0 0 0 0 0 0 3 23 32 48 65 74 74 71 81 77 84 81 81 77 81 81 81 84 84 81 81 77 74 71 68 61 52 65 68 52 52 61 61 68 74 68 65 65 74 74
0 0 0 0 0 0 0 0 0 6 19 32 39 58 71 81 74 84 84 87 84 77 77 74 84 77 77 77 77 81 77 77 77 68 58 58 48 45 65 52 58 58 65 68 74 68 68 61 71
0 0 0 0 0 0 0 0 0 16 26 35 39 55 61 77 87 90 87 90 87 81 81 77 77 77 77 81 81 77 71 74 61 61 58 58 58 45 52 52 52 52 52 48 61 65 65 68 68
0 0 0 0 0 0 0 0 3 26 39 42 42 58 58 74 84 87 87 81 84 81 77 74 74 77 77 77 77 77 71 68 61 68 68 61 55 48 45 45 48 52 45 45 48 65 65 65 58
0 0 0 0 0 0 0 0 0 16 35 52 45 58 61 77 77 77 77 77 81 81 77 71 71 77 77 77 71 65 68 68 61 52 45 52 55 48 45 42 39 39 42 39 45 39 42 35 35
0 0 0 0 0 0 0 0 0 16 29 52 58 58 68 81 87 77 77 84 81 81 74 71 71 77 77 68 68 68 65 65 61 48 45 48 48 42 35 32 35 32 32 29 35 35 32 29 32
0 0 0 0 0 0 0 0 6 23 29 48 52 65 74 90 94 87 81 84 81 74 74 74 74 71 71 68 61 65 61 55 55 42 42 35 35 39 35 29 29 26 26 23 23 23 26 29 29

GEFSSGP_con_cape1000_198.txt.gz
Probability
10 26 55 65 61 29 0 0 0 0 0 0 0 6 6 13 10 3 6 13 32 39 65 94 97 100 100 100 100 100 100 100 100 100 100 97 94 90 94 84 84 84 84 84 84 81 77 77 74
10 35 45 48 23 0 0 0 0 0 0 0 0 6 6 6 3 3 10 19 42 45 65 94 97 97 97 97 100 100 97 100 100 100 97 97 94 90 94 87 84 84 84 84 81 81 81 84 71
26 42 39 23 0 0 0 0 0 0 0 0 3 6 6 6 6 16 19 26 65 74 90 97 97 97 97 97 97 97 97 100 100 97 97 97 97 97 94 94 90 87 84 81 81 84 84 77 71
39 32 23 3 0 0 0 0 0 0 0 0 6 6 6 6 10 19 16 35 61 71 71 97 97 97 97 97 97 97 97 100 100 100 100 100 97 97 97 90 90 87 90 74 77 77 81 77 68
29 19 0 0 0 0 0 0 0 0 3 3 6 6 13 16 16 23 26 26 52 55 58 77 94 94 94 97 97 97 97 100 100 100 100 100 90 90 87 87 87 84 84 84 84 81 74 65 58
13 6 0 0 0 0 0 0 0 0 0 3 6 10 10 13 19 16 26 29 42 55 58 87 94 90 90 94 97 97 100 100 97 100 97 94 87 87 90 90 87 81 77 71 71 77 68 52 45
0 0 0 0 0 0 0 0 0 0 0 0 3 3 6 10 23 26 26 29 39 48 71 81 81 90 94 94 94 90 100 97 90 84 81 84 84 90 90 90 87 77 77 71 65 68 58 35 32
0 0 0 0 0 0 0 0 0 0 0 0 0 3 13 13 19 26 26 26 39 45 48 74 74 87 81 84 90 87 90 87 87 77 84 81 81 90 97 81 84 74 68 61 55 58 39 32 29
0 0 0 0 0 0 0 0 0 0 0 0 3 6 13 13 19 23 23 32 42 42 52 48 61 84 81 65 77 87 87 81 77 81 74 84 84 61 68 55 74 68 55 52 52 45 45 42 39
0 0 0 0 0 0 0 0 0 3 0 3 6 13 16 19 23 19 23 35 42 48 42 55 58 81 74 48 87 90 74 87 84 81 87 90 97 81 45 81 74 65 58 52 55 58 61 58 42
0 0 0 0 0 0 0 0 0 0 0 3 6 6 13 23 23 26 26 39 35 42 45 52 65 77 77 87 81 77 84 90 81 65 77 84 81 77 68 68 68 71 65 58 61 65 45 45 45
0 0 0 0 0 0 0 0 0 0 3 3 10 13 13 16 19 19 29 39 42 42 52 55 65 87 94 94 90 90 74 87 74 74 81 81 87 84 84 90 90 90 81 84 61 65 61 45 48
0 0 0 0 0 0 0 0 0 0 0 3 13 16 16 19 16 26 35 48 61 58 55 77 90 94 90 97 97 84 90 77 77 84 77 81 81 84 77 87 94 84 84 81 87 84 68 55 58
0 0 0 0 0 0 3 3 0 0 0 0 13 13 16 29 32 35 39 55 61 65 68 77 77 94 94 94 97 97 94 94 87 90 77 77 87 84 81 77 81 84 81 81 84 84 84 71 74
0 0 0 0 0 0 0 3 0 0 0 13 13 19 19 26 42 45 48 55 61 61 81 90 84 94 97 97 97 90 94 77 84 81 77 65 74 71 81 87 90 87 90 90 90 94 87 81 68
0 0 0 0 0 0 0 3 6 3 3 16 16 19 39 55 45 45 48 58 68 74 90 87 61 90 97 97 97 97 94 87 81 84 77 77 81 81 87 84 90 87 90 90 90 90 90 94 87
0 0 0 0 0 0 3 6 10 3 3 13 19 26 39 55 45 55 55 58 74 90 94 90 90 94 94 94 97 97 100 97 87 84 87 81 77 71 81 87 87 81 84 94 61 81 87 81 81
0 0 0 0 0 0 0 10 10 10 3 26 23 35 45 65 65 68 61 61 81 90 94 94 94 97 94 94 97 97 90 94 97 90 87 81 77 74 81 81 81 77 84 97 94 87 84 81 84
0 0 0 0 0 0 3 10 6 19 19 26 35 42 52 58 68 68 68 65 71 90 94 97 97 94 94 97 97 94 97 97 90 87 84 84 84 84 81 77 77 84 87 90 94 84 81 81 84
0 0 0 0 0 0 0 10 16 13 23 29 42 52 65 61 77 81 84 77 81 94 97 97 97 97 97 97 97 97 97 97 90 90 87 74 77 87 65 81 87 87 94 87 81 87 81 81 81
0 0 0 0 0 0 0 0 16 29 19 23 39 52 65 61 74 81 84 87 84 94 97 97 97 97 97 97 94 97 97 94 90 90 90 87 81 81 81 71 84 87 81 81 81 81 81 77 77
0 0 0 0 0 0 0 0 13 32 32 39 35 42 61 65 68 74 81 90 94 97 94 97 97 94 94 90 94 94 97 90 90 90 87 87 84 84 77 81 84 84 81 81 77 81 84 77 77
0 0 0 0 0 0 0 0 16 23 29 39 35 32 48 68 68 84 84 94 90 94 94 94 97 94 90 90 90 90 94 90 84 90 90 87 84 84 77 77 84 87 81 77 77 77 74 74 74
0 0 0 0 0 0 0 0 10 13 26 23 29 48 65 58 68 87 81 87 84 87 94 94 94 90 87 87 87 87 87 84 84 81 87 81 84 77 74 71 77 77 74 71 74 77 81 74 74
0 0 0 0 0 0 0 0 6 6 13 16 29 42 58 65 68 84 87 87 87 90 90 90 90 87 87 84 81 87 94 87 84 81 71 74 71 74 74 71 71 74 77 77 74 77 71 68 61
0 0 0 0 0 0 0 0 10 6 6 13 29 48 52 61 71 84 90 90 87 87 90 84 84 81 77 74 74 74 81 84 81 74 71 74 71 74 71 68 65 68 74 71 65 65 61 58 55
0 0 0 0 0 0 0 3 13 13 16 23 29 45 48 61 74 84 90 87 87 81 87 81 81 84 81 77 74 74 74 74 71 74 74 68 68 65 61 61 61 55 58 58 52 45 45 48 42
0 0 0 0 0 0 0 3 10 23 26 29 29 45 48 61 71 74 81 84 84 84 87 77 84 84 84 77 71 68 68 65 68 68 71 65 68 65 58 48 45 45 45 45 48 39 35 39 32
0 0 0 0 0 0 0 0 10 26 35 32 35 45 55 61 65 71 81 81 81 84 84 84 84 81 81 74 68 65 65 61 65 65 61 58 55 58 48 42 39 35 35 32 39 29 29 26 26
0 0 0 0 6 0 0 0 3 13 26 29 42 52 71 65 61 77 81 77 81 77 77 81 81 81 77 71 68 65 61 65 61 55 55 55 48 42 39 35 35 35 29 29 26 23 19 16 16

GEFSSGP_con_cape1000_204.txt.gz
Probability
23 13 23 35 16 0 0 0 0 3 3 0 0 0 0 0 0 3 3 13 58 74 87 100 100 100 100 100 100 100 100 100 97 94 94 94 94 94 90 87 84 81 74 81 81 74 77 71 74
3 6 26 29 0 0 0 0 0 3 3 0 0 0 6 3 16 16 10 26 55 65 74 94 100 100 100 100 100 100 100 97 97 94 90 97 94 90 90 90 94 84 84 81 77 74 77 81 71
3 10 26 16 0 0 0 0 3 6 3 3 6 6 10 10 16 13 13 35 52 71 90 94 100 100 100 100 100 100 97 97 97 97 97 94 90 94 90 87 87 87 87 87 84 81 77 74 77
3 16 10 0 0 0 0 0 0 3 3 6 6 10 10 13 26 35 35 39 48 71 87 97 97 100 100 100 100 97 97 97 97 97 97 97 87 87 90 87 84 87 87 87 84 74 71 74 68
3 13 0 0 0 0 0 0 0 3 6 6 6 10 6 13 29 32 35 35 45 65 84 94 97 97 100 100 97 97 97 97 97 94 94 90 90 87 81 87 84 87 84 90 74 74 71 61 58
3 0 0 0 0 0 0 0 0 6 6 6 10 10 10 6 29 35 26 35 45 61 84 90 97 97 97 94 94 97 94 94 94 94 94 90 87 87 87 81 81 81 68 71 68 61 58 58 65
0 0 0 0 0 0 0 0 0 6 6 10 6 6 10 13 13 23 26 35 45 58 77 81 94 94 97 94 90 90 94 94 94 97 94 90 84 84 87 90 77 71 61 58 58 52 45 58 61
0 0 0 0 0 0 0 0 0 0 3 3 6 6 13 16 16 19 16 26 45 52 65 61 65 74 81 87 94 94 94 90 90 90 94 87 87 84 77 97 77 71 58 42 39 42 45 45 58
0 0 0 0 0 0 0 0 0 3 3 3 3 6 13 19 19 16 6 13 29 39 42 48 55 58 58 65 87 90 90 94 84 81 84 77 29 35 55 68 84 65 42 35 45 42 39 48 58
0 0 0 0 0 0 3 3 0 3 3 3 6 10 13 16 16 16 10 13 23 19 26 42 45 42 48 58 58 58 61 48 45 29 39 26 16 16 29 71 74 58 48 55 52 58 52 32 6
0 0 0 0 0 0 0 3 3 0 3 3 3 10 10 19 16 16 10 10 6 19 32 29 32 42 29 32 39 35 32 29 23 32 23 16 16 10 10 13 35 29 35 16 26 23 16 3 0
0 0 0 0 0 0 0 0 3 3 3 3 3 6 13 13 10 6 6 6 3 13 19 26 29 19 23 26 23 23 26 29 23 29 13 6 6 3 6 3 6 3 3 3 6 3 6 0 0
0 0 0 0 0 0 0 0 3 6 3 3 6 6 13 13 6 10 10 10 13 16 16 35 35 32 32 32 26 29 23 19 19 29 19 13 3 3 3 3 0 0 0 0 3 3 0 0 0
0 0 0 0 0 0 0 3 3 3 3 3 6 6 16 16 10 6 13 16 23 23 32 39 42 32 35 32 26 23 19 23 16 16 26 13 6 3 3 3 0 0 0 0 0 0 0 0 0
0 0 0 0 0 0 0 0 3 3 6 3 6 16 16 16 13 13 16 16 16 29 39 39 39 42 39 29 29 26 19 19 19 10 23 19 6 6 3 0 0 0 3 3 3 0 0 0 0
0 0 0 0 0 0 0 0 0 0 3 3 13 16 13 16 13 16 16 13 16 29 42 45 52 52 35 35 29 26 19 10 16 10 16 19 16 6 3 3 0 0 3 3 3 3 0 0 0
0 0 0 0 0 0 0 0 0 3 3 3 13 13 10 10 13 13 19 23 26 32 39 45 45 45 39 45 32 23 23 16 10 10 10 10 16 13 0 3 0 3 0 0 0 0 0 0 0
0 0 0 0 0 0 3 0 0 0 6 10 16 13 16 13 19 23 35 35 39 39 35 42 45 45 42 29 26 26 29 26 16 16 13 10 13 10 0 6 3 3 0 3 3 3 3 3 3
0 0 0 0 0 0 3 0 0 0 0 10 16 13 23 23 23 26 39 42 45 48 42 42 39 42 42 42 32 32 26 29 23 13 16 13 10 13 10 6 10 6 6 6 6 10 10 0 3
0 0 0 0 0 0 3 3 0 0 3 6 19 16 26 29 29 32 42 52 48 48 45 39 39 45 42 39 35 39 39 29 32 23 16 19 10 6 19 6 10 13 6 10 3 3 10 0 0
0 0 0 0 0 0 3 3 6 3 3 6 10 16 23 19 29 39 48 48 55 55 45 55 48 45 42 42 45 39 39 35 23 19 16 16 10 6 10 10 10 10 6 6 6 6 6 0 0
0 0 0 0 0 0 0 3 6 6 3 10 16 19 16 23 32 42 45 52 58 55 48 45 52 52 45 39 39 39 29 29 19 16 16 23 19 10 10 10 10 10 3 10 13 13 3 3 3
0 0 0 0 0 0 0 0 3 6 13 13 16 26 29 29 39 42 52 55 61 55 61 52 58 45 48 39 39 32 29 19 19 23 19 13 10 10 16 13 10 10 10 16 16 13 6 3 0
0 0 0 0 0 0 0 0 3 6 13 16 19 32 35 35 39 55 58 58 65 68 68 61 58 48 52 52 35 32 29 26 23 29 19 16 16 19 23 16 16 6 23 13 16 16 10 3 0
0 0 0 0 0 0 0 0 0 3 10 16 39 42 45 45 58 55 58 65 68 58 58 55 58 55 52 48 45 42 35 29 29 32 26 19 23 23 23 26 19 19 16 13 6 10 10 10 3
0 0 0 0 0 0 0 0 3 6 10 16 32 42 48 48 52 55 55 58 58 58 58 55 58 58 58 52 45 42 42 32 26 26 32 26 23 32 26 23 29 29 26 16 13 13 10 10 6
0 0 0 0 0 0 0 3 6 16 19 29 42 39 48 45 48 61 58 58 58 58 58 55 58 58 58 48 45 45 42 39 35 32 32 29 23 29 26 26 26 19 19 16 16 13 13 10 10
0 0 0 0 0 0 0 3 6 16 26 35 39 45 48 42 45 58 55 55 58 61 55 55 58 58 52 48 45 45 42 35 32 32 29 26 26 26 26 19 16 16 16 16 16 16 16 13 6
0 0 0 0 0 0 0 0 3 10 26 39 39 42 52 42 45 48 52 55 58 61 52 55 58 48 48 42 45 39 35 35 32 32 29 26 26 26 23 23 10 10 13 16 10 10 6 3 3
0 0 0 0 0 0 0 0 0 10 29 39 48 48 52 45 48 45 55 55 52 55 58 55 52 48 52 48 45 42 39 35 29 26 26 26 19 13 13 13 10 10 10 13 10 10 6 3 3

GEFSSGP_con_cape1000_210.txt.gz
Probability
48 26 3 3 0 0 0 0 3 3 0 0 0 0 0 0 0 0 0 10 32 55 77 81 97 97 94 97 90 90 90 90 90 87 84 84 87 81 84 81 77 77 77 77 74 71 74 71 71
19 13 10 0 0 0 0 0 3 0 0 0 0 3 3 10 6 6 13 32 42 55 65 81 97 97 94 97 94 90 90 87 87 90 84 90 87 81 77 81 81 81 77 77 74 74 74 77 68
10 13 6 0 0 0 0 3 0 0 0 3 6 6 3 10 13 10 13 42 42 58 68 77 97 94 94 97 97 94 94 94 87 90 90 90 84 84 74 74 77 90 84 74 77 71 65 65 71
10 3 0 0 0 0 0 3 3 3 3 3 3 6 10 16 16 10 26 45 45 61 74 84 97 90 94 94 97 94 90 90 87 84 84 87 84 87 81 81 81 81 81 81 81 84 74 77 71
3 0 0 0 0 0 0 3 3 3 3 3 3 6 13 19 23 19 29 45 39 55 65 87 90 87 90 90 90 94 94 90 90 87 84 87 87 84 81 81 81 84 77 74 77 81 71 68 68
0 0 0 0 0 0 0 3 3 3 3 3 3 3 10 23 13 23 26 32 48 61 71 87 90 87 87 87 87 87 87 90 90 90 90 84 81 81 74 71 77 81 71 74 74 68 61 65 68
0 0 0 0 0 0 0 0 3 3 3 6 3 6 10 19 19 19 19 32 55 58 68 65 81 77 84 87 87 90 87 90 87 87 87 71 71 71 61 68 61 52 68 71 55 55 68 58 61
0 0 0 0 0 0 0 0 3 3 6 6 3 3 10 13 23 13 16 26 42 42 45 58 55 65 68 74 90 90 87 87 87 77 81 74 71 58 65 74 65 55 52 55 52 45 55 58 61
0 0 0 0 0 0 0 0 3 3 3 6 6 3 3 19 19 13 16 19 32 39 32 32 32 45 58 68 71 68 77 77 71 55 68 52 16 16 23 55 65 52 48 52 39 45 52 42 48
0 0 0 0 0 0 0 0 3 3 3 6 6 3 19 23 16 13 10 10 26 23 19 19 26 26 39 58 48 48 52 42 23 13 13 10 10 13 29 45 52 42 52 45 52 55 45 16 13
0 0 0 0 0 0 0 0 0 0 0 6 3 3 19 13 13 13 13 3 6 13 26 19 19 19 19 26 32 23 16 16 16 10 10 6 3 3 6 10 13 6 13 13 13 16 3 6 3
0 0 0 0 0 0 0 0 0 0 0 3 6 3 13 10 13 10 6 3 3 6 16 13 16 16 16 13 16 16 10 10 6 6 6 0 0 3 3 3 3 3 0 3 3 3 3 0 0
0 0 0 0 0 0 0 0 0 0 3 6 6 6 10 10 10 6 0 0 0 3 10 10 13 16 3 6 13 13 6 10 3 3 3 0 0 0 0 0 0 0 0 3 3 3 3 0 0
0 0 0 0 0 0 0 0 0 0 3 6 10 10 10 10 10 6 0 0 0 0 3 6 10 6 6 6 6 10 10 3 3 0 3 3 0 0 0 0 0 0 0 0 3 3 0 0 0
0 0 0 0 0 0 0 0 0 0 3 3 6 6 3 3 3 0 0 0 0 0 3 3 3 6 6 6 6 6 3 3 6 6 3 3 0 0 0 0 0 0 0 3 3 3 3 3 0
0 0 0 0 0 0 0 0 0 0 0 3 6 10 3 3 3 0 0 0 0 0 0 3 16 13 6 6 6 6 3 6 6 6 3 3 3 0 0 0 0 0 0 0 0 0 0 0 0
0 0 0 0 0 0 0 0 0 0 0 0 6 6 3 3 6 10 10 10 3 0 0 6 10 6 6 3 10 10 3 3 3 3 3 10 0 0 0 0 0 0 0 0 0 0 0 3 0
0 0 0 0 0 0 0 0 0 0 0 0 3 6 3 10 6 6 10 10 10 10 3 6 6 10 3 3 10 6 6 3 3 3 3 3 3 3 0 3 0 0 3 0 0 0 0 3 0
0 0 0 0 0 0 0 0 0 0 0 0 3 6 10 10 6 10 10 16 16 10 10 6 10 3 3 6 10 10 6 3 6 0 3 3 0 3 0 0 0 0 3 3 6 6 0 0 0
0 0 0 0 0 0 0 3 3 3 0 0 0 10 10 10 10 10 13 13 16 13 13 13 10 10 6 6 3 3 6 10 3 3 6 6 0 0 3 0 0 3 3 6 3 0 0 0 0
0 0 0 0 0 0 0 0 3 3 3 3 3 13 10 10 10 10 13 13 19 13 16 23 10 10 6 3 10 6 6 3 6 10 6 6 3 0 0 0 0 0 6 6 0 3 0 0 0
0 0 0 0 0 0 0 0 0 3 3 3 3 13 10 10 10 13 16 19 16 19 19 19 19 16 6 10 13 16 19 19 13 10 6 3 3 6 6 0 0 0 3 6 10 0 0 0 0
0 0 0 0 0 0 0 0 0 3 3 3 6 16 13 13 10 16 16 23 19 23 23 19 19 16 13 13 16 10 13 6 3 0 6 3 0 3 10 3 0 3 0 3 0 0 0 0 0
0 0 0 0 0 0 0 0 0 3 3 6 10 16 16 16 16 16 19 23 23 23 23 19 16 13 10 10 13 13 13 6 3 10 6 3 0 0 6 6 3 3 0 0 0 0 0 3 3
0 0 0 0 0 0 0 0 0 0 6 6 10 16 16 19 19 16 23 23 29 23 19 16 19 10 10 10 13 16 10 10 13 10 6 3 3 0 0 13 6 3 0 0 3 3 6 6 6
0 0 0 0 0 0 0 0 0 6 6 6 10 23 16 19 16 16 16 13 29 32 26 23 16 10 16 10 13 13 13 10 10 10 3 3 6 10 10 10 6 6 6 3 3 6 10 10 10
0 0 0 0 0 0 0 0 3 6 6 13 23 26 19 19 26 16 19 19 32 29 29 29 23 26 16 19 16 16 6 13 13 10 6 6 13 10 13 10 10 10 10 10 6 6 10 10 6
0 0 0 0 0 0 0 0 3 6 16 16 26 29 23 26 23 23 23 26 23 32 32 35 29 26 23 26 23 16 13 13 16 16 23 23 23 19 16 13 13 13 13 10 10 10 6 6 3
0 0 0 0 0 0 0 0 0 6 10 19 23 29 26 29 35 26 19 23 26 32 39 45 39 29 23 23 16 23 19 19 19 23 23 23 19 16 13 13 13 13 13 10 3 3 3 3 3
0 0 0 0 0 0 0 0 0 6 13 19 19 29 26 26 29 29 29 26 26 32 45 48 42 29 23 23 19 26 26 26 23 23 26 19 13 10 10 10 6 6 3 3 6 6 6 6 6

GEFSSGP_con_cape1000_216.txt.gz
Probability
48 45 58 48 10 0 0 0 0 0 0 6 3 0 0 0 0 0 0 0 3 10 26 61 87 87 87 84 81 81 81 81 81 74 74 81 84 77 84 77 74 77 74 71 71 74 71 68 68
39 52 45 16 0 0 0 0 0 0 0 3 3 0 0 0 0 3 3 3 6 10 29 39 90 90 87 87 87 84 87 87 87 81 77 77 77 74 77 71 74 74 77 74 74 71 71 68 74
39 42 19 0 0 0 0 0 0 0 0 0 0 0 0 0 3 10 6 6 16 29 35 71 87 90 90 94 90 94 90 90 84 87 77 77 74 74 74 74 71 74 71 65 61 68 68 68 77
32 16 0 0 0 0 0 0 0 0 0 0 0 3 6 6 6 10 10 6 13 26 39 61 87 87 90 94 90 94 94 90 90 90 77 74 74 74 68 71 71 68 58 58 61 65 68 77 74
19 0 0 0 0 0 0 0 0 0 0 0 0 3 10 13 6 10 10 10 16 29 39 45 87 87 87 87 90 87 87 87 84 74 74 74 71 65 65 65 68 61 58 61 55 61 68 58 68
3 0 0 0 0 0 0 0 0 0 3 3 0 3 10 13 13 10 10 6 19 29 39 65 84 87 87 94 84 81 81 84 84 77 77 77 71 65 68 68 65 61 61 55 52 65 61 55 68
0 0 0 0 0 0 0 0 0 0 0 0 0 3 13 16 13 6 13 19 23 23 32 39 48 61 81 84 84 84 84 74 74 71 65 61 58 55 65 61 68 61 61 58 58 55 52 55 52
0 0 0 0 0 0 0 0 0 0 3 3 3 3 10 23 10 10 13 16 19 19 19 39 32 48 52 55 74 77 77 74 71 68 58 55 55 55 45 55 71 55 61 52 45 48 52 42 35
0 0 0 0 0 0 0 0 0 0 3 3 3 0 10 19 6 10 10 16 19 16 23 23 32 42 35 29 39 58 68 58 65 58 58 45 26 19 32 35 58 45 42 39 39 35 42 45 32
0 0 0 0 0 0 0 0 0 0 0 3 3 6 16 16 13 16 10 13 19 19 32 35 35 39 39 26 39 45 39 55 61 55 42 32 45 48 16 35 52 48 39 48 52 48 35 26 16
0 0 0 0 0 0 0 0 0 0 0 0 0 3 19 16 19 19 16 16 16 19 19 29 45 52 35 42 35 42 42 61 45 45 48 55 26 23 29 35 45 48 26 26 29 32 10 16 23
0 0 0 0 0 0 0 0 0 0 0 0 0 3 13 23 23 19 16 13 19 23 29 23 35 58 74 55 42 45 39 42 45 55 42 48 39 32 35 48 35 35 42 39 29 42 23 26 13
0 0 0 0 0 0 0 0 0 0 0 0 6 13 6 10 16 16 13 19 39 42 39 42 58 68 71 74 71 58 48 45 58 68 55 61 35 48 39 52 52 35 35 32 35 32 32 29 19
0 0 0 0 0 0 0 0 0 0 3 3 6 13 10 13 16 26 23 39 48 48 42 52 61 65 74 84 84 71 55 81 45 61 61 55 48 58 48 48 58 39 32 29 35 35 35 23 19
0 0 0 0 3 0 0 0 0 0 3 6 10 13 10 19 29 29 32 42 42 52 58 61 68 68 77 77 61 52 52 42 52 61 71 65 61 68 52 48 52 42 48 45 42 55 35 35 29
0 0 0 0 3 3 0 0 0 0 0 6 13 13 16 39 35 35 39 52 52 55 74 81 39 61 87 90 84 77 61 55 65 58 61 58 71 68 77 48 35 55 48 48 65 45 35 32 35
0 0 0 3 3 3 3 0 3 0 3 6 16 13 19 32 39 45 45 58 65 71 84 87 71 77 77 84 87 77 84 84 68 65 68 71 74 52 68 65 61 58 52 45 35 48 45 39 39
0 0 0 0 3 3 0 0 6 6 3 3 13 16 19 29 39 45 55 68 74 74 74 87 90 94 90 81 90 84 84 77 68 71 77 65 65 61 68 68 68 48 52 68 71 77 71 65 65
0 0 0 0 0 3 0 3 3 6 6 3 13 16 19 26 19 45 58 61 58 71 77 90 90 94 94 87 87 87 81 81 68 81 77 71 81 65 74 52 77 71 65 65 42 65 52 55 65
0 0 0 0 0 0 3 6 6 13 16 13 19 23 32 32 42 58 58 61 58 68 84 90 87 90 87 90 90 94 90 84 77 71 81 81 81 81 55 77 68 68 87 81 77 77 68 45 45
0 0 0 0 0 0 0 6 16 13 16 19 16 23 39 35 48 65 68 71 71 74 81 74 90 94 87 81 77 77 90 84 74 77 74 77 77 74 77 74 74 74 65 71 77 74 68 55 55
0 0 0 3 3 0 3 0 10 13 23 26 26 26 35 39 48 61 65 71 74 71 77 84 90 94 94 87 81 77 84 84 74 84 77 77 74 71 71 74 68 71 52 71 58 58 61 65 55
0 0 0 3 3 3 3 0 0 13 16 23 32 39 42 42 48 61 65 71 74 71 68 81 90 94 90 87 84 81 77 84 74 77 81 74 74 68 65 65 68 71 68 71 68 71 68 55 52
0 0 0 0 3 3 3 0 0 6 16 13 23 35 42 42 55 61 65 71 74 71 71 74 87 87 87 84 81 87 84 81 77 74 68 68 65 61 65 52 68 61 65 74 71 71 65 68 65
0 0 0 0 3 0 0 0 0 3 6 6 13 26 42 48 55 61 68 74 77 71 74 77 84 81 81 84 81 77 77 81 77 71 68 55 58 58 65 52 61 58 58 55 68 61 52 45 52
0 0 0 0 0 0 3 0 0 10 13 16 26 23 42 45 55 71 84 81 77 74 74 77 84 77 74 74 71 71 77 68 61 61 58 58 52 52 58 58 61 55 52 45 42 42 48 52 48
0 0 0 0 0 0 0 0 3 16 16 29 29 26 42 42 55 61 74 71 74 74 74 77 84 77 74 71 74 77 68 65 61 61 61 52 61 58 61 52 52 48 32 35 32 35 42 39 35
0 0 0 0 0 0 0 3 0 19 23 26 32 42 42 52 58 58 68 65 68 74 74 81 81 77 74 77 74 74 71 68 68 58 58 55 58 61 52 45 42 29 26 26 29 26 29 29 29
0 0 0 0 0 0 0 0 3 19 23 29 35 35 48 58 65 61 68 74 68 71 74 81 81 77 77 74 71 74 68 65 65 65 58 61 61 55 48 45 35 32 26 26 26 23 19 26 26
0 0 0 0 0 0 0 0 13 19 29 35 35 45 45 65 68 65 74 74 77 74 81 81 81 81 77 77 81 77 74 68 65 61 61 61 58 52 52 35 29 26 26 26 23 23 19 19 19

GEFSSGP_con_cape1000_222.txt.gz
Probability
10 19 52 84 52 23 0 0 0 0 0 0 0 0 0 0 0 0 6 13 16 13 39 74 90 87 84 84 84 84 84 81 84 81 74 74 74 74 71 68 68 77 74 68 74 68 65 68 71
16 42 74 61 29 0 0 0 0 0 0 0 0 0 0 0 0 0 6 13 16 19 39 71 87 94 94 90 87 84 81 77 81 77 74 68 77 81 77 74 71 74 74 74 71 68 61 71 61
42 68 55 29 3 0 0 0 0 0 0 0 0 0 0 0 3 6 10 19 19 39 58 77 97 94 94 90 90 77 77 71 74 77 68 71 71 77 81 71 71 61 65 71 71 65 55 65 58
55 55 26 3 0 0 0 0 0 0 0 0 0 0 3 3 6 6 10 13 19 42 42 77 94 90 94 90 87 81 68 71 77 77 71 74 68 71 65 71 71 77 74 71 71 71 52 48 45
55 35 10 0 0 0 0 0 0 0 0 0 3 6 3 6 6 6 23 23 26 29 32 65 90 94 90 87 81 84 77 65 74 74 74 65 61 65 61 58 61 55 55 61 58 58 55 52 39
23 16 0 0 0 0 0 0 0 0 0 3 6 10 3 3 3 6 19 23 26 26 39 68 90 90 87 81 77 68 74 77 74 68 61 58 58 58 58 48 48 48 48 52 45 45 39 35 26
16 3 0 0 0 0 0 0 0 0 0 0 3 3 3 3 6 6 16 19 26 26 42 55 65 74 87 77 71 68 68 61 68 58 65 61 52 52 55 55 52 55 48 52 42 39 29 32 23
3 0 0 0 0 0 0 0 0 0 0 0 0 0 6 3 3 6 10 23 26 23 26 45 48 58 61 68 71 71 68 61 58 55 45 52 55 55 58 52 55 45 45 42 32 29 23 19 19
0 0 0 0 0 0 0 0 0 0 0 3 3 10 6 3 3 6 10 13 19 26 29 29 32 61 52 42 55 61 65 61 58 61 58 58 52 39 45 45 48 39 32 32 39 32 26 16 16
0 0 0 0 0 0 0 0 0 0 0 3 3 3 6 3 0 3 6 10 23 35 26 35 42 58 48 35 68 68 48 65 61 68 61 68 77 58 35 61 45 35 29 39 45 55 35 19 13
0 0 0 0 0 0 0 0 0 0 0 0 0 3 6 6 6 10 13 19 32 42 45 42 48 61 48 68 58 61 65 81 68 65 74 84 65 52 35 48 35 45 35 32 48 48 29 23 19
0 0 0 0 0 0 0 0 0 0 0 0 3 3 6 3 6 13 19 23 39 45 42 42 58 77 84 84 81 77 61 77 65 74 71 77 81 77 74 84 68 71 74 74 65 58 42 32 23
0 0 0 0 0 0 0 0 0 0 0 0 3 3 6 13 13 16 23 32 48 55 55 65 84 84 87 97 97 74 74 68 71 81 74 81 84 84 74 74 84 74 77 77 81 65 65 48 42
0 0 0 0 0 0 0 0 0 0 0 0 3 3 3 6 6 16 35 45 55 55 52 77 84 87 87 90 90 90 74 90 84 84 77 77 81 84 84 77 87 81 84 84 87 71 74 61 65
0 0 0 0 0 0 0 0 0 0 0 0 3 3 3 6 10 23 39 52 55 74 74 77 84 87 87 90 87 84 81 74 84 94 90 68 81 87 87 90 90 90 94 90 94 77 81 68 58
0 0 0 0 0 0 0 0 0 0 0 0 3 3 6 26 13 19 35 52 61 74 87 84 55 87 90 94 94 87 84 87 90 87 87 81 74 81 90 87 87 97 97 97 94 90 74 74 74
0 0 0 0 0 0 0 0 0 0 0 3 3 10 10 23 16 26 35 48 74 84 90 81 84 90 94 90 97 94 94 90 90 94 90 90 84 77 87 90 90 84 81 87 65 74 84 77 74
0 0 0 0 0 0 0 0 0 0 0 6 3 10 19 26 26 29 39 48 68 90 90 90 90 90 94 94 97 97 97 90 94 94 90 90 87 90 87 97 97 84 87 87 84 81 81 77 74
0 0 0 0 3 0 0 3 3 3 0 3 3 13 23 26 42 48 48 58 65 87 90 94 94 94 97 97 97 94 90 90 87 90 87 90 87 90 94 94 94 90 87 90 81 81 74 68 68
0 0 0 0 0 0 0 0 0 3 3 3 3 26 32 35 48 65 65 68 68 87 94 94 94 94 94 94 97 94 90 90 90 90 84 87 90 94 77 90 90 90 90 90 87 87 84 71 65
0 0 0 0 0 0 0 0 3 3 3 6 13 16 26 29 48 61 61 65 65 87 94 90 94 94 94 97 97 90 94 90 90 87 87 87 84 74 84 84 87 87 87 87 87 77 71 65 58
0 0 0 0 0 0 0 3 3 3 6 3 13 26 35 26 42 61 58 68 74 74 87 94 94 94 97 97 94 90 84 84 90 87 94 94 77 77 81 84 84 84 81 84 77 74 65 61 52
0 0 0 0 0 0 0 0 0 3 0 10 6 23 19 26 42 52 61 74 74 74 81 94 97 97 97 97 97 94 90 87 90 90 94 94 87 84 77 81 84 84 81 74 74 65 65 71 61
0 0 0 0 0 0 0 0 0 0 0 3 3 16 23 29 35 48 58 68 74 74 74 94 97 97 97 94 94 90 87 84 87 87 87 81 84 84 81 81 84 81 71 68 71 68 65 61 61
0 0 0 0 0 0 0 0 6 0 3 0 3 10 16 29 35 55 65 68 74 74 74 90 94 97 97 94 90 90 90 87 87 87 87 77 77 74 81 74 74 77 68 65 68 65 61 61 61
0 0 0 0 0 0 0 0 0 0 3 3 6 13 19 32 39 48 71 81 77 77 87 94 94 97 97 97 90 90 94 87 84 84 84 81 68 61 65 65 68 71 61 52 65 58 48 48 48
0 0 0 0 0 0 0 3 0 0 3 6 6 13 19 39 45 48 65 71 74 74 90 94 97 97 97 97 94 87 84 81 84 81 84 77 71 65 65 65 61 61 65 52 55 52 48 45 35
0 0 0 0 6 0 0 0 0 3 6 13 6 16 32 39 45 52 58 68 77 81 90 97 97 97 97 97 97 84 84 84 84 84 81 81 65 61 61 65 58 61 55 45 45 39 26 29 29
0 0 0 0 0 0 0 0 3 6 13 13 13 19 39 45 52 55 65 65 77 81 87 97 97 97 97 97 97 94 90 87 84 84 77 74 65 61 55 55 55 52 48 35 26 26 23 26 23
0 0 0 0 10 0 0 0 3 6 13 16 19 23 29 45 58 61 65 74 81 81 84 90 97 97 97 94 94 90 90 87 84 81 77 71 65 65 58 55 55 48 35 26 19 19 19 23 26

GEFSSGP_con_cape1000_228.txt.gz
Probability
48 16 16 35 13 3 0 0 0 0 0 0 0 0 0 0 0 0 3 6 32 55 55 74 84 87 87 87 90 84 81 81 81 84 81 77 90 77 74 74 84 81 77 87 74 68 65 55 68
6 13 29 32 3 0 0 0 0 0 0 0 0 0 0 0 10 6 10 10 29 39 42 68 87 90 90 87 87 81 77 74 74 81 77 84 87 84 81 77 77 84 71 74 68 71 65 55 55
10 23 29 16 3 0 0 0 0 0 0 0 0 0 3 3 10 10 10 13 26 39 55 74 87 90 90 87 90 87 71 68 68 74 77 81 90 87 71 74 71 74 77 71 71 71 65 58 52
26 32 26 6 0 0 0 0 0 0 0 0 3 3 3 6 13 13 16 16 39 52 65 77 90 90 90 90 84 81 74 68 71 77 81 84 81 74 77 74 74 71 74 71 58 61 61 55 52
32 19 6 3 0 0 0 0 0 0 0 0 3 3 3 13 13 16 19 16 35 48 55 74 84 90 84 87 81 77 77 74 74 77 74 74 68 74 68 71 74 74 71 58 58 55 55 48 48
29 13 0 0 0 0 0 0 0 0 0 0 3 3 3 6 13 16 13 19 39 42 55 68 84 90 81 81 84 81 77 84 71 68 74 68 71 77 81 71 68 61 55 52 48 45 42 39 39
19 6 0 0 0 0 0 0 0 0 0 0 3 3 3 6 10 10 6 10 26 42 55 65 68 71 74 77 81 77 77 74 77 68 71 68 65 65 65 61 68 58 45 42 42 39 26 26 32
16 0 0 0 0 0 0 0 0 0 0 0 3 0 0 3 6 10 6 3 13 26 39 45 45 52 61 65 77 74 84 74 74 71 71 68 55 52 55 68 61 52 42 35 32 32 32 35 45
10 0 0 0 0 0 0 0 0 0 3 3 3 0 0 3 3 6 6 6 6 19 19 29 32 29 29 45 68 61 68 68 65 48 65 45 13 16 26 39 52 48 48 29 35 32 35 39 42
3 0 0 0 0 0 0 0 0 0 0 3 0 0 0 0 0 0 0 10 6 6 13 19 29 19 19 32 32 26 29 32 19 13 13 10 6 6 16 45 55 52 48 39 42 48 35 19 6
0 0 0 0 0 0 0 0 0 0 0 0 0 0 0 0 0 0 0 0 3 13 16 19 26 19 16 19 16 13 13 13 10 16 13 10 6 6 13 10 23 23 23 10 19 16 10 3 3
0 0 0 0 0 0 0 0 0 0 0 0 0 0 0 0 0 0 0 0 3 6 16 16 16 13 13 16 13 10 10 10 6 19 13 10 10 0 3 0 3 0 0 0 0 6 6 3 3
0 0 0 0 0 0 0 0 0 0 3 3 0 0 0 0 0 3 0 6 6 10 19 19 16 6 13 13 13 10 13 13 10 10 10 10 10 6 3 3 0 0 0 0 3 0 0 0 3
0 0 0 0 0 0 0 0 0 3 3 3 0 0 0 0 3 3 6 10 13 23 19 19 19 23 19 13 6 16 6 10 13 10 10 13 13 10 6 3 0 0 0 3 0 0 0 0 0
0 0 0 0 0 0 0 0 3 3 3 3 0 0 3 6 6 6 10 13 16 16 19 16 23 16 13 16 13 16 19 13 6 6 13 19 10 6 3 3 0 0 3 0 0 0 0 0 0
0 0 0 0 0 0 0 0 0 3 3 3 3 3 3 3 10 13 13 13 16 16 19 19 29 19 16 13 19 13 16 16 10 16 13 16 13 0 3 3 3 3 0 0 0 0 0 3 3
0 0 0 0 0 0 0 0 0 3 3 3 3 0 3 6 10 10 13 19 23 16 16 16 19 23 16 26 23 23 13 16 19 13 13 16 13 10 3 6 3 3 0 0 6 0 3 3 0
0 0 0 0 0 0 0 0 0 3 3 3 3 0 6 10 6 13 26 23 26 19 19 19 26 23 19 26 26 23 16 13 16 19 10 13 13 19 3 0 3 3 0 0 3 0 0 0 0
0 0 0 0 0 0 0 0 0 0 3 3 3 6 10 13 13 19 26 32 35 32 19 19 32 29 26 32 29 23 16 16 13 13 10 10 19 19 13 6 6 3 3 3 6 3 0 0 0
0 0 0 0 0 0 0 0 0 0 3 3 6 13 10 10 16 16 16 39 35 32 23 26 39 32 29 29 29 26 19 23 23 16 19 10 23 19 23 6 6 10 6 3 6 6 6 3 3
0 0 0 0 0 0 0 0 0 0 0 3 10 13 6 13 16 16 16 29 39 39 39 39 39 42 39 32 48 45 35 32 29 19 19 23 23 19 23 16 16 13 13 13 10 13 6 10 3
0 0 0 0 0 0 0 0 0 0 0 3 6 10 6 19 16 16 19 35 42 45 42 48 48 52 55 42 45 45 32 23 26 29 23 29 29 26 23 19 16 19 19 16 19 13 10 13 13
0 0 0 0 0 0 0 0 0 0 6 6 6 10 13 19 19 19 23 35 45 48 48 48 48 55 58 58 42 42 39 35 26 32 39 39 29 29 32 32 26 23 16 19 23 16 13 13 13
0 0 0 0 0 0 0 0 0 3 3 3 13 10 16 23 26 29 23 35 45 55 58 55 52 55 55 55 52 48 48 48 39 32 35 39 23 23 32 26 19 16 19 19 23 16 13 13 13
0 0 0 0 0 0 0 0 0 0 3 3 13 16 19 23 29 29 29 35 42 55 68 55 55 61 58 61 52 48 52 45 39 35 26 19 26 23 26 32 19 23 19 19 13 13 13 10 10
0 0 0 0 0 0 0 0 0 0 3 3 3 23 26 19 23 26 29 35 45 55 55 55 58 61 61 61 65 58 55 55 45 35 29 23 19 26 23 23 23 19 23 23 13 13 10 10 10
0 0 0 0 0 0 0 0 3 3 3 10 13 19 29 32 23 35 29 32 42 52 52 61 61 68 68 68 61 58 58 58 52 45 39 29 26 26 23 23 19 16 19 19 19 13 13 13 13
0 0 0 0 0 0 0 0 3 3 3 6 16 19 26 29 29 32 35 35 42 48 48 55 68 71 74 71 68 68 61 55 48 42 39 39 32 29 26 23 23 19 16 16 16 13 13 13 13
0 0 0 0 0 0 0 0 3 3 6 10 13 23 32 39 39 32 35 39 39 45 52 61 71 74 74 74 71 68 65 58 52 39 35 29 26 26 23 19 13 13 10 10 10 13 6 6 6
0 0 0 0 0 0 0 0 0 3 3 10 13 26 35 42 39 35 42 45 52 55 58 65 71 77 74 74 71 68 61 58 42 39 35 23 23 19 23 16 10 10 6 6 3 3 6 6 3

GEFSSGP_con_cape1000_234.txt.gz
Probability
68 42 19 0 0 0 0 0 0 0 0 0 0 0 0 0 0 0 0 3 13 29 45 55 65 74 74 81 87 90 90 87 84 71 71 65 61 68 68 74 74 71 81 77 77 68 58 52 52
35 19 3 3 0 0 0 0 0 0 0 0 0 0 0 6 6 0 6 10 29 32 39 52 74 84 74 77 81 90 84 74 81 68 65 58 58 65 74 77 84 77 77 77 61 52 48 42 52
23 16 6 3 0 0 0 0 0 0 0 0 0 3 3 6 6 3 6 26 26 29 39 58 81 84 81 77 77 87 87 74 74 77 74 71 58 68 71 71 77 81 71 68 65 55 52 45 45
10 6 0 0 0 0 0 0 0 0 0 0 3 3 3 6 10 10 13 26 19 26 42 58 77 81 74 77 77 81 74 71 84 84 71 71 71 71 74 71 74 71 71 71 71 55 55 48 52
10 0 0 0 0 0 0 0 0 0 0 3 3 3 10 10 10 13 19 23 16 29 45 61 71 81 74 74 77 77 77 74 84 84 68 71 65 71 68 65 71 71 68 65 65 55 52 48 45
6 3 0 0 0 0 0 0 0 0 3 3 3 0 3 13 10 13 16 23 16 32 45 58 68 77 74 77 77 77 74 77 77 81 77 71 71 68 68 68 71 61 61 58 58 58 52 42 55
3 3 0 0 0 0 0 0 0 0 0 0 0 0 3 10 10 13 13 16 19 39 45 52 55 52 65 74 84 74 77 77 74 71 68 74 68 68 65 65 61 52 52 42 32 32 42 45 45
3 0 0 0 0 0 0 0 0 0 0 0 0 0 0 6 6 13 6 10 13 26 42 39 39 39 39 52 68 65 68 77 68 58 58 65 52 45 48 58 52 42 42 39 32 29 42 42 58
3 3 0 0 0 0 0 0 0 0 0 0 0 0 0 6 6 6 6 6 10 10 13 26 35 29 29 32 45 42 52 61 39 32 55 29 3 10 16 29 52 39 35 39 52 45 29 35 35
0 0 0 0 0 0 0 0 0 0 0 0 0 0 3 6 6 3 3 6 10 10 10 10 23 29 26 32 23 19 29 26 13 13 13 6 3 10 10 32 32 39 39 39 45 48 39 23 16
0 0 0 0 0 0 0 0 0 0 0 0 0 0 3 6 3 0 0 3 6 3 6 10 10 10 13 13 16 13 16 13 10 13 3 0 0 6 6 10 10 13 13 6 10 13 10 6 6
0 0 0 0 0 0 0 0 0 0 0 0 0 0 0 0 0 0 0 0 3 3 3 6 10 10 6 0 13 6 6 0 3 3 3 0 0 0 0 0 0 0 0 3 0 0 0 0 10
0 0 0 0 0 0 0 0 0 0 0 0 0 0 0 0 0 0 0 0 0 3 6 3 3 6 3 0 0 10 6 3 0 3 3 0 0 0 3 0 0 0 0 0 0 0 0 0 3
0 0 0 0 0 0 0 0 0 0 0 0 0 0 0 0 0 0 0 0 3 0 0 3 3 3 0 0 0 3 6 3 0 0 0 3 0 0 3 0 0 0 0 0 0 0 0 3 6
0 0 0 0 0 0 0 0 0 0 0 0 0 0 3 0 0 0 0 0 3 0 0 3 0 3 0 0 3 3 3 3 3 3 0 3 0 0 0 0 0 0 0 0 0 0 0 3 0
0 0 0 0 0 0 0 0 0 0 0 0 3 3 3 3 3 3 0 3 0 0 0 6 13 6 6 6 6 3 0 3 6 3 6 0 6 0 0 0 0 0 0 0 0 0 0 0 0
0 0 0 0 0 0 0 0 0 0 0 0 3 3 3 3 3 3 3 3 0 0 6 6 6 6 10 10 6 10 6 3 6 3 0 0 6 3 0 0 0 0 0 0 0 0 0 0 0
0 0 0 0 0 0 0 0 0 3 3 0 0 3 3 3 3 3 3 0 3 6 6 3 3 3 3 10 10 6 6 10 6 3 0 3 3 3 0 0 0 0 0 0 0 0 0 0 0
0 0 0 0 0 0 0 0 0 3 3 0 0 0 3 3 3 3 6 6 6 6 3 3 3 3 3 3 10 13 10 3 3 0 3 3 3 3 0 3 0 0 0 0 0 0 0 0 0
0 0 0 0 0 0 0 0 0 0 3 0 0 0 3 6 10 10 6 10 6 3 3 6 3 3 3 3 3 10 10 6 6 6 3 6 6 6 13 0 0 0 0 3 0 0 0 3 3
0 0 0 0 0 0 0 0 0 0 0 0 0 0 3 6 10 6 6 6 6 6 10 13 13 10 6 3 3 10 6 10 6 6 6 6 6 3 10 6 0 0 0 0 0 6 3 3 3
0 0 0 0 0 0 0 0 0 0 0 0 0 0 3 6 6 6 6 6 6 6 6 13 13 6 6 6 6 6 6 10 10 6 6 6 6 13 13 10 6 10 6 6 3 13 3 6 13
0 0 0 0 0 0 0 0 0 0 0 0 0 0 3 6 10 10 6 6 10 16 16 10 10 13 10 10 6 6 13 6 6 6 6 10 16 16 26 23 16 13 10 10 10 13 13 10 13
0 0 0 0 0 0 0 0 0 0 0 0 3 6 3 6 10 10 10 10 13 13 6 13 10 10 10 10 13 13 13 10 6 10 6 13 13 13 19 26 16 10 10 10 13 13 13 13 13
0 0 0 0 0 0 0 0 0 0 0 3 3 6 6 6 6 10 16 13 19 10 16 16 13 13 16 13 16 16 13 13 13 10 13 13 13 16 23 13 13 10 13 13 10 10 10 10 10
0 0 0 0 0 0 0 0 0 0 0 6 6 6 13 16 13 13 13 16 26 19 19 19 13 16 16 19 23 23 19 19 23 19 19 13 16 19 19 16 13 13 16 16 10 10 10 10 10
0 0 0 0 0 0 0 0 0 0 3 10 10 10 10 19 10 13 13 10 13 23 19 23 13 16 13 26 26 32 29 26 29 26 19 16 19 19 19 13 10 10 6 6 6 6 6 6 6
0 0 0 0 0 0 0 0 0 0 3 13 13 16 13 13 13 16 19 19 16 19 23 19 23 16 23 29 35 39 26 29 35 39 26 23 16 19 16 13 13 6 6 6 6 6 6 6 3
0 0 0 0 0 0 0 0 0 0 3 10 13 10 16 16 19 16 19 19 16 19 19 26 26 32 32 32 29 39 35 42 32 32 35 32 26 16 16 6 10 6 6 6 6 6 6 3 3
0 0 0 0 0 0 0 0 0 3 3 3 13 16 16 10 19 16 16 19 23 16 23 29 29 35 32 32 39 45 35 35 35 32 32 29 23 16 10 6 6 6 6 6 6 3 3 3 3